Wetterdaten: Mittwoch, 20.11.2019
Datum Zeit Temp. A. Feuchte A. Luftdruck Regen Wind Richtung Richtung Sonnenschein ET UV Solar Taupunkt Windchill Windböen
20.11.2019 00:00 1,9 °C 93 % 1017,1 hPa 0,0 mm 2,3 km/h (1 Bft) O 82 ° 0 min 0,000 mm 0,0 UV-I 0 W/m² 0,9 °C 1,9 °C 3,2 km/h (1 Bft)
20.11.2019 00:01 1,8 °C 93 % 1017,1 hPa 0,0 mm 2,4 km/h (1 Bft) O 82 ° 0 min 0,000 mm 0,0 UV-I 0 W/m² 0,8 °C 1,8 °C 3,2 km/h (1 Bft)
20.11.2019 00:02 1,8 °C 93 % 1017,1 hPa 0,0 mm 2,4 km/h (1 Bft) O 82 ° 0 min 0,000 mm 0,0 UV-I 0 W/m² 0,8 °C 1,8 °C 3,2 km/h (1 Bft)
20.11.2019 00:03 1,9 °C 93 % 1017,1 hPa 0,0 mm 4,2 km/h (1 Bft) O 82 ° 0 min 0,000 mm 0,0 UV-I 0 W/m² 0,9 °C 1,9 °C 6,4 km/h (2 Bft)
20.11.2019 00:04 1,8 °C 93 % 1017,1 hPa 0,0 mm 3,1 km/h (1 Bft) O 82 ° 0 min 0,000 mm 0,0 UV-I 0 W/m² 0,8 °C 1,8 °C 4,8 km/h (1 Bft)
20.11.2019 00:05 1,8 °C 93 % 1017,1 hPa 0,0 mm 3,2 km/h (1 Bft) O 82 ° 0 min 0,000 mm 0,0 UV-I 0 W/m² 0,8 °C 1,8 °C 4,8 km/h (1 Bft)
20.11.2019 00:06 1,8 °C 93 % 1017,1 hPa 0,0 mm 4,1 km/h (1 Bft) O 82 ° 0 min 0,000 mm 0,0 UV-I 0 W/m² 0,8 °C 1,8 °C 6,4 km/h (2 Bft)
20.11.2019 00:07 1,9 °C 93 % 1017,1 hPa 0,0 mm 4,3 km/h (1 Bft) O 81 ° 0 min 0,000 mm 0,0 UV-I 0 W/m² 0,9 °C 1,9 °C 6,4 km/h (2 Bft)
20.11.2019 00:08 1,8 °C 93 % 1017,1 hPa 0,0 mm 1,7 km/h (1 Bft) O 82 ° 0 min 0,000 mm 0,0 UV-I 0 W/m² 0,8 °C 1,8 °C 6,4 km/h (2 Bft)
20.11.2019 00:09 1,9 °C 93 % 1017,1 hPa 0,0 mm 2,3 km/h (1 Bft) O 82 ° 0 min 0,000 mm 0,0 UV-I 0 W/m² 0,9 °C 1,9 °C 4,8 km/h (1 Bft)
20.11.2019 00:10 1,9 °C 93 % 1017,0 hPa 0,0 mm 1,2 km/h (1 Bft) O 82 ° 0 min 0,000 mm 0,0 UV-I 0 W/m² 0,9 °C 1,9 °C 3,2 km/h (1 Bft)
20.11.2019 00:11 1,9 °C 93 % 1017,0 hPa 0,0 mm 0,8 km/h (0 Bft) O 82 ° 0 min 0,000 mm 0,0 UV-I 0 W/m² 0,9 °C 1,9 °C 3,2 km/h (1 Bft)
20.11.2019 00:12 1,8 °C 93 % 1017,0 hPa 0,0 mm 2,8 km/h (1 Bft) O 82 ° 0 min 0,000 mm 0,0 UV-I 0 W/m² 0,8 °C 1,8 °C 4,8 km/h (1 Bft)
20.11.2019 00:13 1,8 °C 93 % 1017,0 hPa 0,0 mm 5,3 km/h (1 Bft) O-NO 78 ° 0 min 0,000 mm 0,0 UV-I 0 W/m² 0,8 °C 0,3 °C 8,0 km/h (2 Bft)
20.11.2019 00:14 1,8 °C 93 % 1016,9 hPa 0,0 mm 2,6 km/h (1 Bft) NO 51 ° 0 min 0,000 mm 0,0 UV-I 0 W/m² 0,8 °C 1,8 °C 4,8 km/h (1 Bft)
20.11.2019 00:15 1,8 °C 93 % 1016,9 hPa 0,0 mm 4,2 km/h (1 Bft) O 82 ° 0 min 0,000 mm 0,0 UV-I 0 W/m² 0,8 °C 1,8 °C 6,4 km/h (2 Bft)
20.11.2019 00:16 1,8 °C 93 % 1016,9 hPa 0,0 mm 4,4 km/h (1 Bft) O-NO 65 ° 0 min 0,000 mm 0,0 UV-I 0 W/m² 0,8 °C 1,8 °C 6,4 km/h (2 Bft)
20.11.2019 00:17 1,8 °C 93 % 1016,9 hPa 0,0 mm 4,3 km/h (1 Bft) O-NO 70 ° 0 min 0,000 mm 0,0 UV-I 0 W/m² 0,8 °C 1,8 °C 4,8 km/h (1 Bft)
20.11.2019 00:18 1,8 °C 93 % 1016,9 hPa 0,0 mm 2,1 km/h (1 Bft) O-NO 70 ° 0 min 0,000 mm 0,0 UV-I 0 W/m² 0,8 °C 1,8 °C 3,2 km/h (1 Bft)
20.11.2019 00:19 1,8 °C 93 % 1016,9 hPa 0,0 mm 2,7 km/h (1 Bft) O-NO 70 ° 0 min 0,000 mm 0,0 UV-I 0 W/m² 0,8 °C 1,8 °C 3,2 km/h (1 Bft)
20.11.2019 00:20 1,8 °C 94 % 1016,9 hPa 0,0 mm 0,3 km/h (0 Bft) O-NO 70 ° 0 min 0,000 mm 0,0 UV-I 0 W/m² 0,9 °C 1,8 °C 3,2 km/h (1 Bft)
20.11.2019 00:21 1,8 °C 93 % 1016,9 hPa 0,0 mm 4,4 km/h (1 Bft) O-NO 70 ° 0 min 0,000 mm 0,0 UV-I 0 W/m² 0,8 °C 1,8 °C 4,8 km/h (1 Bft)
20.11.2019 00:22 1,8 °C 93 % 1016,9 hPa 0,0 mm 3,6 km/h (1 Bft) O-NO 70 ° 0 min 0,000 mm 0,0 UV-I 0 W/m² 0,8 °C 1,8 °C 4,8 km/h (1 Bft)
20.11.2019 00:23 1,8 °C 93 % 1016,9 hPa 0,0 mm 3,9 km/h (1 Bft) O-NO 70 ° 0 min 0,000 mm 0,0 UV-I 0 W/m² 0,8 °C 1,8 °C 6,4 km/h (2 Bft)
20.11.2019 00:24 1,8 °C 93 % 1016,9 hPa 0,0 mm 4,2 km/h (1 Bft) O 86 ° 0 min 0,000 mm 0,0 UV-I 0 W/m² 0,8 °C 1,8 °C 6,4 km/h (2 Bft)
20.11.2019 00:25 1,8 °C 93 % 1016,8 hPa 0,0 mm 4,0 km/h (1 Bft) O-NO 72 ° 0 min 0,000 mm 0,0 UV-I 0 W/m² 0,8 °C 1,8 °C 6,4 km/h (2 Bft)
20.11.2019 00:26 1,8 °C 93 % 1016,8 hPa 0,0 mm 4,4 km/h (1 Bft) O-NO 59 ° 0 min 0,000 mm 0,0 UV-I 0 W/m² 0,8 °C 1,8 °C 6,4 km/h (2 Bft)
20.11.2019 00:27 1,8 °C 93 % 1016,8 hPa 0,0 mm 6,0 km/h (2 Bft) O 88 ° 0 min 0,000 mm 0,0 UV-I 0 W/m² 0,8 °C 0,0 °C 9,7 km/h (2 Bft)
20.11.2019 00:28 1,8 °C 93 % 1016,8 hPa 0,0 mm 5,5 km/h (1 Bft) O-NO 78 ° 0 min 0,000 mm 0,0 UV-I 0 W/m² 0,8 °C 0,2 °C 8,0 km/h (2 Bft)
20.11.2019 00:29 1,8 °C 93 % 1016,8 hPa 0,0 mm 2,7 km/h (1 Bft) O-NO 71 ° 0 min 0,000 mm 0,0 UV-I 0 W/m² 0,8 °C 1,8 °C 4,8 km/h (1 Bft)
20.11.2019 00:30 1,8 °C 93 % 1016,8 hPa 0,0 mm 1,9 km/h (1 Bft) O-NO 71 ° 0 min 0,000 mm 0,0 UV-I 0 W/m² 0,8 °C 1,8 °C 4,8 km/h (1 Bft)
20.11.2019 00:31 1,8 °C 93 % 1016,8 hPa 0,0 mm 4,1 km/h (1 Bft) O-NO 71 ° 0 min 0,000 mm 0,0 UV-I 0 W/m² 0,8 °C 1,8 °C 6,4 km/h (2 Bft)
20.11.2019 00:32 1,8 °C 93 % 1016,7 hPa 0,0 mm 2,0 km/h (1 Bft) O-NO 71 ° 0 min 0,000 mm 0,0 UV-I 0 W/m² 0,8 °C 1,8 °C 4,8 km/h (1 Bft)
20.11.2019 00:33 1,8 °C 93 % 1016,7 hPa 0,0 mm 2,9 km/h (1 Bft) O-NO 71 ° 0 min 0,000 mm 0,0 UV-I 0 W/m² 0,8 °C 1,8 °C 6,4 km/h (2 Bft)
20.11.2019 00:34 1,8 °C 93 % 1016,7 hPa 0,0 mm 1,8 km/h (1 Bft) O-NO 71 ° 0 min 0,000 mm 0,0 UV-I 0 W/m² 0,8 °C 1,8 °C 3,2 km/h (1 Bft)
20.11.2019 00:35 1,8 °C 93 % 1016,7 hPa 0,0 mm 2,1 km/h (1 Bft) O-NO 71 ° 0 min 0,000 mm 0,0 UV-I 0 W/m² 0,8 °C 1,8 °C 4,8 km/h (1 Bft)
20.11.2019 00:36 1,8 °C 93 % 1016,8 hPa 0,0 mm 1,8 km/h (1 Bft) O-NO 71 ° 0 min 0,000 mm 0,0 UV-I 0 W/m² 0,8 °C 1,8 °C 3,2 km/h (1 Bft)
20.11.2019 00:37 1,8 °C 93 % 1016,7 hPa 0,0 mm 2,2 km/h (1 Bft) O-NO 71 ° 0 min 0,000 mm 0,0 UV-I 0 W/m² 0,8 °C 1,8 °C 3,2 km/h (1 Bft)
20.11.2019 00:38 1,8 °C 93 % 1016,7 hPa 0,0 mm 2,0 km/h (1 Bft) O 80 ° 0 min 0,000 mm 0,0 UV-I 0 W/m² 0,8 °C 1,8 °C 4,8 km/h (1 Bft)
20.11.2019 00:39 1,8 °C 93 % 1016,7 hPa 0,0 mm 2,3 km/h (1 Bft) SO 131 ° 0 min 0,000 mm 0,0 UV-I 0 W/m² 0,8 °C 1,8 °C 6,4 km/h (2 Bft)
20.11.2019 00:40 1,8 °C 93 % 1016,7 hPa 0,0 mm 2,3 km/h (1 Bft) SO 131 ° 0 min 0,000 mm 0,0 UV-I 0 W/m² 0,8 °C 1,8 °C 3,2 km/h (1 Bft)
20.11.2019 00:41 1,8 °C 93 % 1016,7 hPa 0,0 mm 1,2 km/h (1 Bft) SO 131 ° 0 min 0,000 mm 0,0 UV-I 0 W/m² 0,8 °C 1,8 °C 3,2 km/h (1 Bft)
20.11.2019 00:42 1,8 °C 93 % 1016,7 hPa 0,0 mm 0,3 km/h (0 Bft) SO 131 ° 0 min 0,000 mm 0,0 UV-I 0 W/m² 0,8 °C 1,8 °C 1,6 km/h (1 Bft)
20.11.2019 00:43 1,8 °C 93 % 1016,6 hPa 0,0 mm 1,4 km/h (1 Bft) SO 131 ° 0 min 0,000 mm 0,0 UV-I 0 W/m² 0,8 °C 1,8 °C 3,2 km/h (1 Bft)
20.11.2019 00:44 1,7 °C 93 % 1016,6 hPa 0,0 mm 2,2 km/h (1 Bft) SO 131 ° 0 min 0,000 mm 0,0 UV-I 0 W/m² 0,7 °C 1,7 °C 4,8 km/h (1 Bft)
20.11.2019 00:45 1,7 °C 93 % 1016,6 hPa 0,0 mm 1,1 km/h (1 Bft) SO 131 ° 0 min 0,000 mm 0,0 UV-I 0 W/m² 0,7 °C 1,7 °C 3,2 km/h (1 Bft)
20.11.2019 00:46 1,7 °C 93 % 1016,6 hPa 0,0 mm 0,5 km/h (0 Bft) SO 131 ° 0 min 0,000 mm 0,0 UV-I 0 W/m² 0,7 °C 1,7 °C 1,6 km/h (1 Bft)
20.11.2019 00:47 1,7 °C 93 % 1016,6 hPa 0,0 mm 0,7 km/h (0 Bft) SO 131 ° 0 min 0,000 mm 0,0 UV-I 0 W/m² 0,7 °C 1,7 °C 1,6 km/h (1 Bft)
20.11.2019 00:48 1,7 °C 93 % 1016,6 hPa 0,0 mm 0,0 km/h (0 Bft) SO 131 ° 0 min 0,000 mm 0,0 UV-I 0 W/m² 0,7 °C 1,7 °C 0,0 km/h (0 Bft)
20.11.2019 00:49 1,7 °C 93 % 1016,6 hPa 0,0 mm 0,0 km/h (0 Bft) SO 131 ° 0 min 0,000 mm 0,0 UV-I 0 W/m² 0,7 °C 1,7 °C 0,0 km/h (0 Bft)
20.11.2019 00:50 1,7 °C 93 % 1016,6 hPa 0,0 mm 0,0 km/h (0 Bft) SO 131 ° 0 min 0,000 mm 0,0 UV-I 0 W/m² 0,7 °C 1,7 °C 0,0 km/h (0 Bft)
20.11.2019 00:51 1,7 °C 93 % 1016,6 hPa 0,0 mm 0,0 km/h (0 Bft) SO 131 ° 0 min 0,000 mm 0,0 UV-I 0 W/m² 0,7 °C 1,7 °C 0,0 km/h (0 Bft)
20.11.2019 00:52 1,7 °C 93 % 1016,6 hPa 0,0 mm 0,0 km/h (0 Bft) SO 131 ° 0 min 0,000 mm 0,0 UV-I 0 W/m² 0,7 °C 1,7 °C 0,0 km/h (0 Bft)
20.11.2019 00:53 1,7 °C 93 % 1016,6 hPa 0,0 mm 0,0 km/h (0 Bft) SO 131 ° 0 min 0,000 mm 0,0 UV-I 0 W/m² 0,7 °C 1,7 °C 0,0 km/h (0 Bft)
20.11.2019 00:54 1,7 °C 93 % 1016,6 hPa 0,0 mm 0,0 km/h (0 Bft) SO 131 ° 0 min 0,000 mm 0,0 UV-I 0 W/m² 0,7 °C 1,7 °C 0,0 km/h (0 Bft)
20.11.2019 00:55 1,7 °C 93 % 1016,5 hPa 0,0 mm 0,0 km/h (0 Bft) SO 131 ° 0 min 0,000 mm 0,0 UV-I 0 W/m² 0,7 °C 1,7 °C 0,0 km/h (0 Bft)
20.11.2019 00:56 1,7 °C 93 % 1016,5 hPa 0,0 mm 0,0 km/h (0 Bft) SO 131 ° 0 min 0,000 mm 0,0 UV-I 0 W/m² 0,7 °C 1,7 °C 0,0 km/h (0 Bft)
20.11.2019 00:57 1,7 °C 93 % 1016,6 hPa 0,0 mm 0,0 km/h (0 Bft) SO 131 ° 0 min 0,000 mm 0,0 UV-I 0 W/m² 0,7 °C 1,7 °C 0,0 km/h (0 Bft)
20.11.2019 00:58 1,7 °C 94 % 1016,5 hPa 0,0 mm 0,0 km/h (0 Bft) SO 131 ° 0 min 0,000 mm 0,0 UV-I 0 W/m² 0,8 °C 1,7 °C 0,0 km/h (0 Bft)
20.11.2019 00:59 1,7 °C 93 % 1016,6 hPa 0,0 mm 0,0 km/h (0 Bft) SO 131 ° 0 min 0,000 mm 0,0 UV-I 0 W/m² 0,7 °C 1,7 °C 0,0 km/h (0 Bft)
20.11.2019 01:00 1,7 °C 93 % 1016,6 hPa 0,0 mm 0,0 km/h (0 Bft) SO 131 ° 0 min 0,000 mm 0,0 UV-I 0 W/m² 0,7 °C 1,7 °C 0,0 km/h (0 Bft)
20.11.2019 01:01 1,7 °C 93 % 1016,5 hPa 0,0 mm 0,0 km/h (0 Bft) SO 131 ° 0 min 0,000 mm 0,0 UV-I 0 W/m² 0,7 °C 1,7 °C 0,0 km/h (0 Bft)
20.11.2019 01:02 1,7 °C 94 % 1016,5 hPa 0,0 mm 0,0 km/h (0 Bft) SO 131 ° 0 min 0,000 mm 0,0 UV-I 0 W/m² 0,8 °C 1,7 °C 0,0 km/h (0 Bft)
20.11.2019 01:03 1,7 °C 94 % 1016,5 hPa 0,0 mm 0,0 km/h (0 Bft) SO 131 ° 0 min 0,000 mm 0,0 UV-I 0 W/m² 0,8 °C 1,7 °C 0,0 km/h (0 Bft)
20.11.2019 01:04 1,7 °C 94 % 1016,5 hPa 0,0 mm 0,0 km/h (0 Bft) SO 131 ° 0 min 0,000 mm 0,0 UV-I 0 W/m² 0,8 °C 1,7 °C 0,0 km/h (0 Bft)
20.11.2019 01:05 1,7 °C 94 % 1016,5 hPa 0,0 mm 0,0 km/h (0 Bft) SO 131 ° 0 min 0,000 mm 0,0 UV-I 0 W/m² 0,8 °C 1,7 °C 0,0 km/h (0 Bft)
20.11.2019 01:06 1,7 °C 94 % 1016,4 hPa 0,0 mm 0,0 km/h (0 Bft) SO 131 ° 0 min 0,000 mm 0,0 UV-I 0 W/m² 0,8 °C 1,7 °C 0,0 km/h (0 Bft)
20.11.2019 01:07 1,7 °C 94 % 1016,5 hPa 0,0 mm 0,0 km/h (0 Bft) SO 131 ° 0 min 0,000 mm 0,0 UV-I 0 W/m² 0,8 °C 1,7 °C 0,0 km/h (0 Bft)
20.11.2019 01:08 1,7 °C 94 % 1016,5 hPa 0,0 mm 0,0 km/h (0 Bft) SO 131 ° 0 min 0,000 mm 0,0 UV-I 0 W/m² 0,8 °C 1,7 °C 0,0 km/h (0 Bft)
20.11.2019 01:09 1,7 °C 94 % 1016,5 hPa 0,0 mm 0,0 km/h (0 Bft) SO 131 ° 0 min 0,000 mm 0,0 UV-I 0 W/m² 0,8 °C 1,7 °C 0,0 km/h (0 Bft)
20.11.2019 01:10 1,7 °C 94 % 1016,5 hPa 0,0 mm 0,0 km/h (0 Bft) SO 131 ° 0 min 0,000 mm 0,0 UV-I 0 W/m² 0,8 °C 1,7 °C 0,0 km/h (0 Bft)
20.11.2019 01:11 1,7 °C 94 % 1016,5 hPa 0,0 mm 0,0 km/h (0 Bft) SO 131 ° 0 min 0,000 mm 0,0 UV-I 0 W/m² 0,8 °C 1,7 °C 0,0 km/h (0 Bft)
20.11.2019 01:12 1,7 °C 94 % 1016,5 hPa 0,0 mm 0,0 km/h (0 Bft) SO 131 ° 0 min 0,000 mm 0,0 UV-I 0 W/m² 0,8 °C 1,7 °C 0,0 km/h (0 Bft)
20.11.2019 01:13 1,7 °C 94 % 1016,5 hPa 0,0 mm 0,0 km/h (0 Bft) SO 131 ° 0 min 0,000 mm 0,0 UV-I 0 W/m² 0,8 °C 1,7 °C 0,0 km/h (0 Bft)
20.11.2019 01:14 1,7 °C 94 % 1016,5 hPa 0,0 mm 0,0 km/h (0 Bft) SO 131 ° 0 min 0,000 mm 0,0 UV-I 0 W/m² 0,8 °C 1,7 °C 0,0 km/h (0 Bft)
20.11.2019 01:15 1,7 °C 94 % 1016,5 hPa 0,0 mm 0,0 km/h (0 Bft) SO 131 ° 0 min 0,000 mm 0,0 UV-I 0 W/m² 0,8 °C 1,7 °C 0,0 km/h (0 Bft)
20.11.2019 01:16 1,7 °C 94 % 1016,5 hPa 0,0 mm 2,5 km/h (1 Bft) SO 131 ° 0 min 0,000 mm 0,0 UV-I 0 W/m² 0,8 °C 1,7 °C 4,8 km/h (1 Bft)
20.11.2019 01:17 1,7 °C 94 % 1016,5 hPa 0,0 mm 1,9 km/h (1 Bft) SO 131 ° 0 min 0,000 mm 0,0 UV-I 0 W/m² 0,8 °C 1,7 °C 3,2 km/h (1 Bft)
20.11.2019 01:18 1,7 °C 94 % 1016,5 hPa 0,0 mm 2,1 km/h (1 Bft) SO 131 ° 0 min 0,000 mm 0,0 UV-I 0 W/m² 0,8 °C 1,7 °C 3,2 km/h (1 Bft)
20.11.2019 01:19 1,7 °C 94 % 1016,5 hPa 0,0 mm 1,6 km/h (1 Bft) SO 131 ° 0 min 0,000 mm 0,0 UV-I 0 W/m² 0,8 °C 1,7 °C 3,2 km/h (1 Bft)
20.11.2019 01:20 1,7 °C 94 % 1016,4 hPa 0,0 mm 0,1 km/h (0 Bft) SO 131 ° 0 min 0,000 mm 0,0 UV-I 0 W/m² 0,8 °C 1,7 °C 1,6 km/h (1 Bft)
20.11.2019 01:21 1,7 °C 94 % 1016,4 hPa 0,0 mm 0,6 km/h (0 Bft) SO 131 ° 0 min 0,000 mm 0,0 UV-I 0 W/m² 0,8 °C 1,7 °C 3,2 km/h (1 Bft)
20.11.2019 01:22 1,7 °C 94 % 1016,4 hPa 0,0 mm 1,7 km/h (1 Bft) SO 131 ° 0 min 0,000 mm 0,0 UV-I 0 W/m² 0,8 °C 1,7 °C 3,2 km/h (1 Bft)
20.11.2019 01:23 1,7 °C 94 % 1016,4 hPa 0,0 mm 0,0 km/h (0 Bft) SO 131 ° 0 min 0,000 mm 0,0 UV-I 0 W/m² 0,8 °C 1,7 °C 0,0 km/h (0 Bft)
20.11.2019 01:24 1,7 °C 94 % 1016,4 hPa 0,0 mm 2,0 km/h (1 Bft) SO 131 ° 0 min 0,000 mm 0,0 UV-I 0 W/m² 0,8 °C 1,7 °C 4,8 km/h (1 Bft)
20.11.2019 01:25 1,7 °C 94 % 1016,4 hPa 0,0 mm 0,7 km/h (0 Bft) SO 131 ° 0 min 0,000 mm 0,0 UV-I 0 W/m² 0,8 °C 1,7 °C 3,2 km/h (1 Bft)
20.11.2019 01:26 1,7 °C 94 % 1016,4 hPa 0,0 mm 0,1 km/h (0 Bft) SO 131 ° 0 min 0,000 mm 0,0 UV-I 0 W/m² 0,8 °C 1,7 °C 1,6 km/h (1 Bft)
20.11.2019 01:27 1,7 °C 94 % 1016,4 hPa 0,0 mm 1,0 km/h (0 Bft) SO 131 ° 0 min 0,000 mm 0,0 UV-I 0 W/m² 0,8 °C 1,7 °C 3,2 km/h (1 Bft)
20.11.2019 01:28 1,7 °C 94 % 1016,4 hPa 0,0 mm 0,0 km/h (0 Bft) SO 131 ° 0 min 0,000 mm 0,0 UV-I 0 W/m² 0,8 °C 1,7 °C 0,0 km/h (0 Bft)
20.11.2019 01:29 1,7 °C 94 % 1016,4 hPa 0,0 mm 0,0 km/h (0 Bft) SO 131 ° 0 min 0,000 mm 0,0 UV-I 0 W/m² 0,8 °C 1,7 °C 0,0 km/h (0 Bft)
20.11.2019 01:30 1,7 °C 94 % 1016,4 hPa 0,0 mm 0,7 km/h (0 Bft) SO 131 ° 0 min 0,000 mm 0,0 UV-I 0 W/m² 0,8 °C 1,7 °C 3,2 km/h (1 Bft)
20.11.2019 01:31 1,7 °C 94 % 1016,5 hPa 0,0 mm 0,7 km/h (0 Bft) SO 131 ° 0 min 0,000 mm 0,0 UV-I 0 W/m² 0,8 °C 1,7 °C 1,6 km/h (1 Bft)
20.11.2019 01:32 1,7 °C 94 % 1016,5 hPa 0,0 mm 0,0 km/h (0 Bft) SO 131 ° 0 min 0,000 mm 0,0 UV-I 0 W/m² 0,8 °C 1,7 °C 0,0 km/h (0 Bft)
20.11.2019 01:33 1,7 °C 94 % 1016,5 hPa 0,0 mm 0,2 km/h (0 Bft) SO 131 ° 0 min 0,000 mm 0,0 UV-I 0 W/m² 0,8 °C 1,7 °C 1,6 km/h (1 Bft)
20.11.2019 01:34 1,7 °C 94 % 1016,5 hPa 0,0 mm 2,7 km/h (1 Bft) SO 131 ° 0 min 0,000 mm 0,0 UV-I 0 W/m² 0,8 °C 1,7 °C 4,8 km/h (1 Bft)
20.11.2019 01:35 1,7 °C 94 % 1016,5 hPa 0,0 mm 0,0 km/h (0 Bft) SO 131 ° 0 min 0,000 mm 0,0 UV-I 0 W/m² 0,8 °C 1,7 °C 0,0 km/h (0 Bft)
20.11.2019 01:36 1,7 °C 94 % 1016,5 hPa 0,0 mm 0,0 km/h (0 Bft) SO 131 ° 0 min 0,000 mm 0,0 UV-I 0 W/m² 0,8 °C 1,7 °C 0,0 km/h (0 Bft)
20.11.2019 01:37 1,8 °C 94 % 1016,5 hPa 0,0 mm 0,3 km/h (0 Bft) SO 131 ° 0 min 0,000 mm 0,0 UV-I 0 W/m² 0,9 °C 1,8 °C 1,6 km/h (1 Bft)
20.11.2019 01:38 1,7 °C 94 % 1016,5 hPa 0,0 mm 1,8 km/h (1 Bft) SO 131 ° 0 min 0,000 mm 0,0 UV-I 0 W/m² 0,8 °C 1,7 °C 4,8 km/h (1 Bft)
20.11.2019 01:39 1,7 °C 94 % 1016,5 hPa 0,0 mm 1,2 km/h (1 Bft) SO 131 ° 0 min 0,000 mm 0,0 UV-I 0 W/m² 0,8 °C 1,7 °C 3,2 km/h (1 Bft)
20.11.2019 01:40 1,8 °C 94 % 1016,4 hPa 0,0 mm 0,1 km/h (0 Bft) SO 131 ° 0 min 0,000 mm 0,0 UV-I 0 W/m² 0,9 °C 1,8 °C 1,6 km/h (1 Bft)
20.11.2019 01:41 1,8 °C 94 % 1016,5 hPa 0,0 mm 1,7 km/h (1 Bft) SO 131 ° 0 min 0,000 mm 0,0 UV-I 0 W/m² 0,9 °C 1,8 °C 3,2 km/h (1 Bft)
20.11.2019 01:42 1,8 °C 94 % 1016,5 hPa 0,0 mm 2,9 km/h (1 Bft) O 83 ° 0 min 0,000 mm 0,0 UV-I 0 W/m² 0,9 °C 1,8 °C 4,8 km/h (1 Bft)
20.11.2019 01:43 1,8 °C 94 % 1016,5 hPa 0,0 mm 1,1 km/h (1 Bft) O 83 ° 0 min 0,000 mm 0,0 UV-I 0 W/m² 0,9 °C 1,8 °C 3,2 km/h (1 Bft)
20.11.2019 01:44 1,8 °C 94 % 1016,5 hPa 0,0 mm 2,5 km/h (1 Bft) O 83 ° 0 min 0,000 mm 0,0 UV-I 0 W/m² 0,9 °C 1,8 °C 3,2 km/h (1 Bft)
20.11.2019 01:45 1,8 °C 94 % 1016,5 hPa 0,0 mm 2,3 km/h (1 Bft) O 83 ° 0 min 0,000 mm 0,0 UV-I 0 W/m² 0,9 °C 1,8 °C 4,8 km/h (1 Bft)
20.11.2019 01:46 1,8 °C 94 % 1016,5 hPa 0,0 mm 2,7 km/h (1 Bft) O 83 ° 0 min 0,000 mm 0,0 UV-I 0 W/m² 0,9 °C 1,8 °C 4,8 km/h (1 Bft)
20.11.2019 01:47 1,8 °C 94 % 1016,5 hPa 0,0 mm 2,7 km/h (1 Bft) O 83 ° 0 min 0,000 mm 0,0 UV-I 0 W/m² 0,9 °C 1,8 °C 4,8 km/h (1 Bft)
20.11.2019 01:48 1,8 °C 94 % 1016,4 hPa 0,0 mm 5,0 km/h (1 Bft) NO 54 ° 0 min 0,000 mm 0,0 UV-I 0 W/m² 0,9 °C 0,5 °C 8,0 km/h (2 Bft)
20.11.2019 01:49 1,8 °C 94 % 1016,4 hPa 0,0 mm 1,1 km/h (1 Bft) NO 54 ° 0 min 0,000 mm 0,0 UV-I 0 W/m² 0,9 °C 1,8 °C 3,2 km/h (1 Bft)
20.11.2019 01:50 1,8 °C 94 % 1016,5 hPa 0,0 mm 0,9 km/h (0 Bft) NO 54 ° 0 min 0,000 mm 0,0 UV-I 0 W/m² 0,9 °C 1,8 °C 3,2 km/h (1 Bft)
20.11.2019 01:51 1,8 °C 94 % 1016,5 hPa 0,0 mm 2,5 km/h (1 Bft) NO 54 ° 0 min 0,000 mm 0,0 UV-I 0 W/m² 0,9 °C 1,8 °C 4,8 km/h (1 Bft)
20.11.2019 01:52 1,8 °C 94 % 1016,6 hPa 0,0 mm 4,0 km/h (1 Bft) NO 54 ° 0 min 0,000 mm 0,0 UV-I 0 W/m² 0,9 °C 1,8 °C 4,8 km/h (1 Bft)
20.11.2019 01:53 1,8 °C 94 % 1016,6 hPa 0,0 mm 3,5 km/h (1 Bft) NO 51 ° 0 min 0,000 mm 0,0 UV-I 0 W/m² 0,9 °C 1,8 °C 4,8 km/h (1 Bft)
20.11.2019 01:54 1,8 °C 94 % 1016,5 hPa 0,0 mm 2,2 km/h (1 Bft) NO 51 ° 0 min 0,000 mm 0,0 UV-I 0 W/m² 0,9 °C 1,8 °C 3,2 km/h (1 Bft)
20.11.2019 01:55 1,8 °C 94 % 1016,5 hPa 0,0 mm 1,3 km/h (1 Bft) NO 51 ° 0 min 0,000 mm 0,0 UV-I 0 W/m² 0,9 °C 1,8 °C 3,2 km/h (1 Bft)
20.11.2019 01:56 1,8 °C 94 % 1016,6 hPa 0,0 mm 0,6 km/h (0 Bft) NO 51 ° 0 min 0,000 mm 0,0 UV-I 0 W/m² 0,9 °C 1,8 °C 3,2 km/h (1 Bft)
20.11.2019 01:57 1,8 °C 94 % 1016,6 hPa 0,0 mm 0,1 km/h (0 Bft) NO 51 ° 0 min 0,000 mm 0,0 UV-I 0 W/m² 0,9 °C 1,8 °C 1,6 km/h (1 Bft)
20.11.2019 01:58 1,8 °C 94 % 1016,6 hPa 0,0 mm 2,2 km/h (1 Bft) NO 51 ° 0 min 0,000 mm 0,0 UV-I 0 W/m² 0,9 °C 1,8 °C 3,2 km/h (1 Bft)
20.11.2019 01:59 1,8 °C 94 % 1016,6 hPa 0,0 mm 1,9 km/h (1 Bft) NO 51 ° 0 min 0,000 mm 0,0 UV-I 0 W/m² 0,9 °C 1,8 °C 3,2 km/h (1 Bft)
20.11.2019 02:00 1,8 °C 94 % 1016,6 hPa 0,0 mm 4,5 km/h (1 Bft) NO 55 ° 0 min 0,000 mm 0,0 UV-I 0 W/m² 0,9 °C 1,8 °C 8,0 km/h (2 Bft)
20.11.2019 02:01 1,8 °C 94 % 1016,5 hPa 0,0 mm 2,7 km/h (1 Bft) NO 55 ° 0 min 0,000 mm 0,0 UV-I 0 W/m² 0,9 °C 1,8 °C 4,8 km/h (1 Bft)
20.11.2019 02:02 1,8 °C 94 % 1016,6 hPa 0,0 mm 4,4 km/h (1 Bft) NO 55 ° 0 min 0,000 mm 0,0 UV-I 0 W/m² 0,9 °C 1,8 °C 6,4 km/h (2 Bft)
20.11.2019 02:03 1,8 °C 94 % 1016,6 hPa 0,0 mm 5,6 km/h (1 Bft) NO 55 ° 0 min 0,000 mm 0,0 UV-I 0 W/m² 0,9 °C 0,2 °C 6,4 km/h (2 Bft)
20.11.2019 02:04 1,8 °C 94 % 1016,6 hPa 0,0 mm 6,1 km/h (2 Bft) O-NO 66 ° 0 min 0,000 mm 0,0 UV-I 0 W/m² 0,9 °C 0,0 °C 9,7 km/h (2 Bft)
20.11.2019 02:05 1,8 °C 94 % 1016,5 hPa 0,0 mm 4,0 km/h (1 Bft) O-NO 57 ° 0 min 0,000 mm 0,0 UV-I 0 W/m² 0,9 °C 1,8 °C 6,4 km/h (2 Bft)
20.11.2019 02:06 1,8 °C 94 % 1016,5 hPa 0,0 mm 6,0 km/h (2 Bft) O-NO 76 ° 0 min 0,000 mm 0,0 UV-I 0 W/m² 0,9 °C 0,0 °C 9,7 km/h (2 Bft)
20.11.2019 02:07 1,8 °C 94 % 1016,6 hPa 0,0 mm 3,2 km/h (1 Bft) O-NO 74 ° 0 min 0,000 mm 0,0 UV-I 0 W/m² 0,9 °C 1,8 °C 4,8 km/h (1 Bft)
20.11.2019 02:08 1,8 °C 94 % 1016,5 hPa 0,0 mm 6,2 km/h (2 Bft) NO 49 ° 0 min 0,000 mm 0,0 UV-I 0 W/m² 0,9 °C -0,0 °C 8,0 km/h (2 Bft)
20.11.2019 02:09 1,8 °C 94 % 1016,5 hPa 0,0 mm 4,2 km/h (1 Bft) NO 49 ° 0 min 0,000 mm 0,0 UV-I 0 W/m² 0,9 °C 1,8 °C 6,4 km/h (2 Bft)
20.11.2019 02:10 1,8 °C 94 % 1016,6 hPa 0,0 mm 7,3 km/h (2 Bft) N-NO 32 ° 0 min 0,000 mm 0,0 UV-I 0 W/m² 0,9 °C -0,4 °C 8,0 km/h (2 Bft)
20.11.2019 02:11 1,8 °C 94 % 1016,6 hPa 0,0 mm 6,0 km/h (2 Bft) NO 42 ° 0 min 0,000 mm 0,0 UV-I 0 W/m² 0,9 °C 0,0 °C 8,0 km/h (2 Bft)
20.11.2019 02:12 1,8 °C 94 % 1016,6 hPa 0,0 mm 2,7 km/h (1 Bft) NO 42 ° 0 min 0,000 mm 0,0 UV-I 0 W/m² 0,9 °C 1,8 °C 4,8 km/h (1 Bft)
20.11.2019 02:13 1,8 °C 94 % 1016,7 hPa 0,0 mm 5,8 km/h (2 Bft) NO 52 ° 0 min 0,000 mm 0,0 UV-I 0 W/m² 0,9 °C 0,1 °C 8,0 km/h (2 Bft)
20.11.2019 02:14 1,8 °C 94 % 1016,6 hPa 0,0 mm 4,8 km/h (1 Bft) O 80 ° 0 min 0,000 mm 0,0 UV-I 0 W/m² 0,9 °C 0,5 °C 6,4 km/h (2 Bft)
20.11.2019 02:15 1,8 °C 94 % 1016,6 hPa 0,0 mm 3,5 km/h (1 Bft) O 80 ° 0 min 0,000 mm 0,0 UV-I 0 W/m² 0,9 °C 1,8 °C 6,4 km/h (2 Bft)
20.11.2019 02:16 1,8 °C 94 % 1016,5 hPa 0,0 mm 4,0 km/h (1 Bft) O-NO 57 ° 0 min 0,000 mm 0,0 UV-I 0 W/m² 0,9 °C 1,8 °C 6,4 km/h (2 Bft)
20.11.2019 02:17 1,8 °C 94 % 1016,5 hPa 0,0 mm 2,6 km/h (1 Bft) O-NO 71 ° 0 min 0,000 mm 0,0 UV-I 0 W/m² 0,9 °C 1,8 °C 6,4 km/h (2 Bft)
20.11.2019 02:18 1,8 °C 94 % 1016,5 hPa 0,0 mm 3,2 km/h (1 Bft) O-NO 65 ° 0 min 0,000 mm 0,0 UV-I 0 W/m² 0,9 °C 1,8 °C 4,8 km/h (1 Bft)
20.11.2019 02:19 1,8 °C 94 % 1016,5 hPa 0,0 mm 4,7 km/h (1 Bft) N 5 ° 0 min 0,000 mm 0,0 UV-I 0 W/m² 0,9 °C 0,6 °C 8,0 km/h (2 Bft)
20.11.2019 02:20 1,8 °C 94 % 1016,5 hPa 0,0 mm 4,1 km/h (1 Bft) NO 40 ° 0 min 0,000 mm 0,0 UV-I 0 W/m² 0,9 °C 1,8 °C 8,0 km/h (2 Bft)
20.11.2019 02:21 1,7 °C 94 % 1016,5 hPa 0,0 mm 5,4 km/h (1 Bft) O-NO 59 ° 0 min 0,000 mm 0,0 UV-I 0 W/m² 0,8 °C 0,2 °C 8,0 km/h (2 Bft)
20.11.2019 02:22 1,7 °C 94 % 1016,5 hPa 0,0 mm 4,1 km/h (1 Bft) O-NO 73 ° 0 min 0,000 mm 0,0 UV-I 0 W/m² 0,8 °C 1,7 °C 6,4 km/h (2 Bft)
20.11.2019 02:23 1,7 °C 94 % 1016,5 hPa 0,0 mm 5,6 km/h (1 Bft) O 83 ° 0 min 0,000 mm 0,0 UV-I 0 W/m² 0,8 °C 0,1 °C 8,0 km/h (2 Bft)
20.11.2019 02:24 1,7 °C 94 % 1016,5 hPa 0,0 mm 4,4 km/h (1 Bft) O-NO 66 ° 0 min 0,000 mm 0,0 UV-I 0 W/m² 0,8 °C 1,7 °C 6,4 km/h (2 Bft)
20.11.2019 02:25 1,7 °C 94 % 1016,5 hPa 0,0 mm 3,1 km/h (1 Bft) O-NO 66 ° 0 min 0,000 mm 0,0 UV-I 0 W/m² 0,8 °C 1,7 °C 4,8 km/h (1 Bft)
20.11.2019 02:26 1,7 °C 94 % 1016,5 hPa 0,0 mm 3,2 km/h (1 Bft) O-NO 66 ° 0 min 0,000 mm 0,0 UV-I 0 W/m² 0,8 °C 1,7 °C 6,4 km/h (2 Bft)
20.11.2019 02:27 1,7 °C 94 % 1016,4 hPa 0,0 mm 3,2 km/h (1 Bft) O-NO 66 ° 0 min 0,000 mm 0,0 UV-I 0 W/m² 0,8 °C 1,7 °C 4,8 km/h (1 Bft)
20.11.2019 02:28 1,7 °C 94 % 1016,4 hPa 0,0 mm 2,4 km/h (1 Bft) O-NO 66 ° 0 min 0,000 mm 0,0 UV-I 0 W/m² 0,8 °C 1,7 °C 3,2 km/h (1 Bft)
20.11.2019 02:29 1,7 °C 94 % 1016,4 hPa 0,0 mm 2,0 km/h (1 Bft) O-NO 66 ° 0 min 0,000 mm 0,0 UV-I 0 W/m² 0,8 °C 1,7 °C 4,8 km/h (1 Bft)
20.11.2019 02:30 1,7 °C 94 % 1016,4 hPa 0,0 mm 3,8 km/h (1 Bft) O-NO 66 ° 0 min 0,000 mm 0,0 UV-I 0 W/m² 0,8 °C 1,7 °C 6,4 km/h (2 Bft)
20.11.2019 02:31 1,7 °C 94 % 1016,4 hPa 0,0 mm 3,9 km/h (1 Bft) O-NO 66 ° 0 min 0,000 mm 0,0 UV-I 0 W/m² 0,8 °C 1,7 °C 6,4 km/h (2 Bft)
20.11.2019 02:32 1,7 °C 94 % 1016,4 hPa 0,0 mm 2,3 km/h (1 Bft) O-NO 66 ° 0 min 0,000 mm 0,0 UV-I 0 W/m² 0,8 °C 1,7 °C 4,8 km/h (1 Bft)
20.11.2019 02:33 1,7 °C 94 % 1016,5 hPa 0,0 mm 2,0 km/h (1 Bft) O-NO 66 ° 0 min 0,000 mm 0,0 UV-I 0 W/m² 0,8 °C 1,7 °C 4,8 km/h (1 Bft)
20.11.2019 02:34 1,7 °C 94 % 1016,5 hPa 0,0 mm 2,3 km/h (1 Bft) O-NO 66 ° 0 min 0,000 mm 0,0 UV-I 0 W/m² 0,8 °C 1,7 °C 4,8 km/h (1 Bft)
20.11.2019 02:35 1,7 °C 94 % 1016,4 hPa 0,0 mm 2,3 km/h (1 Bft) O-NO 66 ° 0 min 0,000 mm 0,0 UV-I 0 W/m² 0,8 °C 1,7 °C 4,8 km/h (1 Bft)
20.11.2019 02:36 1,7 °C 94 % 1016,4 hPa 0,0 mm 3,0 km/h (1 Bft) O-NO 66 ° 0 min 0,000 mm 0,0 UV-I 0 W/m² 0,8 °C 1,7 °C 4,8 km/h (1 Bft)
20.11.2019 02:37 1,7 °C 94 % 1016,3 hPa 0,0 mm 5,0 km/h (1 Bft) O-NO 75 ° 0 min 0,000 mm 0,0 UV-I 0 W/m² 0,8 °C 0,3 °C 6,4 km/h (2 Bft)
20.11.2019 02:38 1,7 °C 94 % 1016,3 hPa 0,0 mm 4,0 km/h (1 Bft) O 88 ° 0 min 0,000 mm 0,0 UV-I 0 W/m² 0,8 °C 1,7 °C 6,4 km/h (2 Bft)
20.11.2019 02:39 1,7 °C 94 % 1016,3 hPa 0,0 mm 3,7 km/h (1 Bft) O 86 ° 0 min 0,000 mm 0,0 UV-I 0 W/m² 0,8 °C 1,7 °C 4,8 km/h (1 Bft)
20.11.2019 02:40 1,6 °C 94 % 1016,3 hPa 0,0 mm 2,9 km/h (1 Bft) O 85 ° 0 min 0,000 mm 0,0 UV-I 0 W/m² 0,7 °C 1,6 °C 4,8 km/h (1 Bft)
20.11.2019 02:41 1,7 °C 94 % 1016,3 hPa 0,0 mm 3,0 km/h (1 Bft) O 86 ° 0 min 0,000 mm 0,0 UV-I 0 W/m² 0,8 °C 1,7 °C 4,8 km/h (1 Bft)
20.11.2019 02:42 1,7 °C 94 % 1016,3 hPa 0,0 mm 2,1 km/h (1 Bft) O 86 ° 0 min 0,000 mm 0,0 UV-I 0 W/m² 0,8 °C 1,7 °C 3,2 km/h (1 Bft)
20.11.2019 02:43 1,7 °C 94 % 1016,3 hPa 0,0 mm 0,1 km/h (0 Bft) O 86 ° 0 min 0,000 mm 0,0 UV-I 0 W/m² 0,8 °C 1,7 °C 1,6 km/h (1 Bft)
20.11.2019 02:44 1,6 °C 94 % 1016,3 hPa 0,0 mm 3,2 km/h (1 Bft) O 86 ° 0 min 0,000 mm 0,0 UV-I 0 W/m² 0,7 °C 1,6 °C 4,8 km/h (1 Bft)
20.11.2019 02:45 1,6 °C 94 % 1016,3 hPa 0,0 mm 2,1 km/h (1 Bft) O 86 ° 0 min 0,000 mm 0,0 UV-I 0 W/m² 0,7 °C 1,6 °C 4,8 km/h (1 Bft)
20.11.2019 02:46 1,7 °C 94 % 1016,3 hPa 0,0 mm 3,3 km/h (1 Bft) O 86 ° 0 min 0,000 mm 0,0 UV-I 0 W/m² 0,8 °C 1,7 °C 4,8 km/h (1 Bft)
20.11.2019 02:47 1,6 °C 94 % 1016,3 hPa 0,0 mm 4,0 km/h (1 Bft) O 86 ° 0 min 0,000 mm 0,0 UV-I 0 W/m² 0,7 °C 1,6 °C 4,8 km/h (1 Bft)
20.11.2019 02:48 1,6 °C 94 % 1016,3 hPa 0,0 mm 3,4 km/h (1 Bft) O 86 ° 0 min 0,000 mm 0,0 UV-I 0 W/m² 0,7 °C 1,6 °C 4,8 km/h (1 Bft)
20.11.2019 02:49 1,6 °C 94 % 1016,3 hPa 0,0 mm 2,2 km/h (1 Bft) O 86 ° 0 min 0,000 mm 0,0 UV-I 0 W/m² 0,7 °C 1,6 °C 3,2 km/h (1 Bft)
20.11.2019 02:50 1,6 °C 94 % 1016,3 hPa 0,0 mm 1,2 km/h (1 Bft) O 86 ° 0 min 0,000 mm 0,0 UV-I 0 W/m² 0,7 °C 1,6 °C 3,2 km/h (1 Bft)
20.11.2019 02:51 1,6 °C 94 % 1016,3 hPa 0,0 mm 0,5 km/h (0 Bft) O 86 ° 0 min 0,000 mm 0,0 UV-I 0 W/m² 0,7 °C 1,6 °C 3,2 km/h (1 Bft)
20.11.2019 02:52 1,6 °C 94 % 1016,3 hPa 0,0 mm 2,4 km/h (1 Bft) O 86 ° 0 min 0,000 mm 0,0 UV-I 0 W/m² 0,7 °C 1,6 °C 4,8 km/h (1 Bft)
20.11.2019 02:53 1,6 °C 94 % 1016,4 hPa 0,0 mm 0,9 km/h (0 Bft) O 86 ° 0 min 0,000 mm 0,0 UV-I 0 W/m² 0,7 °C 1,6 °C 1,6 km/h (1 Bft)
20.11.2019 02:54 1,6 °C 94 % 1016,4 hPa 0,0 mm 0,1 km/h (0 Bft) O 86 ° 0 min 0,000 mm 0,0 UV-I 0 W/m² 0,7 °C 1,6 °C 1,6 km/h (1 Bft)
20.11.2019 02:55 1,6 °C 94 % 1016,4 hPa 0,0 mm 0,0 km/h (0 Bft) O 86 ° 0 min 0,000 mm 0,0 UV-I 0 W/m² 0,7 °C 1,6 °C 0,0 km/h (0 Bft)
20.11.2019 02:56 1,6 °C 94 % 1016,4 hPa 0,0 mm 1,2 km/h (1 Bft) O 86 ° 0 min 0,000 mm 0,0 UV-I 0 W/m² 0,7 °C 1,6 °C 1,6 km/h (1 Bft)
20.11.2019 02:57 1,6 °C 94 % 1016,4 hPa 0,0 mm 1,1 km/h (1 Bft) O 86 ° 0 min 0,000 mm 0,0 UV-I 0 W/m² 0,7 °C 1,6 °C 3,2 km/h (1 Bft)
20.11.2019 02:58 1,6 °C 94 % 1016,4 hPa 0,0 mm 1,3 km/h (1 Bft) O 86 ° 0 min 0,000 mm 0,0 UV-I 0 W/m² 0,7 °C 1,6 °C 3,2 km/h (1 Bft)
20.11.2019 02:59 1,6 °C 94 % 1016,3 hPa 0,0 mm 2,1 km/h (1 Bft) O 86 ° 0 min 0,000 mm 0,0 UV-I 0 W/m² 0,7 °C 1,6 °C 4,8 km/h (1 Bft)
20.11.2019 03:00 1,6 °C 94 % 1016,3 hPa 0,0 mm 3,7 km/h (1 Bft) O 86 ° 0 min 0,000 mm 0,0 UV-I 0 W/m² 0,7 °C 1,6 °C 4,8 km/h (1 Bft)
20.11.2019 03:01 1,6 °C 94 % 1016,3 hPa 0,0 mm 1,5 km/h (1 Bft) O 86 ° 0 min 0,000 mm 0,0 UV-I 0 W/m² 0,7 °C 1,6 °C 3,2 km/h (1 Bft)
20.11.2019 03:02 1,6 °C 94 % 1016,3 hPa 0,0 mm 0,4 km/h (0 Bft) O 86 ° 0 min 0,000 mm 0,0 UV-I 0 W/m² 0,7 °C 1,6 °C 1,6 km/h (1 Bft)
20.11.2019 03:03 1,6 °C 94 % 1016,3 hPa 0,0 mm 0,9 km/h (0 Bft) O 86 ° 0 min 0,000 mm 0,0 UV-I 0 W/m² 0,7 °C 1,6 °C 3,2 km/h (1 Bft)
20.11.2019 03:04 1,6 °C 94 % 1016,3 hPa 0,0 mm 1,0 km/h (0 Bft) O 86 ° 0 min 0,000 mm 0,0 UV-I 0 W/m² 0,7 °C 1,6 °C 3,2 km/h (1 Bft)
20.11.2019 03:05 1,6 °C 94 % 1016,3 hPa 0,0 mm 0,8 km/h (0 Bft) O 86 ° 0 min 0,000 mm 0,0 UV-I 0 W/m² 0,7 °C 1,6 °C 3,2 km/h (1 Bft)
20.11.2019 03:06 1,6 °C 94 % 1016,3 hPa 0,0 mm 2,6 km/h (1 Bft) O 86 ° 0 min 0,000 mm 0,0 UV-I 0 W/m² 0,7 °C 1,6 °C 4,8 km/h (1 Bft)
20.11.2019 03:07 1,6 °C 94 % 1016,3 hPa 0,0 mm 1,4 km/h (1 Bft) O 86 ° 0 min 0,000 mm 0,0 UV-I 0 W/m² 0,7 °C 1,6 °C 3,2 km/h (1 Bft)
20.11.2019 03:08 1,6 °C 94 % 1016,3 hPa 0,0 mm 1,3 km/h (1 Bft) O 86 ° 0 min 0,000 mm 0,0 UV-I 0 W/m² 0,7 °C 1,6 °C 3,2 km/h (1 Bft)
20.11.2019 03:09 1,6 °C 94 % 1016,4 hPa 0,0 mm 4,8 km/h (1 Bft) O-NO 58 ° 0 min 0,000 mm 0,0 UV-I 0 W/m² 0,7 °C 0,3 °C 6,4 km/h (2 Bft)
20.11.2019 03:10 1,6 °C 94 % 1016,4 hPa 0,0 mm 3,8 km/h (1 Bft) O-NO 58 ° 0 min 0,000 mm 0,0 UV-I 0 W/m² 0,7 °C 1,6 °C 4,8 km/h (1 Bft)
20.11.2019 03:11 1,6 °C 94 % 1016,4 hPa 0,0 mm 1,9 km/h (1 Bft) O-NO 58 ° 0 min 0,000 mm 0,0 UV-I 0 W/m² 0,7 °C 1,6 °C 4,8 km/h (1 Bft)
20.11.2019 03:12 1,6 °C 94 % 1016,3 hPa 0,0 mm 1,6 km/h (1 Bft) O-NO 58 ° 0 min 0,000 mm 0,0 UV-I 0 W/m² 0,7 °C 1,6 °C 4,8 km/h (1 Bft)
20.11.2019 03:13 1,6 °C 94 % 1016,4 hPa 0,0 mm 2,3 km/h (1 Bft) O 101 ° 0 min 0,000 mm 0,0 UV-I 0 W/m² 0,7 °C 1,6 °C 4,8 km/h (1 Bft)
20.11.2019 03:14 1,6 °C 94 % 1016,4 hPa 0,0 mm 2,2 km/h (1 Bft) O 101 ° 0 min 0,000 mm 0,0 UV-I 0 W/m² 0,7 °C 1,6 °C 4,8 km/h (1 Bft)
20.11.2019 03:15 1,6 °C 94 % 1016,4 hPa 0,0 mm 2,3 km/h (1 Bft) O 101 ° 0 min 0,000 mm 0,0 UV-I 0 W/m² 0,7 °C 1,6 °C 4,8 km/h (1 Bft)
20.11.2019 03:16 1,6 °C 94 % 1016,4 hPa 0,0 mm 2,3 km/h (1 Bft) O 80 ° 0 min 0,000 mm 0,0 UV-I 0 W/m² 0,7 °C 1,6 °C 4,8 km/h (1 Bft)
20.11.2019 03:17 1,6 °C 94 % 1016,3 hPa 0,0 mm 3,2 km/h (1 Bft) O-NO 69 ° 0 min 0,000 mm 0,0 UV-I 0 W/m² 0,7 °C 1,6 °C 4,8 km/h (1 Bft)
20.11.2019 03:18 1,6 °C 94 % 1016,4 hPa 0,0 mm 3,6 km/h (1 Bft) O-NO 71 ° 0 min 0,000 mm 0,0 UV-I 0 W/m² 0,7 °C 1,6 °C 6,4 km/h (2 Bft)
20.11.2019 03:19 1,6 °C 94 % 1016,3 hPa 0,0 mm 3,6 km/h (1 Bft) O-NO 72 ° 0 min 0,000 mm 0,0 UV-I 0 W/m² 0,7 °C 1,6 °C 4,8 km/h (1 Bft)
20.11.2019 03:20 1,6 °C 94 % 1016,3 hPa 0,0 mm 2,1 km/h (1 Bft) O-NO 72 ° 0 min 0,000 mm 0,0 UV-I 0 W/m² 0,7 °C 1,6 °C 3,2 km/h (1 Bft)
20.11.2019 03:21 1,6 °C 94 % 1016,3 hPa 0,0 mm 1,5 km/h (1 Bft) O-NO 72 ° 0 min 0,000 mm 0,0 UV-I 0 W/m² 0,7 °C 1,6 °C 3,2 km/h (1 Bft)
20.11.2019 03:22 1,6 °C 94 % 1016,3 hPa 0,0 mm 1,7 km/h (1 Bft) O-NO 72 ° 0 min 0,000 mm 0,0 UV-I 0 W/m² 0,7 °C 1,6 °C 3,2 km/h (1 Bft)
20.11.2019 03:23 1,5 °C 94 % 1016,3 hPa 0,0 mm 0,8 km/h (0 Bft) O-NO 72 ° 0 min 0,000 mm 0,0 UV-I 0 W/m² 0,6 °C 1,5 °C 1,6 km/h (1 Bft)
20.11.2019 03:24 1,5 °C 94 % 1016,3 hPa 0,0 mm 3,1 km/h (1 Bft) O-NO 72 ° 0 min 0,000 mm 0,0 UV-I 0 W/m² 0,6 °C 1,5 °C 4,8 km/h (1 Bft)
20.11.2019 03:25 1,5 °C 94 % 1016,2 hPa 0,0 mm 3,4 km/h (1 Bft) O-NO 73 ° 0 min 0,000 mm 0,0 UV-I 0 W/m² 0,6 °C 1,5 °C 6,4 km/h (2 Bft)
20.11.2019 03:26 1,5 °C 94 % 1016,2 hPa 0,0 mm 1,6 km/h (1 Bft) O-NO 72 ° 0 min 0,000 mm 0,0 UV-I 0 W/m² 0,6 °C 1,5 °C 3,2 km/h (1 Bft)
20.11.2019 03:27 1,5 °C 94 % 1016,2 hPa 0,0 mm 3,0 km/h (1 Bft) O-NO 72 ° 0 min 0,000 mm 0,0 UV-I 0 W/m² 0,6 °C 1,5 °C 4,8 km/h (1 Bft)
20.11.2019 03:28 1,5 °C 94 % 1016,2 hPa 0,0 mm 3,7 km/h (1 Bft) O-NO 73 ° 0 min 0,000 mm 0,0 UV-I 0 W/m² 0,6 °C 1,5 °C 6,4 km/h (2 Bft)
20.11.2019 03:29 1,5 °C 94 % 1016,2 hPa 0,0 mm 2,1 km/h (1 Bft) O-NO 73 ° 0 min 0,000 mm 0,0 UV-I 0 W/m² 0,6 °C 1,5 °C 6,4 km/h (2 Bft)
20.11.2019 03:30 1,4 °C 94 % 1016,2 hPa 0,0 mm 1,6 km/h (1 Bft) O 86 ° 0 min 0,000 mm 0,0 UV-I 0 W/m² 0,5 °C 1,4 °C 4,8 km/h (1 Bft)
20.11.2019 03:31 1,4 °C 94 % 1016,2 hPa 0,0 mm 4,4 km/h (1 Bft) O-NO 78 ° 0 min 0,000 mm 0,0 UV-I 0 W/m² 0,5 °C 1,4 °C 6,4 km/h (2 Bft)
20.11.2019 03:32 1,4 °C 94 % 1016,2 hPa 0,0 mm 4,7 km/h (1 Bft) O 94 ° 0 min 0,000 mm 0,0 UV-I 0 W/m² 0,5 °C 0,1 °C 6,4 km/h (2 Bft)
20.11.2019 03:33 1,4 °C 94 % 1016,2 hPa 0,0 mm 3,8 km/h (1 Bft) O 91 ° 0 min 0,000 mm 0,0 UV-I 0 W/m² 0,5 °C 1,4 °C 4,8 km/h (1 Bft)
20.11.2019 03:34 1,4 °C 94 % 1016,2 hPa 0,0 mm 2,4 km/h (1 Bft) O 91 ° 0 min 0,000 mm 0,0 UV-I 0 W/m² 0,5 °C 1,4 °C 3,2 km/h (1 Bft)
20.11.2019 03:35 1,4 °C 94 % 1016,2 hPa 0,0 mm 4,4 km/h (1 Bft) O 94 ° 0 min 0,000 mm 0,0 UV-I 0 W/m² 0,5 °C 1,4 °C 6,4 km/h (2 Bft)
20.11.2019 03:36 1,4 °C 94 % 1016,2 hPa 0,0 mm 3,7 km/h (1 Bft) O-NO 71 ° 0 min 0,000 mm 0,0 UV-I 0 W/m² 0,5 °C 1,4 °C 6,4 km/h (2 Bft)
20.11.2019 03:37 1,4 °C 94 % 1016,1 hPa 0,0 mm 4,5 km/h (1 Bft) O-NO 71 ° 0 min 0,000 mm 0,0 UV-I 0 W/m² 0,5 °C 1,4 °C 6,4 km/h (2 Bft)
20.11.2019 03:38 1,4 °C 94 % 1016,1 hPa 0,0 mm 2,1 km/h (1 Bft) O-NO 71 ° 0 min 0,000 mm 0,0 UV-I 0 W/m² 0,5 °C 1,4 °C 3,2 km/h (1 Bft)
20.11.2019 03:39 1,4 °C 94 % 1016,2 hPa 0,0 mm 2,8 km/h (1 Bft) O-NO 71 ° 0 min 0,000 mm 0,0 UV-I 0 W/m² 0,5 °C 1,4 °C 4,8 km/h (1 Bft)
20.11.2019 03:40 1,4 °C 94 % 1016,2 hPa 0,0 mm 1,8 km/h (1 Bft) O-NO 71 ° 0 min 0,000 mm 0,0 UV-I 0 W/m² 0,5 °C 1,4 °C 4,8 km/h (1 Bft)
20.11.2019 03:41 1,4 °C 94 % 1016,2 hPa 0,0 mm 4,0 km/h (1 Bft) O-NO 71 ° 0 min 0,000 mm 0,0 UV-I 0 W/m² 0,5 °C 1,4 °C 6,4 km/h (2 Bft)
20.11.2019 03:42 1,4 °C 94 % 1016,2 hPa 0,0 mm 3,9 km/h (1 Bft) O-NO 71 ° 0 min 0,000 mm 0,0 UV-I 0 W/m² 0,5 °C 1,4 °C 6,4 km/h (2 Bft)
20.11.2019 03:43 1,4 °C 94 % 1016,2 hPa 0,0 mm 3,1 km/h (1 Bft) O-NO 67 ° 0 min 0,000 mm 0,0 UV-I 0 W/m² 0,5 °C 1,4 °C 4,8 km/h (1 Bft)
20.11.2019 03:44 1,4 °C 94 % 1016,2 hPa 0,0 mm 2,5 km/h (1 Bft) O-NO 68 ° 0 min 0,000 mm 0,0 UV-I 0 W/m² 0,5 °C 1,4 °C 4,8 km/h (1 Bft)
20.11.2019 03:45 1,4 °C 94 % 1016,1 hPa 0,0 mm 4,1 km/h (1 Bft) O-NO 67 ° 0 min 0,000 mm 0,0 UV-I 0 W/m² 0,5 °C 1,4 °C 6,4 km/h (2 Bft)
20.11.2019 03:46 1,4 °C 94 % 1016,2 hPa 0,0 mm 2,5 km/h (1 Bft) O-NO 67 ° 0 min 0,000 mm 0,0 UV-I 0 W/m² 0,5 °C 1,4 °C 3,2 km/h (1 Bft)
20.11.2019 03:47 1,4 °C 94 % 1016,1 hPa 0,0 mm 4,1 km/h (1 Bft) O-NO 73 ° 0 min 0,000 mm 0,0 UV-I 0 W/m² 0,5 °C 1,4 °C 6,4 km/h (2 Bft)
20.11.2019 03:48 1,3 °C 94 % 1016,1 hPa 0,0 mm 1,9 km/h (1 Bft) O-NO 73 ° 0 min 0,000 mm 0,0 UV-I 0 W/m² 0,4 °C 1,3 °C 3,2 km/h (1 Bft)
20.11.2019 03:49 1,4 °C 94 % 1016,0 hPa 0,0 mm 2,3 km/h (1 Bft) O-NO 73 ° 0 min 0,000 mm 0,0 UV-I 0 W/m² 0,5 °C 1,4 °C 3,2 km/h (1 Bft)
20.11.2019 03:50 1,3 °C 94 % 1016,1 hPa 0,0 mm 2,3 km/h (1 Bft) O-NO 73 ° 0 min 0,000 mm 0,0 UV-I 0 W/m² 0,4 °C 1,3 °C 4,8 km/h (1 Bft)
20.11.2019 03:51 1,4 °C 94 % 1016,1 hPa 0,0 mm 2,1 km/h (1 Bft) O-NO 73 ° 0 min 0,000 mm 0,0 UV-I 0 W/m² 0,5 °C 1,4 °C 3,2 km/h (1 Bft)
20.11.2019 03:52 1,3 °C 94 % 1016,0 hPa 0,0 mm 3,6 km/h (1 Bft) O-NO 73 ° 0 min 0,000 mm 0,0 UV-I 0 W/m² 0,4 °C 1,3 °C 6,4 km/h (2 Bft)
20.11.2019 03:53 1,3 °C 94 % 1016,0 hPa 0,0 mm 2,1 km/h (1 Bft) O-NO 73 ° 0 min 0,000 mm 0,0 UV-I 0 W/m² 0,4 °C 1,3 °C 3,2 km/h (1 Bft)
20.11.2019 03:54 1,3 °C 94 % 1016,0 hPa 0,0 mm 1,9 km/h (1 Bft) O-NO 73 ° 0 min 0,000 mm 0,0 UV-I 0 W/m² 0,4 °C 1,3 °C 3,2 km/h (1 Bft)
20.11.2019 03:55 1,4 °C 94 % 1016,0 hPa 0,0 mm 1,2 km/h (1 Bft) O-NO 73 ° 0 min 0,000 mm 0,0 UV-I 0 W/m² 0,5 °C 1,4 °C 4,8 km/h (1 Bft)
20.11.2019 03:56 1,3 °C 94 % 1016,0 hPa 0,0 mm 1,3 km/h (1 Bft) O-NO 73 ° 0 min 0,000 mm 0,0 UV-I 0 W/m² 0,4 °C 1,3 °C 3,2 km/h (1 Bft)
20.11.2019 03:57 1,4 °C 94 % 1016,0 hPa 0,0 mm 2,3 km/h (1 Bft) O 86 ° 0 min 0,000 mm 0,0 UV-I 0 W/m² 0,5 °C 1,4 °C 4,8 km/h (1 Bft)
20.11.2019 03:58 1,3 °C 94 % 1016,0 hPa 0,0 mm 4,5 km/h (1 Bft) O-NO 70 ° 0 min 0,000 mm 0,0 UV-I 0 W/m² 0,4 °C 1,3 °C 6,4 km/h (2 Bft)
20.11.2019 03:59 1,3 °C 94 % 1016,0 hPa 0,0 mm 3,9 km/h (1 Bft) O-NO 70 ° 0 min 0,000 mm 0,0 UV-I 0 W/m² 0,4 °C 1,3 °C 6,4 km/h (2 Bft)
20.11.2019 04:00 1,3 °C 94 % 1016,0 hPa 0,0 mm 1,8 km/h (1 Bft) O-NO 70 ° 0 min 0,000 mm 0,0 UV-I 0 W/m² 0,4 °C 1,3 °C 3,2 km/h (1 Bft)
20.11.2019 04:01 1,3 °C 94 % 1016,0 hPa 0,0 mm 2,9 km/h (1 Bft) O-NO 70 ° 0 min 0,000 mm 0,0 UV-I 0 W/m² 0,4 °C 1,3 °C 4,8 km/h (1 Bft)
20.11.2019 04:02 1,3 °C 94 % 1016,0 hPa 0,0 mm 2,7 km/h (1 Bft) O-NO 70 ° 0 min 0,000 mm 0,0 UV-I 0 W/m² 0,4 °C 1,3 °C 3,2 km/h (1 Bft)
20.11.2019 04:03 1,3 °C 94 % 1016,0 hPa 0,0 mm 2,5 km/h (1 Bft) O-NO 70 ° 0 min 0,000 mm 0,0 UV-I 0 W/m² 0,4 °C 1,3 °C 4,8 km/h (1 Bft)
20.11.2019 04:04 1,3 °C 94 % 1016,0 hPa 0,0 mm 3,1 km/h (1 Bft) O-NO 70 ° 0 min 0,000 mm 0,0 UV-I 0 W/m² 0,4 °C 1,3 °C 4,8 km/h (1 Bft)
20.11.2019 04:05 1,3 °C 94 % 1016,0 hPa 0,0 mm 3,7 km/h (1 Bft) O-NO 70 ° 0 min 0,000 mm 0,0 UV-I 0 W/m² 0,4 °C 1,3 °C 4,8 km/h (1 Bft)
20.11.2019 04:06 1,3 °C 94 % 1016,0 hPa 0,0 mm 4,4 km/h (1 Bft) O-NO 70 ° 0 min 0,000 mm 0,0 UV-I 0 W/m² 0,4 °C 1,3 °C 6,4 km/h (2 Bft)
20.11.2019 04:07 1,3 °C 94 % 1016,1 hPa 0,0 mm 3,1 km/h (1 Bft) O-NO 70 ° 0 min 0,000 mm 0,0 UV-I 0 W/m² 0,4 °C 1,3 °C 4,8 km/h (1 Bft)
20.11.2019 04:08 1,3 °C 94 % 1016,0 hPa 0,0 mm 3,9 km/h (1 Bft) O-NO 70 ° 0 min 0,000 mm 0,0 UV-I 0 W/m² 0,4 °C 1,3 °C 4,8 km/h (1 Bft)
20.11.2019 04:09 1,3 °C 94 % 1016,1 hPa 0,0 mm 4,2 km/h (1 Bft) O-NO 70 ° 0 min 0,000 mm 0,0 UV-I 0 W/m² 0,4 °C 1,3 °C 6,4 km/h (2 Bft)
20.11.2019 04:10 1,3 °C 94 % 1016,0 hPa 0,0 mm 5,8 km/h (2 Bft) O-NO 66 ° 0 min 0,000 mm 0,0 UV-I 0 W/m² 0,4 °C -0,5 °C 6,4 km/h (2 Bft)
20.11.2019 04:11 1,3 °C 94 % 1016,0 hPa 0,0 mm 4,4 km/h (1 Bft) O-NO 71 ° 0 min 0,000 mm 0,0 UV-I 0 W/m² 0,4 °C 1,3 °C 6,4 km/h (2 Bft)
20.11.2019 04:12 1,3 °C 94 % 1016,1 hPa 0,0 mm 4,0 km/h (1 Bft) O 85 ° 0 min 0,000 mm 0,0 UV-I 0 W/m² 0,4 °C 1,3 °C 6,4 km/h (2 Bft)
20.11.2019 04:13 1,3 °C 94 % 1016,1 hPa 0,0 mm 2,6 km/h (1 Bft) O 80 ° 0 min 0,000 mm 0,0 UV-I 0 W/m² 0,4 °C 1,3 °C 4,8 km/h (1 Bft)
20.11.2019 04:14 1,3 °C 94 % 1016,1 hPa 0,0 mm 1,2 km/h (1 Bft) O 80 ° 0 min 0,000 mm 0,0 UV-I 0 W/m² 0,4 °C 1,3 °C 3,2 km/h (1 Bft)
20.11.2019 04:15 1,3 °C 94 % 1016,1 hPa 0,0 mm 4,7 km/h (1 Bft) O-NO 76 ° 0 min 0,000 mm 0,0 UV-I 0 W/m² 0,4 °C 0,0 °C 6,4 km/h (2 Bft)
20.11.2019 04:16 1,3 °C 94 % 1016,1 hPa 0,0 mm 3,1 km/h (1 Bft) O-NO 76 ° 0 min 0,000 mm 0,0 UV-I 0 W/m² 0,4 °C 1,3 °C 3,2 km/h (1 Bft)
20.11.2019 04:17 1,3 °C 94 % 1016,1 hPa 0,0 mm 2,5 km/h (1 Bft) O-NO 71 ° 0 min 0,000 mm 0,0 UV-I 0 W/m² 0,4 °C 1,3 °C 6,4 km/h (2 Bft)
20.11.2019 04:18 1,3 °C 94 % 1016,1 hPa 0,0 mm 4,0 km/h (1 Bft) O-NO 70 ° 0 min 0,000 mm 0,0 UV-I 0 W/m² 0,4 °C 1,3 °C 6,4 km/h (2 Bft)
20.11.2019 04:19 1,3 °C 94 % 1016,1 hPa 0,0 mm 5,3 km/h (1 Bft) O 82 ° 0 min 0,000 mm 0,0 UV-I 0 W/m² 0,4 °C -0,2 °C 6,4 km/h (2 Bft)
20.11.2019 04:20 1,3 °C 94 % 1016,1 hPa 0,0 mm 6,2 km/h (2 Bft) O-NO 74 ° 0 min 0,000 mm 0,0 UV-I 0 W/m² 0,4 °C -0,6 °C 8,0 km/h (2 Bft)
20.11.2019 04:21 1,3 °C 94 % 1016,1 hPa 0,0 mm 4,4 km/h (1 Bft) O-NO 66 ° 0 min 0,000 mm 0,0 UV-I 0 W/m² 0,4 °C 1,3 °C 8,0 km/h (2 Bft)
20.11.2019 04:22 1,3 °C 94 % 1016,1 hPa 0,0 mm 4,3 km/h (1 Bft) O-NO 66 ° 0 min 0,000 mm 0,0 UV-I 0 W/m² 0,4 °C 1,3 °C 6,4 km/h (2 Bft)
20.11.2019 04:23 1,3 °C 94 % 1016,1 hPa 0,0 mm 2,7 km/h (1 Bft) O-NO 66 ° 0 min 0,000 mm 0,0 UV-I 0 W/m² 0,4 °C 1,3 °C 4,8 km/h (1 Bft)
20.11.2019 04:24 1,3 °C 94 % 1016,1 hPa 0,0 mm 4,6 km/h (1 Bft) O 85 ° 0 min 0,000 mm 0,0 UV-I 0 W/m² 0,4 °C 0,1 °C 6,4 km/h (2 Bft)
20.11.2019 04:25 1,3 °C 94 % 1016,1 hPa 0,0 mm 4,4 km/h (1 Bft) O-NO 68 ° 0 min 0,000 mm 0,0 UV-I 0 W/m² 0,4 °C 1,3 °C 4,8 km/h (1 Bft)
20.11.2019 04:26 1,3 °C 94 % 1016,1 hPa 0,0 mm 4,5 km/h (1 Bft) O-NO 65 ° 0 min 0,000 mm 0,0 UV-I 0 W/m² 0,4 °C 1,3 °C 6,4 km/h (2 Bft)
20.11.2019 04:27 1,3 °C 94 % 1016,1 hPa 0,0 mm 3,4 km/h (1 Bft) O-NO 65 ° 0 min 0,000 mm 0,0 UV-I 0 W/m² 0,4 °C 1,3 °C 4,8 km/h (1 Bft)
20.11.2019 04:28 1,3 °C 94 % 1016,1 hPa 0,0 mm 3,1 km/h (1 Bft) O-NO 64 ° 0 min 0,000 mm 0,0 UV-I 0 W/m² 0,4 °C 1,3 °C 6,4 km/h (2 Bft)
20.11.2019 04:29 1,3 °C 94 % 1016,2 hPa 0,0 mm 3,0 km/h (1 Bft) O-NO 64 ° 0 min 0,000 mm 0,0 UV-I 0 W/m² 0,4 °C 1,3 °C 4,8 km/h (1 Bft)
20.11.2019 04:30 1,3 °C 94 % 1016,2 hPa 0,0 mm 3,6 km/h (1 Bft) O-NO 67 ° 0 min 0,000 mm 0,0 UV-I 0 W/m² 0,4 °C 1,3 °C 4,8 km/h (1 Bft)
20.11.2019 04:31 1,3 °C 94 % 1016,2 hPa 0,0 mm 4,9 km/h (1 Bft) NO 49 ° 0 min 0,000 mm 0,0 UV-I 0 W/m² 0,4 °C -0,1 °C 6,4 km/h (2 Bft)
20.11.2019 04:32 1,3 °C 94 % 1016,2 hPa 0,0 mm 3,3 km/h (1 Bft) NO 49 ° 0 min 0,000 mm 0,0 UV-I 0 W/m² 0,4 °C 1,3 °C 6,4 km/h (2 Bft)
20.11.2019 04:33 1,3 °C 94 % 1016,1 hPa 0,0 mm 3,5 km/h (1 Bft) O-NO 59 ° 0 min 0,000 mm 0,0 UV-I 0 W/m² 0,4 °C 1,3 °C 4,8 km/h (1 Bft)
20.11.2019 04:34 1,3 °C 94 % 1016,1 hPa 0,0 mm 3,9 km/h (1 Bft) O-NO 71 ° 0 min 0,000 mm 0,0 UV-I 0 W/m² 0,4 °C 1,3 °C 4,8 km/h (1 Bft)
20.11.2019 04:35 1,3 °C 94 % 1016,1 hPa 0,0 mm 2,4 km/h (1 Bft) O-NO 71 ° 0 min 0,000 mm 0,0 UV-I 0 W/m² 0,4 °C 1,3 °C 4,8 km/h (1 Bft)
20.11.2019 04:36 1,3 °C 94 % 1016,1 hPa 0,0 mm 2,9 km/h (1 Bft) O-NO 71 ° 0 min 0,000 mm 0,0 UV-I 0 W/m² 0,4 °C 1,3 °C 4,8 km/h (1 Bft)
20.11.2019 04:37 1,3 °C 94 % 1016,1 hPa 0,0 mm 3,2 km/h (1 Bft) O-NO 71 ° 0 min 0,000 mm 0,0 UV-I 0 W/m² 0,4 °C 1,3 °C 4,8 km/h (1 Bft)
20.11.2019 04:38 1,3 °C 94 % 1016,1 hPa 0,0 mm 3,5 km/h (1 Bft) O-NO 71 ° 0 min 0,000 mm 0,0 UV-I 0 W/m² 0,4 °C 1,3 °C 6,4 km/h (2 Bft)
20.11.2019 04:39 1,3 °C 94 % 1016,1 hPa 0,0 mm 3,4 km/h (1 Bft) O-NO 71 ° 0 min 0,000 mm 0,0 UV-I 0 W/m² 0,4 °C 1,3 °C 4,8 km/h (1 Bft)
20.11.2019 04:40 1,3 °C 94 % 1016,1 hPa 0,0 mm 2,2 km/h (1 Bft) O-NO 71 ° 0 min 0,000 mm 0,0 UV-I 0 W/m² 0,4 °C 1,3 °C 4,8 km/h (1 Bft)
20.11.2019 04:41 1,3 °C 94 % 1015,9 hPa 0,0 mm 1,7 km/h (1 Bft) O-NO 71 ° 0 min 0,000 mm 0,0 UV-I 0 W/m² 0,4 °C 1,3 °C 3,2 km/h (1 Bft)
20.11.2019 04:42 1,3 °C 94 % 1016,0 hPa 0,0 mm 4,2 km/h (1 Bft) O-NO 71 ° 0 min 0,000 mm 0,0 UV-I 0 W/m² 0,4 °C 1,3 °C 4,8 km/h (1 Bft)
20.11.2019 04:43 1,3 °C 94 % 1016,0 hPa 0,0 mm 4,1 km/h (1 Bft) O-NO 71 ° 0 min 0,000 mm 0,0 UV-I 0 W/m² 0,4 °C 1,3 °C 6,4 km/h (2 Bft)
20.11.2019 04:44 1,3 °C 94 % 1016,0 hPa 0,0 mm 3,0 km/h (1 Bft) O-NO 71 ° 0 min 0,000 mm 0,0 UV-I 0 W/m² 0,4 °C 1,3 °C 4,8 km/h (1 Bft)
20.11.2019 04:45 1,3 °C 94 % 1015,9 hPa 0,0 mm 2,3 km/h (1 Bft) O-NO 71 ° 0 min 0,000 mm 0,0 UV-I 0 W/m² 0,4 °C 1,3 °C 4,8 km/h (1 Bft)
20.11.2019 04:46 1,3 °C 94 % 1015,9 hPa 0,0 mm 2,7 km/h (1 Bft) O-NO 71 ° 0 min 0,000 mm 0,0 UV-I 0 W/m² 0,4 °C 1,3 °C 3,2 km/h (1 Bft)
20.11.2019 04:47 1,3 °C 94 % 1016,0 hPa 0,0 mm 3,6 km/h (1 Bft) O-NO 71 ° 0 min 0,000 mm 0,0 UV-I 0 W/m² 0,4 °C 1,3 °C 6,4 km/h (2 Bft)
20.11.2019 04:48 1,3 °C 94 % 1016,0 hPa 0,0 mm 4,4 km/h (1 Bft) O-NO 71 ° 0 min 0,000 mm 0,0 UV-I 0 W/m² 0,4 °C 1,3 °C 6,4 km/h (2 Bft)
20.11.2019 04:49 1,3 °C 94 % 1015,9 hPa 0,0 mm 2,6 km/h (1 Bft) O-NO 71 ° 0 min 0,000 mm 0,0 UV-I 0 W/m² 0,4 °C 1,3 °C 3,2 km/h (1 Bft)
20.11.2019 04:50 1,3 °C 94 % 1016,0 hPa 0,0 mm 2,7 km/h (1 Bft) O-NO 71 ° 0 min 0,000 mm 0,0 UV-I 0 W/m² 0,4 °C 1,3 °C 3,2 km/h (1 Bft)
20.11.2019 04:51 1,3 °C 94 % 1016,0 hPa 0,0 mm 1,3 km/h (1 Bft) O-NO 71 ° 0 min 0,000 mm 0,0 UV-I 0 W/m² 0,4 °C 1,3 °C 3,2 km/h (1 Bft)
20.11.2019 04:52 1,3 °C 94 % 1015,9 hPa 0,0 mm 2,3 km/h (1 Bft) O-NO 71 ° 0 min 0,000 mm 0,0 UV-I 0 W/m² 0,4 °C 1,3 °C 3,2 km/h (1 Bft)
20.11.2019 04:53 1,3 °C 94 % 1015,9 hPa 0,0 mm 3,0 km/h (1 Bft) O-NO 71 ° 0 min 0,000 mm 0,0 UV-I 0 W/m² 0,4 °C 1,3 °C 4,8 km/h (1 Bft)
20.11.2019 04:54 1,3 °C 94 % 1015,9 hPa 0,0 mm 3,6 km/h (1 Bft) O-NO 71 ° 0 min 0,000 mm 0,0 UV-I 0 W/m² 0,4 °C 1,3 °C 4,8 km/h (1 Bft)
20.11.2019 04:55 1,3 °C 94 % 1015,9 hPa 0,0 mm 3,8 km/h (1 Bft) O-NO 71 ° 0 min 0,000 mm 0,0 UV-I 0 W/m² 0,4 °C 1,3 °C 6,4 km/h (2 Bft)
20.11.2019 04:56 1,3 °C 94 % 1015,9 hPa 0,0 mm 3,8 km/h (1 Bft) O-NO 71 ° 0 min 0,000 mm 0,0 UV-I 0 W/m² 0,4 °C 1,3 °C 6,4 km/h (2 Bft)
20.11.2019 04:57 1,3 °C 94 % 1015,9 hPa 0,0 mm 4,7 km/h (1 Bft) O-NO 71 ° 0 min 0,000 mm 0,0 UV-I 0 W/m² 0,4 °C 0,0 °C 6,4 km/h (2 Bft)
20.11.2019 04:58 1,3 °C 94 % 1015,9 hPa 0,0 mm 4,4 km/h (1 Bft) O-NO 71 ° 0 min 0,000 mm 0,0 UV-I 0 W/m² 0,4 °C 1,3 °C 6,4 km/h (2 Bft)
20.11.2019 04:59 1,3 °C 94 % 1015,9 hPa 0,0 mm 2,8 km/h (1 Bft) O-NO 71 ° 0 min 0,000 mm 0,0 UV-I 0 W/m² 0,4 °C 1,3 °C 4,8 km/h (1 Bft)
20.11.2019 05:00 1,3 °C 94 % 1015,9 hPa 0,0 mm 0,3 km/h (0 Bft) O-NO 71 ° 0 min 0,000 mm 0,0 UV-I 0 W/m² 0,4 °C 1,3 °C 1,6 km/h (1 Bft)
20.11.2019 05:01 1,3 °C 94 % 1015,9 hPa 0,0 mm 3,4 km/h (1 Bft) O-NO 71 ° 0 min 0,000 mm 0,0 UV-I 0 W/m² 0,4 °C 1,3 °C 6,4 km/h (2 Bft)
20.11.2019 05:02 1,3 °C 94 % 1015,9 hPa 0,0 mm 3,9 km/h (1 Bft) O-NO 71 ° 0 min 0,000 mm 0,0 UV-I 0 W/m² 0,4 °C 1,3 °C 4,8 km/h (1 Bft)
20.11.2019 05:03 1,3 °C 94 % 1015,9 hPa 0,0 mm 2,5 km/h (1 Bft) O-NO 71 ° 0 min 0,000 mm 0,0 UV-I 0 W/m² 0,4 °C 1,3 °C 3,2 km/h (1 Bft)
20.11.2019 05:04 1,3 °C 94 % 1015,9 hPa 0,0 mm 4,2 km/h (1 Bft) O-NO 71 ° 0 min 0,000 mm 0,0 UV-I 0 W/m² 0,4 °C 1,3 °C 6,4 km/h (2 Bft)
20.11.2019 05:05 1,3 °C 94 % 1015,9 hPa 0,0 mm 1,5 km/h (1 Bft) O-NO 71 ° 0 min 0,000 mm 0,0 UV-I 0 W/m² 0,4 °C 1,3 °C 4,8 km/h (1 Bft)
20.11.2019 05:06 1,3 °C 94 % 1015,9 hPa 0,0 mm 0,0 km/h (0 Bft) O-NO 71 ° 0 min 0,000 mm 0,0 UV-I 0 W/m² 0,4 °C 1,3 °C 0,0 km/h (0 Bft)
20.11.2019 05:07 1,3 °C 94 % 1015,9 hPa 0,0 mm 4,2 km/h (1 Bft) O-NO 71 ° 0 min 0,000 mm 0,0 UV-I 0 W/m² 0,4 °C 1,3 °C 6,4 km/h (2 Bft)
20.11.2019 05:08 1,3 °C 94 % 1015,9 hPa 0,0 mm 3,1 km/h (1 Bft) O-NO 71 ° 0 min 0,000 mm 0,0 UV-I 0 W/m² 0,4 °C 1,3 °C 6,4 km/h (2 Bft)
20.11.2019 05:09 1,3 °C 94 % 1015,9 hPa 0,0 mm 1,3 km/h (1 Bft) O-NO 71 ° 0 min 0,000 mm 0,0 UV-I 0 W/m² 0,4 °C 1,3 °C 1,6 km/h (1 Bft)
20.11.2019 05:10 1,3 °C 94 % 1015,9 hPa 0,0 mm 3,0 km/h (1 Bft) O-NO 71 ° 0 min 0,000 mm 0,0 UV-I 0 W/m² 0,4 °C 1,3 °C 4,8 km/h (1 Bft)
20.11.2019 05:11 1,3 °C 94 % 1015,9 hPa 0,0 mm 2,6 km/h (1 Bft) O-NO 71 ° 0 min 0,000 mm 0,0 UV-I 0 W/m² 0,4 °C 1,3 °C 4,8 km/h (1 Bft)
20.11.2019 05:12 1,3 °C 94 % 1015,9 hPa 0,0 mm 0,0 km/h (0 Bft) O-NO 71 ° 0 min 0,000 mm 0,0 UV-I 0 W/m² 0,4 °C 1,3 °C 0,0 km/h (0 Bft)
20.11.2019 05:13 1,3 °C 94 % 1015,9 hPa 0,0 mm 0,1 km/h (0 Bft) O-NO 71 ° 0 min 0,000 mm 0,0 UV-I 0 W/m² 0,4 °C 1,3 °C 1,6 km/h (1 Bft)
20.11.2019 05:14 1,3 °C 94 % 1015,9 hPa 0,0 mm 2,2 km/h (1 Bft) O-NO 71 ° 0 min 0,000 mm 0,0 UV-I 0 W/m² 0,4 °C 1,3 °C 4,8 km/h (1 Bft)
20.11.2019 05:15 1,3 °C 94 % 1015,8 hPa 0,0 mm 4,2 km/h (1 Bft) O-NO 71 ° 0 min 0,000 mm 0,0 UV-I 0 W/m² 0,4 °C 1,3 °C 6,4 km/h (2 Bft)
20.11.2019 05:16 1,3 °C 94 % 1015,8 hPa 0,0 mm 3,9 km/h (1 Bft) O-NO 71 ° 0 min 0,000 mm 0,0 UV-I 0 W/m² 0,4 °C 1,3 °C 4,8 km/h (1 Bft)
20.11.2019 05:17 1,3 °C 94 % 1015,8 hPa 0,0 mm 3,3 km/h (1 Bft) O-NO 75 ° 0 min 0,000 mm 0,0 UV-I 0 W/m² 0,4 °C 1,3 °C 4,8 km/h (1 Bft)
20.11.2019 05:18 1,3 °C 94 % 1015,8 hPa 0,0 mm 2,2 km/h (1 Bft) O-NO 75 ° 0 min 0,000 mm 0,0 UV-I 0 W/m² 0,4 °C 1,3 °C 3,2 km/h (1 Bft)
20.11.2019 05:19 1,3 °C 94 % 1015,8 hPa 0,0 mm 0,8 km/h (0 Bft) O-NO 75 ° 0 min 0,000 mm 0,0 UV-I 0 W/m² 0,4 °C 1,3 °C 3,2 km/h (1 Bft)
20.11.2019 05:20 1,3 °C 94 % 1015,8 hPa 0,0 mm 1,0 km/h (0 Bft) O-NO 75 ° 0 min 0,000 mm 0,0 UV-I 0 W/m² 0,4 °C 1,3 °C 1,6 km/h (1 Bft)
20.11.2019 05:21 1,3 °C 94 % 1015,8 hPa 0,0 mm 4,0 km/h (1 Bft) O 90 ° 0 min 0,000 mm 0,0 UV-I 0 W/m² 0,4 °C 1,3 °C 4,8 km/h (1 Bft)
20.11.2019 05:22 1,3 °C 94 % 1015,8 hPa 0,0 mm 3,4 km/h (1 Bft) O-NO 69 ° 0 min 0,000 mm 0,0 UV-I 0 W/m² 0,4 °C 1,3 °C 6,4 km/h (2 Bft)
20.11.2019 05:23 1,3 °C 94 % 1015,8 hPa 0,0 mm 2,3 km/h (1 Bft) O-NO 69 ° 0 min 0,000 mm 0,0 UV-I 0 W/m² 0,4 °C 1,3 °C 4,8 km/h (1 Bft)
20.11.2019 05:24 1,3 °C 94 % 1015,8 hPa 0,0 mm 1,3 km/h (1 Bft) O-NO 69 ° 0 min 0,000 mm 0,0 UV-I 0 W/m² 0,4 °C 1,3 °C 3,2 km/h (1 Bft)
20.11.2019 05:25 1,3 °C 94 % 1015,8 hPa 0,0 mm 2,1 km/h (1 Bft) O-NO 69 ° 0 min 0,000 mm 0,0 UV-I 0 W/m² 0,4 °C 1,3 °C 3,2 km/h (1 Bft)
20.11.2019 05:26 1,3 °C 94 % 1015,8 hPa 0,0 mm 3,0 km/h (1 Bft) O-NO 69 ° 0 min 0,000 mm 0,0 UV-I 0 W/m² 0,4 °C 1,3 °C 4,8 km/h (1 Bft)
20.11.2019 05:27 1,3 °C 94 % 1015,8 hPa 0,0 mm 1,4 km/h (1 Bft) O-NO 69 ° 0 min 0,000 mm 0,0 UV-I 0 W/m² 0,4 °C 1,3 °C 1,6 km/h (1 Bft)
20.11.2019 05:28 1,3 °C 94 % 1015,8 hPa 0,0 mm 0,8 km/h (0 Bft) O-NO 69 ° 0 min 0,000 mm 0,0 UV-I 0 W/m² 0,4 °C 1,3 °C 1,6 km/h (1 Bft)
20.11.2019 05:29 1,3 °C 94 % 1015,8 hPa 0,0 mm 0,0 km/h (0 Bft) O-NO 69 ° 0 min 0,000 mm 0,0 UV-I 0 W/m² 0,4 °C 1,3 °C 0,0 km/h (0 Bft)
20.11.2019 05:30 1,3 °C 94 % 1015,8 hPa 0,0 mm 1,8 km/h (1 Bft) O-NO 69 ° 0 min 0,000 mm 0,0 UV-I 0 W/m² 0,4 °C 1,3 °C 3,2 km/h (1 Bft)
20.11.2019 05:31 1,3 °C 94 % 1015,8 hPa 0,0 mm 2,2 km/h (1 Bft) O-NO 69 ° 0 min 0,000 mm 0,0 UV-I 0 W/m² 0,4 °C 1,3 °C 4,8 km/h (1 Bft)
20.11.2019 05:32 1,3 °C 94 % 1015,8 hPa 0,0 mm 2,7 km/h (1 Bft) O-NO 69 ° 0 min 0,000 mm 0,0 UV-I 0 W/m² 0,4 °C 1,3 °C 4,8 km/h (1 Bft)
20.11.2019 05:33 1,3 °C 94 % 1015,8 hPa 0,0 mm 4,8 km/h (1 Bft) O-SO 117 ° 0 min 0,000 mm 0,0 UV-I 0 W/m² 0,4 °C -0,0 °C 9,7 km/h (2 Bft)
20.11.2019 05:34 1,3 °C 94 % 1015,8 hPa 0,0 mm 3,8 km/h (1 Bft) O-SO 112 ° 0 min 0,000 mm 0,0 UV-I 0 W/m² 0,4 °C 1,3 °C 6,4 km/h (2 Bft)
20.11.2019 05:35 1,3 °C 94 % 1015,8 hPa 0,0 mm 2,3 km/h (1 Bft) O-SO 112 ° 0 min 0,000 mm 0,0 UV-I 0 W/m² 0,4 °C 1,3 °C 3,2 km/h (1 Bft)
20.11.2019 05:36 1,3 °C 94 % 1015,8 hPa 0,0 mm 3,2 km/h (1 Bft) O-SO 105 ° 0 min 0,000 mm 0,0 UV-I 0 W/m² 0,4 °C 1,3 °C 4,8 km/h (1 Bft)
20.11.2019 05:37 1,3 °C 94 % 1015,8 hPa 0,0 mm 3,1 km/h (1 Bft) O 96 ° 0 min 0,000 mm 0,0 UV-I 0 W/m² 0,4 °C 1,3 °C 4,8 km/h (1 Bft)
20.11.2019 05:38 1,2 °C 94 % 1015,8 hPa 0,0 mm 2,3 km/h (1 Bft) O 96 ° 0 min 0,000 mm 0,0 UV-I 0 W/m² 0,3 °C 1,2 °C 3,2 km/h (1 Bft)
20.11.2019 05:39 1,2 °C 94 % 1015,8 hPa 0,0 mm 2,6 km/h (1 Bft) O 80 ° 0 min 0,000 mm 0,0 UV-I 0 W/m² 0,3 °C 1,2 °C 4,8 km/h (1 Bft)
20.11.2019 05:40 1,2 °C 94 % 1015,8 hPa 0,0 mm 3,7 km/h (1 Bft) O-NO 67 ° 0 min 0,000 mm 0,0 UV-I 0 W/m² 0,3 °C 1,2 °C 8,0 km/h (2 Bft)
20.11.2019 05:41 1,3 °C 94 % 1015,8 hPa 0,0 mm 1,9 km/h (1 Bft) O-NO 67 ° 0 min 0,000 mm 0,0 UV-I 0 W/m² 0,4 °C 1,3 °C 4,8 km/h (1 Bft)
20.11.2019 05:42 1,3 °C 94 % 1015,8 hPa 0,0 mm 0,5 km/h (0 Bft) O-NO 67 ° 0 min 0,000 mm 0,0 UV-I 0 W/m² 0,4 °C 1,3 °C 3,2 km/h (1 Bft)
20.11.2019 05:43 1,3 °C 94 % 1015,8 hPa 0,0 mm 2,7 km/h (1 Bft) O-NO 67 ° 0 min 0,000 mm 0,0 UV-I 0 W/m² 0,4 °C 1,3 °C 3,2 km/h (1 Bft)
20.11.2019 05:44 1,2 °C 94 % 1015,8 hPa 0,0 mm 1,8 km/h (1 Bft) O-NO 67 ° 0 min 0,000 mm 0,0 UV-I 0 W/m² 0,3 °C 1,2 °C 3,2 km/h (1 Bft)
20.11.2019 05:45 1,3 °C 94 % 1015,8 hPa 0,0 mm 4,4 km/h (1 Bft) O-NO 66 ° 0 min 0,000 mm 0,0 UV-I 0 W/m² 0,4 °C 1,3 °C 6,4 km/h (2 Bft)
20.11.2019 05:46 1,2 °C 94 % 1015,8 hPa 0,0 mm 5,2 km/h (1 Bft) O-NO 76 ° 0 min 0,000 mm 0,0 UV-I 0 W/m² 0,3 °C -0,3 °C 8,0 km/h (2 Bft)
20.11.2019 05:47 1,2 °C 94 % 1015,8 hPa 0,0 mm 4,2 km/h (1 Bft) O 79 ° 0 min 0,000 mm 0,0 UV-I 0 W/m² 0,3 °C 1,2 °C 6,4 km/h (2 Bft)
20.11.2019 05:48 1,2 °C 94 % 1015,8 hPa 0,0 mm 5,2 km/h (1 Bft) NO 46 ° 0 min 0,000 mm 0,0 UV-I 0 W/m² 0,3 °C -0,3 °C 8,0 km/h (2 Bft)
20.11.2019 05:49 1,2 °C 94 % 1015,8 hPa 0,0 mm 4,5 km/h (1 Bft) O 90 ° 0 min 0,000 mm 0,0 UV-I 0 W/m² 0,3 °C 1,2 °C 8,0 km/h (2 Bft)
20.11.2019 05:50 1,2 °C 94 % 1015,7 hPa 0,0 mm 4,3 km/h (1 Bft) O-NO 57 ° 0 min 0,000 mm 0,0 UV-I 0 W/m² 0,3 °C 1,2 °C 8,0 km/h (2 Bft)
20.11.2019 05:51 1,2 °C 94 % 1015,8 hPa 0,0 mm 4,3 km/h (1 Bft) O-NO 67 ° 0 min 0,000 mm 0,0 UV-I 0 W/m² 0,3 °C 1,2 °C 6,4 km/h (2 Bft)
20.11.2019 05:52 1,2 °C 94 % 1015,8 hPa 0,0 mm 4,6 km/h (1 Bft) O-NO 67 ° 0 min 0,000 mm 0,0 UV-I 0 W/m² 0,3 °C -0,0 °C 6,4 km/h (2 Bft)
20.11.2019 05:53 1,2 °C 94 % 1015,8 hPa 0,0 mm 4,2 km/h (1 Bft) O-NO 67 ° 0 min 0,000 mm 0,0 UV-I 0 W/m² 0,3 °C 1,2 °C 6,4 km/h (2 Bft)
20.11.2019 05:54 1,2 °C 94 % 1015,7 hPa 0,0 mm 3,1 km/h (1 Bft) O-NO 67 ° 0 min 0,000 mm 0,0 UV-I 0 W/m² 0,3 °C 1,2 °C 4,8 km/h (1 Bft)
20.11.2019 05:55 1,2 °C 94 % 1015,7 hPa 0,0 mm 3,9 km/h (1 Bft) O-NO 67 ° 0 min 0,000 mm 0,0 UV-I 0 W/m² 0,3 °C 1,2 °C 9,7 km/h (2 Bft)
20.11.2019 05:56 1,2 °C 94 % 1015,7 hPa 0,0 mm 6,6 km/h (2 Bft) O-NO 70 ° 0 min 0,000 mm 0,0 UV-I 0 W/m² 0,3 °C -0,9 °C 9,7 km/h (2 Bft)
20.11.2019 05:57 1,2 °C 93 % 1015,7 hPa 0,0 mm 6,0 km/h (2 Bft) O-NO 67 ° 0 min 0,000 mm 0,0 UV-I 0 W/m² 0,2 °C -0,6 °C 8,0 km/h (2 Bft)
20.11.2019 05:58 1,2 °C 94 % 1015,7 hPa 0,0 mm 4,1 km/h (1 Bft) O-NO 67 ° 0 min 0,000 mm 0,0 UV-I 0 W/m² 0,3 °C 1,2 °C 6,4 km/h (2 Bft)
20.11.2019 05:59 1,2 °C 94 % 1015,6 hPa 0,0 mm 2,2 km/h (1 Bft) O-NO 67 ° 0 min 0,000 mm 0,0 UV-I 0 W/m² 0,3 °C 1,2 °C 4,8 km/h (1 Bft)
20.11.2019 06:00 1,2 °C 93 % 1015,6 hPa 0,0 mm 4,1 km/h (1 Bft) O-NO 67 ° 0 min 0,000 mm 0,0 UV-I 0 W/m² 0,2 °C 1,2 °C 6,4 km/h (2 Bft)
20.11.2019 06:01 1,2 °C 93 % 1015,6 hPa 0,0 mm 2,7 km/h (1 Bft) O-NO 67 ° 0 min 0,000 mm 0,0 UV-I 0 W/m² 0,2 °C 1,2 °C 4,8 km/h (1 Bft)
20.11.2019 06:02 1,2 °C 93 % 1015,6 hPa 0,0 mm 3,1 km/h (1 Bft) O-NO 67 ° 0 min 0,000 mm 0,0 UV-I 0 W/m² 0,2 °C 1,2 °C 6,4 km/h (2 Bft)
20.11.2019 06:03 1,2 °C 93 % 1015,6 hPa 0,0 mm 3,9 km/h (1 Bft) SO 126 ° 0 min 0,000 mm 0,0 UV-I 0 W/m² 0,2 °C 1,2 °C 6,4 km/h (2 Bft)
20.11.2019 06:04 1,2 °C 93 % 1015,6 hPa 0,0 mm 3,9 km/h (1 Bft) O 82 ° 0 min 0,000 mm 0,0 UV-I 0 W/m² 0,2 °C 1,2 °C 6,4 km/h (2 Bft)
20.11.2019 06:05 1,2 °C 93 % 1015,6 hPa 0,0 mm 3,8 km/h (1 Bft) O-NO 76 ° 0 min 0,000 mm 0,0 UV-I 0 W/m² 0,2 °C 1,2 °C 4,8 km/h (1 Bft)
20.11.2019 06:06 1,2 °C 93 % 1015,6 hPa 0,0 mm 4,4 km/h (1 Bft) O 82 ° 0 min 0,000 mm 0,0 UV-I 0 W/m² 0,2 °C 1,2 °C 6,4 km/h (2 Bft)
20.11.2019 06:07 1,2 °C 93 % 1015,6 hPa 0,0 mm 4,1 km/h (1 Bft) O 82 ° 0 min 0,000 mm 0,0 UV-I 0 W/m² 0,2 °C 1,2 °C 6,4 km/h (2 Bft)
20.11.2019 06:08 1,2 °C 93 % 1015,6 hPa 0,0 mm 5,6 km/h (1 Bft) O-NO 74 ° 0 min 0,000 mm 0,0 UV-I 0 W/m² 0,2 °C -0,5 °C 8,0 km/h (2 Bft)
20.11.2019 06:09 1,2 °C 93 % 1015,6 hPa 0,0 mm 4,1 km/h (1 Bft) O-NO 74 ° 0 min 0,000 mm 0,0 UV-I 0 W/m² 0,2 °C 1,2 °C 4,8 km/h (1 Bft)
20.11.2019 06:10 1,2 °C 93 % 1015,6 hPa 0,0 mm 3,2 km/h (1 Bft) O-NO 74 ° 0 min 0,000 mm 0,0 UV-I 0 W/m² 0,2 °C 1,2 °C 4,8 km/h (1 Bft)
20.11.2019 06:11 1,2 °C 93 % 1015,5 hPa 0,0 mm 1,1 km/h (1 Bft) O-NO 74 ° 0 min 0,000 mm 0,0 UV-I 0 W/m² 0,2 °C 1,2 °C 4,8 km/h (1 Bft)
20.11.2019 06:12 1,2 °C 93 % 1015,5 hPa 0,0 mm 4,3 km/h (1 Bft) O-NO 74 ° 0 min 0,000 mm 0,0 UV-I 0 W/m² 0,2 °C 1,2 °C 6,4 km/h (2 Bft)
20.11.2019 06:13 1,2 °C 93 % 1015,5 hPa 0,0 mm 3,6 km/h (1 Bft) O-NO 74 ° 0 min 0,000 mm 0,0 UV-I 0 W/m² 0,2 °C 1,2 °C 4,8 km/h (1 Bft)
20.11.2019 06:14 1,2 °C 93 % 1015,5 hPa 0,0 mm 5,1 km/h (1 Bft) O 88 ° 0 min 0,000 mm 0,0 UV-I 0 W/m² 0,2 °C -0,3 °C 6,4 km/h (2 Bft)
20.11.2019 06:15 1,2 °C 93 % 1015,5 hPa 0,0 mm 2,2 km/h (1 Bft) O 88 ° 0 min 0,000 mm 0,0 UV-I 0 W/m² 0,2 °C 1,2 °C 4,8 km/h (1 Bft)
20.11.2019 06:16 1,2 °C 93 % 1015,5 hPa 0,0 mm 1,3 km/h (1 Bft) O 88 ° 0 min 0,000 mm 0,0 UV-I 0 W/m² 0,2 °C 1,2 °C 4,8 km/h (1 Bft)
20.11.2019 06:17 1,2 °C 93 % 1015,5 hPa 0,0 mm 3,0 km/h (1 Bft) O 88 ° 0 min 0,000 mm 0,0 UV-I 0 W/m² 0,2 °C 1,2 °C 4,8 km/h (1 Bft)
20.11.2019 06:18 1,2 °C 93 % 1015,5 hPa 0,0 mm 3,7 km/h (1 Bft) O 88 ° 0 min 0,000 mm 0,0 UV-I 0 W/m² 0,2 °C 1,2 °C 4,8 km/h (1 Bft)
20.11.2019 06:19 1,2 °C 93 % 1015,4 hPa 0,0 mm 3,3 km/h (1 Bft) O 88 ° 0 min 0,000 mm 0,0 UV-I 0 W/m² 0,2 °C 1,2 °C 4,8 km/h (1 Bft)
20.11.2019 06:20 1,2 °C 94 % 1015,4 hPa 0,0 mm 3,1 km/h (1 Bft) O 88 ° 0 min 0,000 mm 0,0 UV-I 0 W/m² 0,3 °C 1,2 °C 4,8 km/h (1 Bft)
20.11.2019 06:21 1,2 °C 93 % 1015,4 hPa 0,0 mm 1,8 km/h (1 Bft) O 88 ° 0 min 0,000 mm 0,0 UV-I 0 W/m² 0,2 °C 1,2 °C 4,8 km/h (1 Bft)
20.11.2019 06:22 1,2 °C 93 % 1015,4 hPa 0,0 mm 1,3 km/h (1 Bft) O 88 ° 0 min 0,000 mm 0,0 UV-I 0 W/m² 0,2 °C 1,2 °C 3,2 km/h (1 Bft)
20.11.2019 06:23 1,2 °C 93 % 1015,4 hPa 0,0 mm 2,8 km/h (1 Bft) O-NO 77 ° 0 min 0,000 mm 0,0 UV-I 0 W/m² 0,2 °C 1,2 °C 6,4 km/h (2 Bft)
20.11.2019 06:24 1,2 °C 93 % 1015,4 hPa 0,0 mm 3,6 km/h (1 Bft) O-NO 77 ° 0 min 0,000 mm 0,0 UV-I 0 W/m² 0,2 °C 1,2 °C 4,8 km/h (1 Bft)
20.11.2019 06:25 1,2 °C 93 % 1015,4 hPa 0,0 mm 3,2 km/h (1 Bft) O-NO 78 ° 0 min 0,000 mm 0,0 UV-I 0 W/m² 0,2 °C 1,2 °C 4,8 km/h (1 Bft)
20.11.2019 06:26 1,2 °C 93 % 1015,4 hPa 0,0 mm 3,2 km/h (1 Bft) O-NO 78 ° 0 min 0,000 mm 0,0 UV-I 0 W/m² 0,2 °C 1,2 °C 4,8 km/h (1 Bft)
20.11.2019 06:27 1,2 °C 93 % 1015,4 hPa 0,0 mm 1,4 km/h (1 Bft) O-NO 78 ° 0 min 0,000 mm 0,0 UV-I 0 W/m² 0,2 °C 1,2 °C 3,2 km/h (1 Bft)
20.11.2019 06:28 1,2 °C 93 % 1015,4 hPa 0,0 mm 3,6 km/h (1 Bft) O-NO 78 ° 0 min 0,000 mm 0,0 UV-I 0 W/m² 0,2 °C 1,2 °C 4,8 km/h (1 Bft)
20.11.2019 06:29 1,2 °C 93 % 1015,4 hPa 0,0 mm 3,2 km/h (1 Bft) O-NO 78 ° 0 min 0,000 mm 0,0 UV-I 0 W/m² 0,2 °C 1,2 °C 4,8 km/h (1 Bft)
20.11.2019 06:30 1,2 °C 93 % 1015,4 hPa 0,0 mm 1,4 km/h (1 Bft) O-NO 78 ° 0 min 0,000 mm 0,0 UV-I 0 W/m² 0,2 °C 1,2 °C 3,2 km/h (1 Bft)
20.11.2019 06:31 1,2 °C 93 % 1015,4 hPa 0,0 mm 2,3 km/h (1 Bft) O-NO 78 ° 0 min 0,000 mm 0,0 UV-I 0 W/m² 0,2 °C 1,2 °C 3,2 km/h (1 Bft)
20.11.2019 06:32 1,2 °C 93 % 1015,4 hPa 0,0 mm 2,7 km/h (1 Bft) O-NO 78 ° 0 min 0,000 mm 0,0 UV-I 0 W/m² 0,2 °C 1,2 °C 3,2 km/h (1 Bft)
20.11.2019 06:33 1,2 °C 93 % 1015,4 hPa 0,0 mm 2,2 km/h (1 Bft) O-NO 78 ° 0 min 0,000 mm 0,0 UV-I 0 W/m² 0,2 °C 1,2 °C 4,8 km/h (1 Bft)
20.11.2019 06:34 1,2 °C 93 % 1015,4 hPa 0,0 mm 3,6 km/h (1 Bft) O-NO 78 ° 0 min 0,000 mm 0,0 UV-I 0 W/m² 0,2 °C 1,2 °C 4,8 km/h (1 Bft)
20.11.2019 06:35 1,2 °C 93 % 1015,4 hPa 0,0 mm 3,1 km/h (1 Bft) O-NO 78 ° 0 min 0,000 mm 0,0 UV-I 0 W/m² 0,2 °C 1,2 °C 4,8 km/h (1 Bft)
20.11.2019 06:36 1,2 °C 93 % 1015,4 hPa 0,0 mm 4,2 km/h (1 Bft) NO 53 ° 0 min 0,000 mm 0,0 UV-I 0 W/m² 0,2 °C 1,2 °C 6,4 km/h (2 Bft)
20.11.2019 06:37 1,2 °C 93 % 1015,4 hPa 0,0 mm 2,8 km/h (1 Bft) NO 53 ° 0 min 0,000 mm 0,0 UV-I 0 W/m² 0,2 °C 1,2 °C 4,8 km/h (1 Bft)
20.11.2019 06:38 1,2 °C 93 % 1015,4 hPa 0,0 mm 1,9 km/h (1 Bft) NO 53 ° 0 min 0,000 mm 0,0 UV-I 0 W/m² 0,2 °C 1,2 °C 3,2 km/h (1 Bft)
20.11.2019 06:39 1,2 °C 93 % 1015,3 hPa 0,0 mm 1,3 km/h (1 Bft) NO 53 ° 0 min 0,000 mm 0,0 UV-I 0 W/m² 0,2 °C 1,2 °C 4,8 km/h (1 Bft)
20.11.2019 06:40 1,2 °C 93 % 1015,3 hPa 0,0 mm 3,8 km/h (1 Bft) NO 53 ° 0 min 0,000 mm 0,0 UV-I 0 W/m² 0,2 °C 1,2 °C 6,4 km/h (2 Bft)
20.11.2019 06:41 1,2 °C 93 % 1015,3 hPa 0,0 mm 4,0 km/h (1 Bft) O-NO 62 ° 0 min 0,000 mm 0,0 UV-I 0 W/m² 0,2 °C 1,2 °C 6,4 km/h (2 Bft)
20.11.2019 06:42 1,2 °C 93 % 1015,3 hPa 0,0 mm 3,9 km/h (1 Bft) O-NO 62 ° 0 min 0,000 mm 0,0 UV-I 0 W/m² 0,2 °C 1,2 °C 4,8 km/h (1 Bft)
20.11.2019 06:43 1,2 °C 93 % 1015,3 hPa 0,0 mm 1,7 km/h (1 Bft) O-NO 62 ° 0 min 0,000 mm 0,0 UV-I 0 W/m² 0,2 °C 1,2 °C 3,2 km/h (1 Bft)
20.11.2019 06:44 1,2 °C 93 % 1015,3 hPa 0,0 mm 1,0 km/h (0 Bft) O-NO 62 ° 0 min 0,000 mm 0,0 UV-I 0 W/m² 0,2 °C 1,2 °C 1,6 km/h (1 Bft)
20.11.2019 06:45 1,2 °C 93 % 1015,3 hPa 0,0 mm 1,6 km/h (1 Bft) O-NO 62 ° 0 min 0,000 mm 0,0 UV-I 0 W/m² 0,2 °C 1,2 °C 3,2 km/h (1 Bft)
20.11.2019 06:46 1,2 °C 93 % 1015,3 hPa 0,0 mm 1,2 km/h (1 Bft) O-NO 62 ° 0 min 0,000 mm 0,0 UV-I 0 W/m² 0,2 °C 1,2 °C 3,2 km/h (1 Bft)
20.11.2019 06:47 1,2 °C 93 % 1015,2 hPa 0,0 mm 1,9 km/h (1 Bft) O-NO 62 ° 0 min 0,000 mm 0,0 UV-I 0 W/m² 0,2 °C 1,2 °C 4,8 km/h (1 Bft)
20.11.2019 06:48 1,1 °C 93 % 1015,3 hPa 0,0 mm 4,8 km/h (1 Bft) O-NO 66 ° 0 min 0,000 mm 0,0 UV-I 0 W/m² 0,1 °C -0,2 °C 6,4 km/h (2 Bft)
20.11.2019 06:49 1,2 °C 93 % 1015,3 hPa 0,0 mm 2,1 km/h (1 Bft) O-NO 66 ° 0 min 0,000 mm 0,0 UV-I 0 W/m² 0,2 °C 1,2 °C 4,8 km/h (1 Bft)
20.11.2019 06:50 1,2 °C 93 % 1015,3 hPa 0,0 mm 1,3 km/h (1 Bft) O-NO 66 ° 0 min 0,000 mm 0,0 UV-I 0 W/m² 0,2 °C 1,2 °C 1,6 km/h (1 Bft)
20.11.2019 06:51 1,2 °C 93 % 1015,3 hPa 0,0 mm 2,1 km/h (1 Bft) O-NO 66 ° 0 min 0,000 mm 0,0 UV-I 0 W/m² 0,2 °C 1,2 °C 3,2 km/h (1 Bft)
20.11.2019 06:52 1,2 °C 93 % 1015,3 hPa 0,0 mm 0,9 km/h (0 Bft) O-NO 66 ° 0 min 0,000 mm 0,0 UV-I 0 W/m² 0,2 °C 1,2 °C 3,2 km/h (1 Bft)
20.11.2019 06:53 1,2 °C 93 % 1015,3 hPa 0,0 mm 2,2 km/h (1 Bft) O-NO 66 ° 0 min 0,000 mm 0,0 UV-I 0 W/m² 0,2 °C 1,2 °C 3,2 km/h (1 Bft)
20.11.2019 06:54 1,2 °C 93 % 1015,2 hPa 0,0 mm 4,0 km/h (1 Bft) O-NO 66 ° 0 min 0,000 mm 0,0 UV-I 0 W/m² 0,2 °C 1,2 °C 6,4 km/h (2 Bft)
20.11.2019 06:55 1,2 °C 93 % 1015,3 hPa 0,0 mm 3,4 km/h (1 Bft) O-NO 66 ° 0 min 0,000 mm 0,0 UV-I 0 W/m² 0,2 °C 1,2 °C 4,8 km/h (1 Bft)
20.11.2019 06:56 1,2 °C 93 % 1015,3 hPa 0,0 mm 3,6 km/h (1 Bft) O-NO 66 ° 0 min 0,000 mm 0,0 UV-I 0 W/m² 0,2 °C 1,2 °C 4,8 km/h (1 Bft)
20.11.2019 06:57 1,2 °C 93 % 1015,2 hPa 0,0 mm 3,7 km/h (1 Bft) O-NO 65 ° 0 min 0,000 mm 0,0 UV-I 0 W/m² 0,2 °C 1,2 °C 4,8 km/h (1 Bft)
20.11.2019 06:58 1,2 °C 93 % 1015,2 hPa 0,0 mm 2,7 km/h (1 Bft) O-NO 65 ° 0 min 0,000 mm 0,0 UV-I 0 W/m² 0,2 °C 1,2 °C 4,8 km/h (1 Bft)
20.11.2019 06:59 1,2 °C 93 % 1015,2 hPa 0,0 mm 2,7 km/h (1 Bft) O-NO 68 ° 0 min 0,000 mm 0,0 UV-I 0 W/m² 0,2 °C 1,2 °C 3,2 km/h (1 Bft)
20.11.2019 07:00 1,2 °C 93 % 1015,2 hPa 0,0 mm 1,9 km/h (1 Bft) O-NO 68 ° 0 min 0,000 mm 0,0 UV-I 0 W/m² 0,2 °C 1,2 °C 3,2 km/h (1 Bft)
20.11.2019 07:01 1,2 °C 93 % 1015,2 hPa 0,0 mm 1,4 km/h (1 Bft) O-NO 68 ° 0 min 0,000 mm 0,0 UV-I 0 W/m² 0,2 °C 1,2 °C 3,2 km/h (1 Bft)
20.11.2019 07:02 1,2 °C 93 % 1015,1 hPa 0,0 mm 3,3 km/h (1 Bft) O-NO 68 ° 0 min 0,000 mm 0,0 UV-I 0 W/m² 0,2 °C 1,2 °C 4,8 km/h (1 Bft)
20.11.2019 07:03 1,2 °C 93 % 1015,1 hPa 0,0 mm 4,8 km/h (1 Bft) O-NO 68 ° 0 min 0,000 mm 0,0 UV-I 0 W/m² 0,2 °C -0,1 °C 4,8 km/h (1 Bft)
20.11.2019 07:04 1,2 °C 93 % 1015,1 hPa 0,0 mm 3,8 km/h (1 Bft) O-NO 68 ° 0 min 0,000 mm 0,0 UV-I 0 W/m² 0,2 °C 1,2 °C 4,8 km/h (1 Bft)
20.11.2019 07:05 1,2 °C 93 % 1015,1 hPa 0,0 mm 3,9 km/h (1 Bft) O-NO 68 ° 0 min 0,000 mm 0,0 UV-I 0 W/m² 0,2 °C 1,2 °C 6,4 km/h (2 Bft)
20.11.2019 07:06 1,2 °C 93 % 1015,1 hPa 0,0 mm 3,2 km/h (1 Bft) O-NO 68 ° 0 min 0,000 mm 0,0 UV-I 0 W/m² 0,2 °C 1,2 °C 4,8 km/h (1 Bft)
20.11.2019 07:07 1,2 °C 93 % 1015,1 hPa 0,0 mm 3,5 km/h (1 Bft) O-NO 68 ° 0 min 0,000 mm 0,0 UV-I 0 W/m² 0,2 °C 1,2 °C 4,8 km/h (1 Bft)
20.11.2019 07:08 1,1 °C 93 % 1015,1 hPa 0,0 mm 2,3 km/h (1 Bft) O-NO 68 ° 0 min 0,000 mm 0,0 UV-I 0 W/m² 0,1 °C 1,1 °C 3,2 km/h (1 Bft)
20.11.2019 07:09 1,2 °C 93 % 1015,1 hPa 0,0 mm 2,7 km/h (1 Bft) O-NO 68 ° 0 min 0,000 mm 0,0 UV-I 0 W/m² 0,2 °C 1,2 °C 4,8 km/h (1 Bft)
20.11.2019 07:10 1,2 °C 93 % 1015,1 hPa 0,0 mm 2,0 km/h (1 Bft) O-NO 68 ° 0 min 0,000 mm 0,0 UV-I 0 W/m² 0,2 °C 1,2 °C 3,2 km/h (1 Bft)
20.11.2019 07:11 1,2 °C 93 % 1015,1 hPa 0,0 mm 0,6 km/h (0 Bft) O-NO 68 ° 0 min 0,000 mm 0,0 UV-I 0 W/m² 0,2 °C 1,2 °C 3,2 km/h (1 Bft)
20.11.2019 07:12 1,2 °C 93 % 1015,1 hPa 0,0 mm 0,0 km/h (0 Bft) O-NO 68 ° 0 min 0,000 mm 0,0 UV-I 0 W/m² 0,2 °C 1,2 °C 0,0 km/h (0 Bft)
20.11.2019 07:13 1,2 °C 93 % 1015,0 hPa 0,0 mm 0,0 km/h (0 Bft) O-NO 68 ° 0 min 0,000 mm 0,0 UV-I 0 W/m² 0,2 °C 1,2 °C 0,0 km/h (0 Bft)
20.11.2019 07:14 1,2 °C 93 % 1015,0 hPa 0,0 mm 0,0 km/h (0 Bft) O-NO 68 ° 0 min 0,000 mm 0,0 UV-I 0 W/m² 0,2 °C 1,2 °C 0,0 km/h (0 Bft)
20.11.2019 07:15 1,1 °C 93 % 1015,0 hPa 0,0 mm 1,9 km/h (1 Bft) O-NO 68 ° 0 min 0,000 mm 0,0 UV-I 0 W/m² 0,1 °C 1,1 °C 4,8 km/h (1 Bft)
20.11.2019 07:16 1,2 °C 93 % 1015,0 hPa 0,0 mm 3,1 km/h (1 Bft) O-NO 68 ° 0 min 0,000 mm 0,0 UV-I 0 W/m² 0,2 °C 1,2 °C 4,8 km/h (1 Bft)
20.11.2019 07:17 1,2 °C 93 % 1015,0 hPa 0,0 mm 2,1 km/h (1 Bft) O-NO 68 ° 0 min 0,000 mm 0,0 UV-I 0 W/m² 0,2 °C 1,2 °C 3,2 km/h (1 Bft)
20.11.2019 07:18 1,2 °C 93 % 1015,0 hPa 0,0 mm 2,9 km/h (1 Bft) O-NO 68 ° 0 min 0,000 mm 0,0 UV-I 0 W/m² 0,2 °C 1,2 °C 4,8 km/h (1 Bft)
20.11.2019 07:19 1,2 °C 93 % 1015,0 hPa 0,0 mm 0,7 km/h (0 Bft) O-NO 68 ° 0 min 0,000 mm 0,0 UV-I 0 W/m² 0,2 °C 1,2 °C 1,6 km/h (1 Bft)
20.11.2019 07:20 1,2 °C 93 % 1015,0 hPa 0,0 mm 0,5 km/h (0 Bft) O-NO 68 ° 0 min 0,000 mm 0,0 UV-I 0 W/m² 0,2 °C 1,2 °C 1,6 km/h (1 Bft)
20.11.2019 07:21 1,2 °C 93 % 1015,0 hPa 0,0 mm 0,3 km/h (0 Bft) O-NO 68 ° 0 min 0,000 mm 0,0 UV-I 0 W/m² 0,2 °C 1,2 °C 1,6 km/h (1 Bft)
20.11.2019 07:22 1,2 °C 93 % 1015,0 hPa 0,0 mm 3,8 km/h (1 Bft) O-NO 68 ° 0 min 0,000 mm 0,0 UV-I 0 W/m² 0,2 °C 1,2 °C 6,4 km/h (2 Bft)
20.11.2019 07:23 1,2 °C 93 % 1014,9 hPa 0,0 mm 2,3 km/h (1 Bft) O-NO 68 ° 0 min 0,000 mm 0,0 UV-I 0 W/m² 0,2 °C 1,2 °C 4,8 km/h (1 Bft)
20.11.2019 07:24 1,2 °C 93 % 1015,0 hPa 0,0 mm 1,8 km/h (1 Bft) O-NO 68 ° 0 min 0,000 mm 0,0 UV-I 0 W/m² 0,2 °C 1,2 °C 3,2 km/h (1 Bft)
20.11.2019 07:25 1,2 °C 93 % 1014,9 hPa 0,0 mm 0,3 km/h (0 Bft) O-NO 68 ° 0 min 0,000 mm 0,0 UV-I 0 W/m² 0,2 °C 1,2 °C 1,6 km/h (1 Bft)
20.11.2019 07:26 1,2 °C 93 % 1014,9 hPa 0,0 mm 0,0 km/h (0 Bft) O-NO 68 ° 0 min 0,000 mm 0,0 UV-I 0 W/m² 0,2 °C 1,2 °C 0,0 km/h (0 Bft)
20.11.2019 07:27 1,2 °C 93 % 1014,9 hPa 0,0 mm 0,1 km/h (0 Bft) O-NO 68 ° 0 min 0,000 mm 0,0 UV-I 0 W/m² 0,2 °C 1,2 °C 1,6 km/h (1 Bft)
20.11.2019 07:28 1,1 °C 93 % 1014,9 hPa 0,0 mm 0,0 km/h (0 Bft) O-NO 68 ° 0 min 0,000 mm 0,0 UV-I 0 W/m² 0,1 °C 1,1 °C 0,0 km/h (0 Bft)
20.11.2019 07:29 1,2 °C 93 % 1014,9 hPa 0,0 mm 0,0 km/h (0 Bft) O-NO 68 ° 0 min 0,000 mm 0,0 UV-I 0 W/m² 0,2 °C 1,2 °C 0,0 km/h (0 Bft)
20.11.2019 07:30 1,2 °C 93 % 1014,9 hPa 0,0 mm 0,9 km/h (0 Bft) O-NO 68 ° 0 min 0,000 mm 0,0 UV-I 0 W/m² 0,2 °C 1,2 °C 1,6 km/h (1 Bft)
20.11.2019 07:31 1,2 °C 93 % 1014,9 hPa 0,0 mm 1,4 km/h (1 Bft) O-NO 68 ° 0 min 0,000 mm 0,0 UV-I 0 W/m² 0,2 °C 1,2 °C 3,2 km/h (1 Bft)
20.11.2019 07:32 1,1 °C 93 % 1014,9 hPa 0,0 mm 1,9 km/h (1 Bft) O-NO 68 ° 0 min 0,000 mm 0,0 UV-I 0 W/m² 0,1 °C 1,1 °C 3,2 km/h (1 Bft)
20.11.2019 07:33 1,2 °C 93 % 1015,0 hPa 0,0 mm 1,2 km/h (1 Bft) O-NO 68 ° 0 min 0,000 mm 0,0 UV-I 0 W/m² 0,2 °C 1,2 °C 1,6 km/h (1 Bft)
20.11.2019 07:34 1,2 °C 93 % 1014,9 hPa 0,0 mm 0,0 km/h (0 Bft) O-NO 68 ° 0 min 0,000 mm 0,0 UV-I 0 W/m² 0,2 °C 1,2 °C 0,0 km/h (0 Bft)
20.11.2019 07:35 1,2 °C 93 % 1014,9 hPa 0,0 mm 0,0 km/h (0 Bft) O-NO 68 ° 0 min 0,000 mm 0,0 UV-I 0 W/m² 0,2 °C 1,2 °C 0,0 km/h (0 Bft)
20.11.2019 07:36 1,2 °C 93 % 1014,9 hPa 0,0 mm 0,0 km/h (0 Bft) O-NO 68 ° 0 min 0,000 mm 0,0 UV-I 0 W/m² 0,2 °C 1,2 °C 0,0 km/h (0 Bft)
20.11.2019 07:37 1,2 °C 93 % 1014,9 hPa 0,0 mm 0,0 km/h (0 Bft) O-NO 68 ° 0 min 0,000 mm 0,0 UV-I 0 W/m² 0,2 °C 1,2 °C 0,0 km/h (0 Bft)
20.11.2019 07:38 1,2 °C 93 % 1014,9 hPa 0,0 mm 0,0 km/h (0 Bft) O-NO 68 ° 0 min 0,000 mm 0,0 UV-I 0 W/m² 0,2 °C 1,2 °C 0,0 km/h (0 Bft)
20.11.2019 07:39 1,2 °C 93 % 1014,9 hPa 0,0 mm 0,0 km/h (0 Bft) O-NO 68 ° 0 min 0,000 mm 0,0 UV-I 0 W/m² 0,2 °C 1,2 °C 0,0 km/h (0 Bft)
20.11.2019 07:40 1,1 °C 93 % 1014,9 hPa 0,0 mm 0,0 km/h (0 Bft) O-NO 68 ° 0 min 0,000 mm 0,0 UV-I 0 W/m² 0,1 °C 1,1 °C 0,0 km/h (0 Bft)
20.11.2019 07:41 1,2 °C 93 % 1014,9 hPa 0,0 mm 2,2 km/h (1 Bft) O-NO 68 ° 0 min 0,000 mm 0,0 UV-I 5 W/m² 0,2 °C 1,2 °C 4,8 km/h (1 Bft)
20.11.2019 07:42 1,2 °C 93 % 1014,9 hPa 0,0 mm 0,4 km/h (0 Bft) O-NO 68 ° 0 min 0,000 mm 0,0 UV-I 5 W/m² 0,2 °C 1,2 °C 1,6 km/h (1 Bft)
20.11.2019 07:43 1,2 °C 93 % 1014,9 hPa 0,0 mm 0,1 km/h (0 Bft) O-NO 68 ° 0 min 0,000 mm 0,0 UV-I 5 W/m² 0,2 °C 1,2 °C 1,6 km/h (1 Bft)
20.11.2019 07:44 1,2 °C 93 % 1014,9 hPa 0,0 mm 1,7 km/h (1 Bft) O-NO 68 ° 0 min 0,000 mm 0,0 UV-I 5 W/m² 0,2 °C 1,2 °C 3,2 km/h (1 Bft)
20.11.2019 07:45 1,2 °C 93 % 1014,9 hPa 0,0 mm 2,4 km/h (1 Bft) O-NO 68 ° 0 min 0,000 mm 0,0 UV-I 7 W/m² 0,2 °C 1,2 °C 3,2 km/h (1 Bft)
20.11.2019 07:46 1,2 °C 93 % 1014,9 hPa 0,0 mm 1,7 km/h (1 Bft) O-NO 68 ° 0 min 0,000 mm 0,0 UV-I 7 W/m² 0,2 °C 1,2 °C 3,2 km/h (1 Bft)
20.11.2019 07:47 1,2 °C 93 % 1014,9 hPa 0,0 mm 0,0 km/h (0 Bft) O-NO 68 ° 0 min 0,000 mm 0,0 UV-I 7 W/m² 0,2 °C 1,2 °C 0,0 km/h (0 Bft)
20.11.2019 07:48 1,2 °C 93 % 1014,9 hPa 0,0 mm 0,0 km/h (0 Bft) O-NO 68 ° 0 min 0,000 mm 0,0 UV-I 7 W/m² 0,2 °C 1,2 °C 0,0 km/h (0 Bft)
20.11.2019 07:49 1,2 °C 93 % 1014,8 hPa 0,0 mm 0,0 km/h (0 Bft) O-NO 68 ° 0 min 0,000 mm 0,0 UV-I 9 W/m² 0,2 °C 1,2 °C 0,0 km/h (0 Bft)
20.11.2019 07:50 1,2 °C 93 % 1014,8 hPa 0,0 mm 0,0 km/h (0 Bft) O-NO 68 ° 0 min 0,000 mm 0,0 UV-I 9 W/m² 0,2 °C 1,2 °C 0,0 km/h (0 Bft)
20.11.2019 07:51 1,2 °C 93 % 1014,9 hPa 0,0 mm 0,0 km/h (0 Bft) O-NO 68 ° 0 min 0,000 mm 0,0 UV-I 9 W/m² 0,2 °C 1,2 °C 0,0 km/h (0 Bft)
20.11.2019 07:52 1,2 °C 93 % 1014,9 hPa 0,0 mm 0,0 km/h (0 Bft) O-NO 68 ° 0 min 0,000 mm 0,0 UV-I 9 W/m² 0,2 °C 1,2 °C 0,0 km/h (0 Bft)
20.11.2019 07:53 1,2 °C 93 % 1014,9 hPa 0,0 mm 0,0 km/h (0 Bft) O-NO 68 ° 0 min 0,000 mm 0,0 UV-I 9 W/m² 0,2 °C 1,2 °C 0,0 km/h (0 Bft)
20.11.2019 07:54 1,2 °C 93 % 1014,9 hPa 0,0 mm 1,8 km/h (1 Bft) O-NO 68 ° 0 min 0,000 mm 0,0 UV-I 11 W/m² 0,2 °C 1,2 °C 3,2 km/h (1 Bft)
20.11.2019 07:55 1,2 °C 94 % 1014,9 hPa 0,0 mm 2,4 km/h (1 Bft) O-NO 68 ° 0 min 0,000 mm 0,0 UV-I 11 W/m² 0,3 °C 1,2 °C 3,2 km/h (1 Bft)
20.11.2019 07:56 1,2 °C 93 % 1014,9 hPa 0,0 mm 1,3 km/h (1 Bft) O-NO 68 ° 0 min 0,000 mm 0,0 UV-I 11 W/m² 0,2 °C 1,2 °C 3,2 km/h (1 Bft)
20.11.2019 07:57 1,2 °C 93 % 1014,9 hPa 0,0 mm 0,0 km/h (0 Bft) O-NO 68 ° 0 min 0,000 mm 0,0 UV-I 11 W/m² 0,2 °C 1,2 °C 0,0 km/h (0 Bft)
20.11.2019 07:58 1,2 °C 93 % 1015,0 hPa 0,0 mm 0,0 km/h (0 Bft) O-NO 68 ° 0 min 0,000 mm 0,0 UV-I 12 W/m² 0,2 °C 1,2 °C 0,0 km/h (0 Bft)
20.11.2019 07:59 1,2 °C 94 % 1015,0 hPa 0,0 mm 0,0 km/h (0 Bft) O-NO 68 ° 0 min 0,000 mm 0,0 UV-I 14 W/m² 0,3 °C 1,2 °C 0,0 km/h (0 Bft)
20.11.2019 08:00 1,2 °C 93 % 1015,0 hPa 0,0 mm 0,0 km/h (0 Bft) O-NO 68 ° 0 min 0,000 mm 0,0 UV-I 16 W/m² 0,2 °C 1,2 °C 0,0 km/h (0 Bft)
20.11.2019 08:01 1,2 °C 93 % 1015,0 hPa 0,0 mm 1,4 km/h (1 Bft) O-NO 69 ° 0 min 0,000 mm 0,0 UV-I 16 W/m² 0,2 °C 1,2 °C 4,8 km/h (1 Bft)
20.11.2019 08:02 1,2 °C 94 % 1015,0 hPa 0,0 mm 2,5 km/h (1 Bft) O-NO 69 ° 0 min 0,000 mm 0,0 UV-I 16 W/m² 0,3 °C 1,2 °C 4,8 km/h (1 Bft)
20.11.2019 08:03 1,2 °C 93 % 1015,0 hPa 0,0 mm 2,8 km/h (1 Bft) O-NO 69 ° 0 min 0,000 mm 0,0 UV-I 16 W/m² 0,2 °C 1,2 °C 4,8 km/h (1 Bft)
20.11.2019 08:04 1,2 °C 94 % 1015,1 hPa 0,0 mm 2,6 km/h (1 Bft) O-NO 69 ° 0 min 0,000 mm 0,0 UV-I 16 W/m² 0,3 °C 1,2 °C 3,2 km/h (1 Bft)
20.11.2019 08:05 1,2 °C 94 % 1015,1 hPa 0,0 mm 3,6 km/h (1 Bft) O-NO 69 ° 0 min 0,000 mm 0,0 UV-I 14 W/m² 0,3 °C 1,2 °C 4,8 km/h (1 Bft)
20.11.2019 08:06 1,2 °C 94 % 1015,1 hPa 0,0 mm 2,3 km/h (1 Bft) O-NO 69 ° 0 min 0,000 mm 0,0 UV-I 14 W/m² 0,3 °C 1,2 °C 4,8 km/h (1 Bft)
20.11.2019 08:07 1,2 °C 94 % 1015,1 hPa 0,0 mm 1,7 km/h (1 Bft) O-NO 69 ° 0 min 0,000 mm 0,0 UV-I 16 W/m² 0,3 °C 1,2 °C 3,2 km/h (1 Bft)
20.11.2019 08:08 1,2 °C 94 % 1015,1 hPa 0,0 mm 2,4 km/h (1 Bft) O-NO 69 ° 0 min 0,000 mm 0,0 UV-I 18 W/m² 0,3 °C 1,2 °C 3,2 km/h (1 Bft)
20.11.2019 08:09 1,2 °C 94 % 1015,1 hPa 0,0 mm 3,2 km/h (1 Bft) O-NO 69 ° 0 min 0,000 mm 0,0 UV-I 19 W/m² 0,3 °C 1,2 °C 4,8 km/h (1 Bft)
20.11.2019 08:10 1,2 °C 94 % 1015,1 hPa 0,0 mm 0,5 km/h (0 Bft) O-NO 69 ° 0 min 0,000 mm 0,0 UV-I 21 W/m² 0,3 °C 1,2 °C 1,6 km/h (1 Bft)
20.11.2019 08:11 1,2 °C 94 % 1015,1 hPa 0,0 mm 3,2 km/h (1 Bft) O-NO 69 ° 0 min 0,000 mm 0,0 UV-I 19 W/m² 0,3 °C 1,2 °C 4,8 km/h (1 Bft)
20.11.2019 08:12 1,2 °C 94 % 1015,1 hPa 0,0 mm 2,4 km/h (1 Bft) O-NO 69 ° 0 min 0,000 mm 0,0 UV-I 18 W/m² 0,3 °C 1,2 °C 3,2 km/h (1 Bft)
20.11.2019 08:13 1,2 °C 94 % 1015,2 hPa 0,0 mm 1,9 km/h (1 Bft) O-NO 69 ° 0 min 0,000 mm 0,0 UV-I 16 W/m² 0,3 °C 1,2 °C 3,2 km/h (1 Bft)
20.11.2019 08:14 1,2 °C 94 % 1015,1 hPa 0,0 mm 3,1 km/h (1 Bft) O-NO 69 ° 0 min 0,000 mm 0,0 UV-I 16 W/m² 0,3 °C 1,2 °C 4,8 km/h (1 Bft)
20.11.2019 08:15 1,3 °C 94 % 1015,2 hPa 0,0 mm 3,8 km/h (1 Bft) O-NO 68 ° 0 min 0,000 mm 0,0 UV-I 14 W/m² 0,4 °C 1,3 °C 4,8 km/h (1 Bft)
20.11.2019 08:16 1,3 °C 94 % 1015,2 hPa 0,0 mm 2,7 km/h (1 Bft) O-NO 68 ° 0 min 0,000 mm 0,0 UV-I 14 W/m² 0,4 °C 1,3 °C 4,8 km/h (1 Bft)
20.11.2019 08:17 1,3 °C 94 % 1015,2 hPa 0,0 mm 2,0 km/h (1 Bft) O-NO 68 ° 0 min 0,000 mm 0,0 UV-I 14 W/m² 0,4 °C 1,3 °C 4,8 km/h (1 Bft)
20.11.2019 08:18 1,3 °C 94 % 1015,2 hPa 0,0 mm 2,1 km/h (1 Bft) O-NO 68 ° 0 min 0,000 mm 0,0 UV-I 16 W/m² 0,4 °C 1,3 °C 3,2 km/h (1 Bft)
20.11.2019 08:19 1,3 °C 94 % 1015,2 hPa 0,0 mm 1,7 km/h (1 Bft) O-NO 68 ° 0 min 0,000 mm 0,0 UV-I 16 W/m² 0,4 °C 1,3 °C 3,2 km/h (1 Bft)
20.11.2019 08:20 1,3 °C 94 % 1015,2 hPa 0,0 mm 3,3 km/h (1 Bft) O-NO 68 ° 0 min 0,000 mm 0,0 UV-I 14 W/m² 0,4 °C 1,3 °C 4,8 km/h (1 Bft)
20.11.2019 08:21 1,3 °C 94 % 1015,2 hPa 0,0 mm 3,4 km/h (1 Bft) O-NO 67 ° 0 min 0,000 mm 0,0 UV-I 14 W/m² 0,4 °C 1,3 °C 4,8 km/h (1 Bft)
20.11.2019 08:22 1,3 °C 94 % 1015,2 hPa 0,0 mm 1,9 km/h (1 Bft) O-NO 67 ° 0 min 0,000 mm 0,0 UV-I 16 W/m² 0,4 °C 1,3 °C 3,2 km/h (1 Bft)
20.11.2019 08:23 1,3 °C 94 % 1015,1 hPa 0,0 mm 0,0 km/h (0 Bft) O-NO 67 ° 0 min 0,000 mm 0,0 UV-I 16 W/m² 0,4 °C 1,3 °C 0,0 km/h (0 Bft)
20.11.2019 08:24 1,3 °C 94 % 1015,1 hPa 0,0 mm 0,8 km/h (0 Bft) O-NO 67 ° 0 min 0,000 mm 0,0 UV-I 16 W/m² 0,4 °C 1,3 °C 1,6 km/h (1 Bft)
20.11.2019 08:25 1,3 °C 94 % 1015,1 hPa 0,0 mm 0,3 km/h (0 Bft) O-NO 67 ° 0 min 0,000 mm 0,0 UV-I 18 W/m² 0,4 °C 1,3 °C 3,2 km/h (1 Bft)
20.11.2019 08:26 1,3 °C 94 % 1015,1 hPa 0,0 mm 3,2 km/h (1 Bft) O-NO 67 ° 0 min 0,000 mm 0,0 UV-I 19 W/m² 0,4 °C 1,3 °C 4,8 km/h (1 Bft)
20.11.2019 08:27 1,3 °C 94 % 1015,1 hPa 0,0 mm 1,6 km/h (1 Bft) O-NO 67 ° 0 min 0,000 mm 0,0 UV-I 19 W/m² 0,4 °C 1,3 °C 3,2 km/h (1 Bft)
20.11.2019 08:28 1,3 °C 94 % 1015,1 hPa 0,0 mm 3,5 km/h (1 Bft) O-NO 67 ° 0 min 0,000 mm 0,0 UV-I 19 W/m² 0,4 °C 1,3 °C 4,8 km/h (1 Bft)
20.11.2019 08:29 1,3 °C 94 % 1015,1 hPa 0,0 mm 3,2 km/h (1 Bft) O-NO 67 ° 0 min 0,000 mm 0,0 UV-I 19 W/m² 0,4 °C 1,3 °C 4,8 km/h (1 Bft)
20.11.2019 08:30 1,3 °C 94 % 1015,1 hPa 0,0 mm 3,2 km/h (1 Bft) O-NO 67 ° 0 min 0,000 mm 0,0 UV-I 21 W/m² 0,4 °C 1,3 °C 4,8 km/h (1 Bft)
20.11.2019 08:31 1,3 °C 94 % 1015,1 hPa 0,0 mm 1,8 km/h (1 Bft) O-NO 67 ° 0 min 0,000 mm 0,0 UV-I 21 W/m² 0,4 °C 1,3 °C 3,2 km/h (1 Bft)
20.11.2019 08:32 1,3 °C 94 % 1015,1 hPa 0,0 mm 1,3 km/h (1 Bft) O-NO 67 ° 0 min 0,000 mm 0,0 UV-I 21 W/m² 0,4 °C 1,3 °C 4,8 km/h (1 Bft)
20.11.2019 08:33 1,3 °C 94 % 1015,1 hPa 0,0 mm 3,4 km/h (1 Bft) O-NO 67 ° 0 min 0,000 mm 0,0 UV-I 21 W/m² 0,4 °C 1,3 °C 4,8 km/h (1 Bft)
20.11.2019 08:34 1,3 °C 94 % 1015,1 hPa 0,0 mm 1,3 km/h (1 Bft) O-NO 67 ° 0 min 0,000 mm 0,0 UV-I 21 W/m² 0,4 °C 1,3 °C 3,2 km/h (1 Bft)
20.11.2019 08:35 1,3 °C 94 % 1015,1 hPa 0,0 mm 2,7 km/h (1 Bft) O-NO 67 ° 0 min 0,000 mm 0,0 UV-I 21 W/m² 0,4 °C 1,3 °C 6,4 km/h (2 Bft)
20.11.2019 08:36 1,3 °C 94 % 1015,1 hPa 0,0 mm 3,6 km/h (1 Bft) O-NO 67 ° 0 min 0,000 mm 0,0 UV-I 19 W/m² 0,4 °C 1,3 °C 4,8 km/h (1 Bft)
20.11.2019 08:37 1,3 °C 94 % 1015,1 hPa 0,0 mm 2,4 km/h (1 Bft) O-NO 67 ° 0 min 0,000 mm 0,0 UV-I 19 W/m² 0,4 °C 1,3 °C 3,2 km/h (1 Bft)
20.11.2019 08:38 1,3 °C 94 % 1015,1 hPa 0,0 mm 1,9 km/h (1 Bft) O-NO 67 ° 0 min 0,000 mm 0,0 UV-I 18 W/m² 0,4 °C 1,3 °C 4,8 km/h (1 Bft)
20.11.2019 08:39 1,3 °C 94 % 1015,0 hPa 0,0 mm 2,7 km/h (1 Bft) O-NO 67 ° 0 min 0,000 mm 0,0 UV-I 18 W/m² 0,4 °C 1,3 °C 4,8 km/h (1 Bft)
20.11.2019 08:40 1,3 °C 94 % 1015,0 hPa 0,0 mm 2,6 km/h (1 Bft) O-NO 67 ° 0 min 0,000 mm 0,0 UV-I 18 W/m² 0,4 °C 1,3 °C 4,8 km/h (1 Bft)
20.11.2019 08:41 1,3 °C 94 % 1015,0 hPa 0,0 mm 2,4 km/h (1 Bft) O-NO 67 ° 0 min 0,000 mm 0,0 UV-I 18 W/m² 0,4 °C 1,3 °C 3,2 km/h (1 Bft)
20.11.2019 08:42 1,3 °C 94 % 1015,0 hPa 0,0 mm 0,8 km/h (0 Bft) O-NO 67 ° 0 min 0,000 mm 0,0 UV-I 18 W/m² 0,4 °C 1,3 °C 3,2 km/h (1 Bft)
20.11.2019 08:43 1,3 °C 94 % 1015,0 hPa 0,0 mm 2,6 km/h (1 Bft) O-NO 67 ° 0 min 0,000 mm 0,0 UV-I 18 W/m² 0,4 °C 1,3 °C 3,2 km/h (1 Bft)
20.11.2019 08:44 1,3 °C 94 % 1015,0 hPa 0,0 mm 0,1 km/h (0 Bft) O-NO 67 ° 0 min 0,000 mm 0,0 UV-I 18 W/m² 0,4 °C 1,3 °C 1,6 km/h (1 Bft)
20.11.2019 08:45 1,3 °C 94 % 1015,0 hPa 0,0 mm 1,9 km/h (1 Bft) O-NO 67 ° 0 min 0,000 mm 0,0 UV-I 16 W/m² 0,4 °C 1,3 °C 3,2 km/h (1 Bft)
20.11.2019 08:46 1,3 °C 94 % 1015,0 hPa 0,0 mm 2,1 km/h (1 Bft) O-NO 67 ° 0 min 0,000 mm 0,0 UV-I 16 W/m² 0,4 °C 1,3 °C 3,2 km/h (1 Bft)
20.11.2019 08:47 1,3 °C 94 % 1015,0 hPa 0,0 mm 0,1 km/h (0 Bft) O-NO 67 ° 0 min 0,000 mm 0,0 UV-I 16 W/m² 0,4 °C 1,3 °C 1,6 km/h (1 Bft)
20.11.2019 08:48 1,3 °C 94 % 1015,0 hPa 0,0 mm 0,0 km/h (0 Bft) O-NO 67 ° 0 min 0,000 mm 0,0 UV-I 16 W/m² 0,4 °C 1,3 °C 0,0 km/h (0 Bft)
20.11.2019 08:49 1,3 °C 94 % 1015,0 hPa 0,0 mm 0,0 km/h (0 Bft) O-NO 67 ° 0 min 0,000 mm 0,0 UV-I 18 W/m² 0,4 °C 1,3 °C 0,0 km/h (0 Bft)
20.11.2019 08:50 1,3 °C 94 % 1015,0 hPa 0,0 mm 3,4 km/h (1 Bft) O-NO 67 ° 0 min 0,000 mm 0,0 UV-I 18 W/m² 0,4 °C 1,3 °C 4,8 km/h (1 Bft)
20.11.2019 08:51 1,3 °C 94 % 1015,0 hPa 0,0 mm 4,2 km/h (1 Bft) O-NO 75 ° 0 min 0,000 mm 0,0 UV-I 18 W/m² 0,4 °C 1,3 °C 6,4 km/h (2 Bft)
20.11.2019 08:52 1,3 °C 94 % 1015,0 hPa 0,0 mm 5,3 km/h (1 Bft) O-NO 72 ° 0 min 0,000 mm 0,0 UV-I 19 W/m² 0,4 °C -0,2 °C 6,4 km/h (2 Bft)
20.11.2019 08:53 1,3 °C 94 % 1015,0 hPa 0,0 mm 3,2 km/h (1 Bft) O-NO 72 ° 0 min 0,000 mm 0,0 UV-I 19 W/m² 0,4 °C 1,3 °C 4,8 km/h (1 Bft)
20.11.2019 08:54 1,3 °C 94 % 1015,0 hPa 0,0 mm 3,4 km/h (1 Bft) O 89 ° 0 min 0,000 mm 0,0 UV-I 19 W/m² 0,4 °C 1,3 °C 6,4 km/h (2 Bft)
20.11.2019 08:55 1,3 °C 94 % 1015,0 hPa 0,0 mm 4,3 km/h (1 Bft) O 88 ° 0 min 0,000 mm 0,0 UV-I 21 W/m² 0,4 °C 1,3 °C 6,4 km/h (2 Bft)
20.11.2019 08:56 1,3 °C 94 % 1015,0 hPa 0,0 mm 4,0 km/h (1 Bft) O 88 ° 0 min 0,000 mm 0,0 UV-I 23 W/m² 0,4 °C 1,3 °C 6,4 km/h (2 Bft)
20.11.2019 08:57 1,3 °C 94 % 1015,0 hPa 0,0 mm 3,5 km/h (1 Bft) O 88 ° 0 min 0,000 mm 0,0 UV-I 26 W/m² 0,4 °C 1,3 °C 4,8 km/h (1 Bft)
20.11.2019 08:58 1,3 °C 94 % 1015,0 hPa 0,0 mm 1,0 km/h (0 Bft) O 88 ° 0 min 0,000 mm 0,0 UV-I 26 W/m² 0,4 °C 1,3 °C 3,2 km/h (1 Bft)
20.11.2019 08:59 1,3 °C 94 % 1015,0 hPa 0,0 mm 3,3 km/h (1 Bft) O 88 ° 0 min 0,000 mm 0,0 UV-I 26 W/m² 0,4 °C 1,3 °C 4,8 km/h (1 Bft)
20.11.2019 09:00 1,3 °C 94 % 1015,0 hPa 0,0 mm 1,5 km/h (1 Bft) O 88 ° 0 min 0,000 mm 0,0 UV-I 25 W/m² 0,4 °C 1,3 °C 4,8 km/h (1 Bft)
20.11.2019 09:01 1,3 °C 94 % 1014,9 hPa 0,0 mm 1,2 km/h (1 Bft) O 88 ° 0 min 0,000 mm 0,0 UV-I 25 W/m² 0,4 °C 1,3 °C 3,2 km/h (1 Bft)
20.11.2019 09:02 1,3 °C 94 % 1014,9 hPa 0,0 mm 0,4 km/h (0 Bft) O 88 ° 0 min 0,000 mm 0,0 UV-I 26 W/m² 0,4 °C 1,3 °C 3,2 km/h (1 Bft)
20.11.2019 09:03 1,4 °C 94 % 1014,9 hPa 0,0 mm 0,9 km/h (0 Bft) O 88 ° 0 min 0,000 mm 0,0 UV-I 25 W/m² 0,5 °C 1,4 °C 3,2 km/h (1 Bft)
20.11.2019 09:04 1,4 °C 94 % 1014,9 hPa 0,0 mm 0,0 km/h (0 Bft) O 88 ° 0 min 0,000 mm 0,0 UV-I 23 W/m² 0,5 °C 1,4 °C 0,0 km/h (0 Bft)
20.11.2019 09:05 1,4 °C 94 % 1014,9 hPa 0,0 mm 1,1 km/h (1 Bft) O 88 ° 0 min 0,000 mm 0,0 UV-I 23 W/m² 0,5 °C 1,4 °C 3,2 km/h (1 Bft)
20.11.2019 09:06 1,4 °C 94 % 1014,9 hPa 0,0 mm 3,7 km/h (1 Bft) O 88 ° 0 min 0,000 mm 0,0 UV-I 25 W/m² 0,5 °C 1,4 °C 4,8 km/h (1 Bft)
20.11.2019 09:07 1,4 °C 94 % 1014,9 hPa 0,0 mm 1,3 km/h (1 Bft) O 88 ° 0 min 0,000 mm 0,0 UV-I 26 W/m² 0,5 °C 1,4 °C 3,2 km/h (1 Bft)
20.11.2019 09:08 1,4 °C 94 % 1014,8 hPa 0,0 mm 1,3 km/h (1 Bft) O 88 ° 0 min 0,000 mm 0,0 UV-I 28 W/m² 0,5 °C 1,4 °C 3,2 km/h (1 Bft)
20.11.2019 09:09 1,4 °C 94 % 1014,8 hPa 0,0 mm 1,1 km/h (1 Bft) O 88 ° 0 min 0,000 mm 0,0 UV-I 30 W/m² 0,5 °C 1,4 °C 3,2 km/h (1 Bft)
20.11.2019 09:10 1,4 °C 94 % 1014,8 hPa 0,0 mm 0,0 km/h (0 Bft) O 88 ° 0 min 0,000 mm 0,0 UV-I 32 W/m² 0,5 °C 1,4 °C 0,0 km/h (0 Bft)
20.11.2019 09:11 1,4 °C 94 % 1014,8 hPa 0,0 mm 2,3 km/h (1 Bft) O 88 ° 0 min 0,000 mm 0,0 UV-I 32 W/m² 0,5 °C 1,4 °C 4,8 km/h (1 Bft)
20.11.2019 09:12 1,4 °C 94 % 1014,7 hPa 0,0 mm 4,0 km/h (1 Bft) O 88 ° 0 min 0,000 mm 0,0 UV-I 33 W/m² 0,5 °C 1,4 °C 6,4 km/h (2 Bft)
20.11.2019 09:13 1,4 °C 94 % 1014,7 hPa 0,0 mm 2,3 km/h (1 Bft) O 88 ° 0 min 0,000 mm 0,0 UV-I 33 W/m² 0,5 °C 1,4 °C 3,2 km/h (1 Bft)
20.11.2019 09:14 1,4 °C 94 % 1014,7 hPa 0,0 mm 3,7 km/h (1 Bft) O 88 ° 0 min 0,000 mm 0,0 UV-I 33 W/m² 0,5 °C 1,4 °C 6,4 km/h (2 Bft)
20.11.2019 09:15 1,4 °C 94 % 1014,7 hPa 0,0 mm 3,4 km/h (1 Bft) O 88 ° 0 min 0,000 mm 0,0 UV-I 33 W/m² 0,5 °C 1,4 °C 4,8 km/h (1 Bft)
20.11.2019 09:16 1,4 °C 94 % 1014,7 hPa 0,0 mm 1,8 km/h (1 Bft) O 88 ° 0 min 0,000 mm 0,0 UV-I 32 W/m² 0,5 °C 1,4 °C 3,2 km/h (1 Bft)
20.11.2019 09:17 1,4 °C 94 % 1014,7 hPa 0,0 mm 1,6 km/h (1 Bft) O 88 ° 0 min 0,000 mm 0,0 UV-I 32 W/m² 0,5 °C 1,4 °C 3,2 km/h (1 Bft)
20.11.2019 09:18 1,4 °C 94 % 1014,7 hPa 0,0 mm 3,0 km/h (1 Bft) O 88 ° 0 min 0,000 mm 0,0 UV-I 33 W/m² 0,5 °C 1,4 °C 3,2 km/h (1 Bft)
20.11.2019 09:19 1,4 °C 94 % 1014,7 hPa 0,0 mm 1,9 km/h (1 Bft) O 88 ° 0 min 0,000 mm 0,0 UV-I 33 W/m² 0,5 °C 1,4 °C 3,2 km/h (1 Bft)
20.11.2019 09:20 1,4 °C 94 % 1014,7 hPa 0,0 mm 0,3 km/h (0 Bft) O 88 ° 0 min 0,000 mm 0,0 UV-I 33 W/m² 0,5 °C 1,4 °C 3,2 km/h (1 Bft)
20.11.2019 09:21 1,4 °C 94 % 1014,7 hPa 0,0 mm 1,5 km/h (1 Bft) O 88 ° 0 min 0,000 mm 0,0 UV-I 33 W/m² 0,5 °C 1,4 °C 3,2 km/h (1 Bft)
20.11.2019 09:22 1,4 °C 94 % 1014,7 hPa 0,0 mm 0,1 km/h (0 Bft) O 88 ° 0 min 0,000 mm 0,0 UV-I 33 W/m² 0,5 °C 1,4 °C 1,6 km/h (1 Bft)
20.11.2019 09:23 1,4 °C 94 % 1014,7 hPa 0,0 mm 0,0 km/h (0 Bft) O 88 ° 0 min 0,000 mm 0,0 UV-I 35 W/m² 0,5 °C 1,4 °C 0,0 km/h (0 Bft)
20.11.2019 09:24 1,4 °C 94 % 1014,8 hPa 0,0 mm 0,0 km/h (0 Bft) O 88 ° 0 min 0,000 mm 0,0 UV-I 35 W/m² 0,5 °C 1,4 °C 0,0 km/h (0 Bft)
20.11.2019 09:25 1,5 °C 94 % 1014,7 hPa 0,0 mm 0,0 km/h (0 Bft) O 88 ° 0 min 0,000 mm 0,0 UV-I 35 W/m² 0,6 °C 1,5 °C 0,0 km/h (0 Bft)
20.11.2019 09:26 1,5 °C 94 % 1014,7 hPa 0,0 mm 0,0 km/h (0 Bft) O 88 ° 0 min 0,000 mm 0,0 UV-I 35 W/m² 0,6 °C 1,5 °C 0,0 km/h (0 Bft)
20.11.2019 09:27 1,5 °C 94 % 1014,8 hPa 0,0 mm 3,4 km/h (1 Bft) O 88 ° 0 min 0,000 mm 0,0 UV-I 37 W/m² 0,6 °C 1,5 °C 4,8 km/h (1 Bft)
20.11.2019 09:28 1,5 °C 94 % 1014,7 hPa 0,0 mm 3,6 km/h (1 Bft) O 88 ° 0 min 0,000 mm 0,0 UV-I 39 W/m² 0,6 °C 1,5 °C 4,8 km/h (1 Bft)
20.11.2019 09:29 1,4 °C 94 % 1014,7 hPa 0,0 mm 2,7 km/h (1 Bft) O 88 ° 0 min 0,000 mm 0,0 UV-I 40 W/m² 0,5 °C 1,4 °C 4,8 km/h (1 Bft)
20.11.2019 09:30 1,5 °C 94 % 1014,6 hPa 0,0 mm 1,0 km/h (0 Bft) O 88 ° 0 min 0,000 mm 0,0 UV-I 39 W/m² 0,6 °C 1,5 °C 3,2 km/h (1 Bft)
20.11.2019 09:31 1,5 °C 94 % 1014,7 hPa 0,0 mm 2,7 km/h (1 Bft) O 88 ° 0 min 0,000 mm 0,0 UV-I 37 W/m² 0,6 °C 1,5 °C 4,8 km/h (1 Bft)
20.11.2019 09:32 1,5 °C 94 % 1014,7 hPa 0,0 mm 2,4 km/h (1 Bft) O 88 ° 0 min 0,000 mm 0,0 UV-I 39 W/m² 0,6 °C 1,5 °C 3,2 km/h (1 Bft)
20.11.2019 09:33 1,5 °C 94 % 1014,7 hPa 0,0 mm 0,8 km/h (0 Bft) O 88 ° 0 min 0,000 mm 0,0 UV-I 39 W/m² 0,6 °C 1,5 °C 3,2 km/h (1 Bft)
20.11.2019 09:34 1,5 °C 94 % 1014,7 hPa 0,0 mm 2,0 km/h (1 Bft) O 88 ° 0 min 0,000 mm 0,0 UV-I 39 W/m² 0,6 °C 1,5 °C 4,8 km/h (1 Bft)
20.11.2019 09:35 1,5 °C 94 % 1014,7 hPa 0,0 mm 0,0 km/h (0 Bft) O 88 ° 0 min 0,000 mm 0,0 UV-I 40 W/m² 0,6 °C 1,5 °C 0,0 km/h (0 Bft)
20.11.2019 09:36 1,5 °C 94 % 1014,7 hPa 0,0 mm 3,8 km/h (1 Bft) O 88 ° 0 min 0,000 mm 0,0 UV-I 42 W/m² 0,6 °C 1,5 °C 6,4 km/h (2 Bft)
20.11.2019 09:37 1,5 °C 94 % 1014,7 hPa 0,0 mm 3,6 km/h (1 Bft) O 88 ° 0 min 0,000 mm 0,0 UV-I 42 W/m² 0,6 °C 1,5 °C 4,8 km/h (1 Bft)
20.11.2019 09:38 1,5 °C 94 % 1014,7 hPa 0,0 mm 3,1 km/h (1 Bft) O 88 ° 0 min 0,000 mm 0,0 UV-I 40 W/m² 0,6 °C 1,5 °C 4,8 km/h (1 Bft)
20.11.2019 09:39 1,5 °C 94 % 1014,7 hPa 0,0 mm 2,0 km/h (1 Bft) O 88 ° 0 min 0,000 mm 0,0 UV-I 40 W/m² 0,6 °C 1,5 °C 3,2 km/h (1 Bft)
20.11.2019 09:40 1,5 °C 94 % 1014,7 hPa 0,0 mm 1,2 km/h (1 Bft) O 88 ° 0 min 0,000 mm 0,0 UV-I 42 W/m² 0,6 °C 1,5 °C 3,2 km/h (1 Bft)
20.11.2019 09:41 1,5 °C 94 % 1014,7 hPa 0,0 mm 1,9 km/h (1 Bft) O 88 ° 0 min 0,000 mm 0,0 UV-I 42 W/m² 0,6 °C 1,5 °C 3,2 km/h (1 Bft)
20.11.2019 09:42 1,6 °C 94 % 1014,7 hPa 0,0 mm 3,6 km/h (1 Bft) O 88 ° 0 min 0,000 mm 0,0 UV-I 42 W/m² 0,7 °C 1,6 °C 4,8 km/h (1 Bft)
20.11.2019 09:43 1,6 °C 94 % 1014,7 hPa 0,0 mm 3,6 km/h (1 Bft) O 88 ° 0 min 0,000 mm 0,0 UV-I 47 W/m² 0,7 °C 1,6 °C 4,8 km/h (1 Bft)
20.11.2019 09:44 1,5 °C 94 % 1014,7 hPa 0,0 mm 3,0 km/h (1 Bft) O 88 ° 0 min 0,000 mm 0,0 UV-I 53 W/m² 0,6 °C 1,5 °C 4,8 km/h (1 Bft)
20.11.2019 09:45 1,6 °C 94 % 1014,7 hPa 0,0 mm 2,3 km/h (1 Bft) O 88 ° 0 min 0,000 mm 0,0 UV-I 53 W/m² 0,7 °C 1,6 °C 3,2 km/h (1 Bft)
20.11.2019 09:46 1,6 °C 94 % 1014,7 hPa 0,0 mm 3,2 km/h (1 Bft) O 88 ° 0 min 0,000 mm 0,0 UV-I 51 W/m² 0,7 °C 1,6 °C 4,8 km/h (1 Bft)
20.11.2019 09:47 1,6 °C 94 % 1014,8 hPa 0,0 mm 3,1 km/h (1 Bft) O 88 ° 0 min 0,000 mm 0,0 UV-I 51 W/m² 0,7 °C 1,6 °C 4,8 km/h (1 Bft)
20.11.2019 09:48 1,6 °C 94 % 1014,7 hPa 0,0 mm 3,0 km/h (1 Bft) O 88 ° 0 min 0,000 mm 0,0 UV-I 49 W/m² 0,7 °C 1,6 °C 3,2 km/h (1 Bft)
20.11.2019 09:49 1,6 °C 94 % 1014,7 hPa 0,0 mm 4,4 km/h (1 Bft) NO 54 ° 0 min 0,000 mm 0,0 UV-I 47 W/m² 0,7 °C 1,6 °C 6,4 km/h (2 Bft)
20.11.2019 09:50 1,6 °C 94 % 1014,8 hPa 0,0 mm 5,5 km/h (1 Bft) NO 54 ° 0 min 0,000 mm 0,0 UV-I 44 W/m² 0,7 °C 0,0 °C 6,4 km/h (2 Bft)
20.11.2019 09:51 1,6 °C 94 % 1014,8 hPa 0,0 mm 4,0 km/h (1 Bft) NO 54 ° 0 min 0,000 mm 0,0 UV-I 47 W/m² 0,7 °C 1,6 °C 6,4 km/h (2 Bft)
20.11.2019 09:52 1,6 °C 94 % 1014,8 hPa 0,0 mm 3,5 km/h (1 Bft) NO 54 ° 0 min 0,000 mm 0,0 UV-I 54 W/m² 0,7 °C 1,6 °C 4,8 km/h (1 Bft)
20.11.2019 09:53 1,6 °C 94 % 1014,8 hPa 0,0 mm 2,6 km/h (1 Bft) NO 54 ° 0 min 0,000 mm 0,0 UV-I 56 W/m² 0,7 °C 1,6 °C 4,8 km/h (1 Bft)
20.11.2019 09:54 1,6 °C 94 % 1014,8 hPa 0,0 mm 3,1 km/h (1 Bft) NO 54 ° 0 min 0,000 mm 0,0 UV-I 54 W/m² 0,7 °C 1,6 °C 4,8 km/h (1 Bft)
20.11.2019 09:55 1,6 °C 94 % 1014,7 hPa 0,0 mm 0,9 km/h (0 Bft) NO 54 ° 0 min 0,000 mm 0,0 UV-I 53 W/m² 0,7 °C 1,6 °C 3,2 km/h (1 Bft)
20.11.2019 09:56 1,6 °C 94 % 1014,7 hPa 0,0 mm 0,8 km/h (0 Bft) NO 54 ° 0 min 0,000 mm 0,0 UV-I 49 W/m² 0,7 °C 1,6 °C 3,2 km/h (1 Bft)
20.11.2019 09:57 1,6 °C 94 % 1014,6 hPa 0,0 mm 2,7 km/h (1 Bft) NO 54 ° 0 min 0,000 mm 0,0 UV-I 49 W/m² 0,7 °C 1,6 °C 3,2 km/h (1 Bft)
20.11.2019 09:58 1,6 °C 94 % 1014,6 hPa 0,0 mm 4,9 km/h (1 Bft) NO 54 ° 0 min 0,000 mm 0,0 UV-I 51 W/m² 0,7 °C 0,3 °C 6,4 km/h (2 Bft)
20.11.2019 09:59 1,6 °C 94 % 1014,6 hPa 0,0 mm 1,9 km/h (1 Bft) NO 54 ° 0 min 0,000 mm 0,0 UV-I 53 W/m² 0,7 °C 1,6 °C 4,8 km/h (1 Bft)
20.11.2019 10:00 1,6 °C 94 % 1014,6 hPa 0,0 mm 4,3 km/h (1 Bft) NO 54 ° 0 min 0,000 mm 0,0 UV-I 56 W/m² 0,7 °C 1,6 °C 6,4 km/h (2 Bft)
20.11.2019 10:01 1,7 °C 94 % 1014,6 hPa 0,0 mm 4,0 km/h (1 Bft) O-NO 61 ° 0 min 0,025 mm 0,0 UV-I 67 W/m² 0,8 °C 1,7 °C 6,4 km/h (2 Bft)
20.11.2019 10:02 1,7 °C 94 % 1014,6 hPa 0,0 mm 4,0 km/h (1 Bft) O-NO 61 ° 0 min 0,000 mm 0,0 UV-I 69 W/m² 0,8 °C 1,7 °C 4,8 km/h (1 Bft)
20.11.2019 10:03 1,7 °C 94 % 1014,6 hPa 0,0 mm 4,4 km/h (1 Bft) O-NO 61 ° 0 min 0,000 mm 0,0 UV-I 69 W/m² 0,8 °C 1,7 °C 6,4 km/h (2 Bft)
20.11.2019 10:04 1,7 °C 94 % 1014,5 hPa 0,0 mm 3,3 km/h (1 Bft) O-NO 62 ° 0 min 0,000 mm 0,0 UV-I 69 W/m² 0,8 °C 1,7 °C 4,8 km/h (1 Bft)
20.11.2019 10:05 1,7 °C 94 % 1014,5 hPa 0,0 mm 1,0 km/h (0 Bft) O-NO 67 ° 0 min 0,000 mm 0,0 UV-I 72 W/m² 0,8 °C 1,7 °C 3,2 km/h (1 Bft)
20.11.2019 10:06 1,7 °C 94 % 1014,5 hPa 0,0 mm 3,3 km/h (1 Bft) O-NO 67 ° 0 min 0,000 mm 0,0 UV-I 76 W/m² 0,8 °C 1,7 °C 4,8 km/h (1 Bft)
20.11.2019 10:07 1,7 °C 94 % 1014,5 hPa 0,0 mm 3,3 km/h (1 Bft) O-NO 67 ° 0 min 0,000 mm 0,0 UV-I 79 W/m² 0,8 °C 1,7 °C 4,8 km/h (1 Bft)
20.11.2019 10:08 1,7 °C 94 % 1014,5 hPa 0,0 mm 1,7 km/h (1 Bft) O-NO 67 ° 0 min 0,000 mm 0,0 UV-I 76 W/m² 0,8 °C 1,7 °C 3,2 km/h (1 Bft)
20.11.2019 10:09 1,7 °C 94 % 1014,5 hPa 0,0 mm 2,2 km/h (1 Bft) O 82 ° 0 min 0,000 mm 0,0 UV-I 72 W/m² 0,8 °C 1,7 °C 8,0 km/h (2 Bft)
20.11.2019 10:10 1,7 °C 94 % 1014,6 hPa 0,0 mm 5,8 km/h (2 Bft) O 88 ° 0 min 0,000 mm 0,0 UV-I 67 W/m² 0,8 °C 0,0 °C 6,4 km/h (2 Bft)
20.11.2019 10:11 1,7 °C 93 % 1014,6 hPa 0,0 mm 4,2 km/h (1 Bft) O-NO 75 ° 0 min 0,000 mm 0,0 UV-I 63 W/m² 0,7 °C 1,7 °C 6,4 km/h (2 Bft)
20.11.2019 10:12 1,7 °C 93 % 1014,6 hPa 0,0 mm 3,5 km/h (1 Bft) O-NO 74 ° 0 min 0,000 mm 0,0 UV-I 62 W/m² 0,7 °C 1,7 °C 6,4 km/h (2 Bft)
20.11.2019 10:13 1,8 °C 93 % 1014,6 hPa 0,0 mm 4,7 km/h (1 Bft) O 81 ° 0 min 0,000 mm 0,0 UV-I 56 W/m² 0,8 °C 0,6 °C 6,4 km/h (2 Bft)
20.11.2019 10:14 1,7 °C 93 % 1014,6 hPa 0,0 mm 1,0 km/h (0 Bft) O 81 ° 0 min 0,000 mm 0,0 UV-I 56 W/m² 0,7 °C 1,7 °C 3,2 km/h (1 Bft)
20.11.2019 10:15 1,7 °C 93 % 1014,6 hPa 0,0 mm 1,6 km/h (1 Bft) O 81 ° 0 min 0,000 mm 0,0 UV-I 60 W/m² 0,7 °C 1,7 °C 3,2 km/h (1 Bft)
20.11.2019 10:16 1,8 °C 93 % 1014,6 hPa 0,0 mm 2,9 km/h (1 Bft) O-NO 75 ° 0 min 0,000 mm 0,0 UV-I 65 W/m² 0,8 °C 1,8 °C 4,8 km/h (1 Bft)
20.11.2019 10:17 1,8 °C 93 % 1014,6 hPa 0,0 mm 3,9 km/h (1 Bft) O 94 ° 0 min 0,000 mm 0,0 UV-I 70 W/m² 0,8 °C 1,8 °C 6,4 km/h (2 Bft)
20.11.2019 10:18 1,8 °C 93 % 1014,6 hPa 0,0 mm 5,2 km/h (1 Bft) O-NO 70 ° 0 min 0,000 mm 0,0 UV-I 74 W/m² 0,8 °C 0,4 °C 6,4 km/h (2 Bft)
20.11.2019 10:19 1,8 °C 93 % 1014,6 hPa 0,0 mm 3,8 km/h (1 Bft) O-NO 63 ° 0 min 0,000 mm 0,0 UV-I 65 W/m² 0,8 °C 1,8 °C 6,4 km/h (2 Bft)
20.11.2019 10:20 1,8 °C 93 % 1014,6 hPa 0,0 mm 3,4 km/h (1 Bft) O-NO 63 ° 0 min 0,000 mm 0,0 UV-I 63 W/m² 0,8 °C 1,8 °C 4,8 km/h (1 Bft)
20.11.2019 10:21 1,8 °C 93 % 1014,7 hPa 0,0 mm 2,9 km/h (1 Bft) O-NO 63 ° 0 min 0,000 mm 0,0 UV-I 65 W/m² 0,8 °C 1,8 °C 3,2 km/h (1 Bft)
20.11.2019 10:22 1,8 °C 93 % 1014,6 hPa 0,0 mm 2,3 km/h (1 Bft) O-NO 64 ° 0 min 0,000 mm 0,0 UV-I 70 W/m² 0,8 °C 1,8 °C 4,8 km/h (1 Bft)
20.11.2019 10:23 1,8 °C 94 % 1014,7 hPa 0,0 mm 1,8 km/h (1 Bft) O-NO 64 ° 0 min 0,000 mm 0,0 UV-I 63 W/m² 0,9 °C 1,8 °C 3,2 km/h (1 Bft)
20.11.2019 10:24 1,8 °C 94 % 1014,6 hPa 0,0 mm 4,6 km/h (1 Bft) O-NO 63 ° 0 min 0,000 mm 0,0 UV-I 60 W/m² 0,9 °C 0,6 °C 9,7 km/h (2 Bft)
20.11.2019 10:25 1,9 °C 94 % 1014,6 hPa 0,0 mm 1,7 km/h (1 Bft) O-NO 63 ° 0 min 0,000 mm 0,0 UV-I 65 W/m² 1,0 °C 1,9 °C 3,2 km/h (1 Bft)
20.11.2019 10:26 1,9 °C 94 % 1014,6 hPa 0,0 mm 3,5 km/h (1 Bft) O-NO 73 ° 0 min 0,000 mm 0,0 UV-I 65 W/m² 1,0 °C 1,9 °C 6,4 km/h (2 Bft)
20.11.2019 10:27 1,9 °C 94 % 1014,6 hPa 0,0 mm 4,3 km/h (1 Bft) O-NO 63 ° 0 min 0,000 mm 0,0 UV-I 63 W/m² 1,0 °C 1,9 °C 4,8 km/h (1 Bft)
20.11.2019 10:28 1,9 °C 93 % 1014,6 hPa 0,0 mm 3,8 km/h (1 Bft) O-NO 63 ° 0 min 0,000 mm 0,0 UV-I 62 W/m² 0,9 °C 1,9 °C 4,8 km/h (1 Bft)
20.11.2019 10:29 1,9 °C 93 % 1014,6 hPa 0,0 mm 5,0 km/h (1 Bft) NO 38 ° 0 min 0,000 mm 0,0 UV-I 62 W/m² 0,9 °C 0,6 °C 9,7 km/h (2 Bft)
20.11.2019 10:30 1,9 °C 93 % 1014,6 hPa 0,0 mm 5,5 km/h (1 Bft) O-NO 62 ° 0 min 0,000 mm 0,0 UV-I 60 W/m² 0,9 °C 0,4 °C 8,0 km/h (2 Bft)
20.11.2019 10:31 1,9 °C 93 % 1014,6 hPa 0,0 mm 2,1 km/h (1 Bft) O-NO 62 ° 0 min 0,000 mm 0,0 UV-I 62 W/m² 0,9 °C 1,9 °C 4,8 km/h (1 Bft)
20.11.2019 10:32 1,9 °C 93 % 1014,6 hPa 0,0 mm 2,7 km/h (1 Bft) O-NO 62 ° 0 min 0,000 mm 0,0 UV-I 62 W/m² 0,9 °C 1,9 °C 4,8 km/h (1 Bft)
20.11.2019 10:33 1,9 °C 93 % 1014,6 hPa 0,0 mm 6,0 km/h (2 Bft) O 82 ° 0 min 0,000 mm 0,0 UV-I 67 W/m² 0,9 °C 0,2 °C 8,0 km/h (2 Bft)
20.11.2019 10:34 1,9 °C 93 % 1014,6 hPa 0,0 mm 3,0 km/h (1 Bft) O 82 ° 0 min 0,000 mm 0,0 UV-I 67 W/m² 0,9 °C 1,9 °C 4,8 km/h (1 Bft)
20.11.2019 10:35 1,9 °C 93 % 1014,6 hPa 0,0 mm 3,9 km/h (1 Bft) O 88 ° 0 min 0,000 mm 0,0 UV-I 62 W/m² 0,9 °C 1,9 °C 6,4 km/h (2 Bft)
20.11.2019 10:36 1,9 °C 93 % 1014,6 hPa 0,0 mm 4,8 km/h (1 Bft) O-SO 105 ° 0 min 0,000 mm 0,0 UV-I 60 W/m² 0,9 °C 0,7 °C 6,4 km/h (2 Bft)
20.11.2019 10:37 1,9 °C 93 % 1014,5 hPa 0,0 mm 4,0 km/h (1 Bft) O-SO 107 ° 0 min 0,000 mm 0,0 UV-I 54 W/m² 0,9 °C 1,9 °C 4,8 km/h (1 Bft)
20.11.2019 10:38 1,9 °C 93 % 1014,5 hPa 0,0 mm 1,8 km/h (1 Bft) O-SO 107 ° 0 min 0,000 mm 0,0 UV-I 53 W/m² 0,9 °C 1,9 °C 3,2 km/h (1 Bft)
20.11.2019 10:39 2,0 °C 93 % 1014,5 hPa 0,0 mm 1,9 km/h (1 Bft) O-SO 107 ° 0 min 0,000 mm 0,0 UV-I 54 W/m² 1,0 °C 2,0 °C 3,2 km/h (1 Bft)
20.11.2019 10:40 2,0 °C 93 % 1014,5 hPa 0,0 mm 2,1 km/h (1 Bft) O-SO 107 ° 0 min 0,000 mm 0,0 UV-I 58 W/m² 1,0 °C 2,0 °C 3,2 km/h (1 Bft)
20.11.2019 10:41 2,0 °C 93 % 1014,5 hPa 0,0 mm 1,9 km/h (1 Bft) O-SO 107 ° 0 min 0,000 mm 0,0 UV-I 60 W/m² 1,0 °C 2,0 °C 4,8 km/h (1 Bft)
20.11.2019 10:42 2,0 °C 93 % 1014,5 hPa 0,0 mm 3,0 km/h (1 Bft) O-SO 107 ° 0 min 0,000 mm 0,0 UV-I 56 W/m² 1,0 °C 2,0 °C 4,8 km/h (1 Bft)
20.11.2019 10:43 2,0 °C 93 % 1014,6 hPa 0,0 mm 3,7 km/h (1 Bft) O 92 ° 0 min 0,000 mm 0,0 UV-I 51 W/m² 1,0 °C 2,0 °C 4,8 km/h (1 Bft)
20.11.2019 10:44 2,0 °C 93 % 1014,5 hPa 0,0 mm 0,4 km/h (0 Bft) O 91 ° 0 min 0,000 mm 0,0 UV-I 53 W/m² 1,0 °C 2,0 °C 1,6 km/h (1 Bft)
20.11.2019 10:45 2,1 °C 93 % 1014,5 hPa 0,0 mm 4,7 km/h (1 Bft) O-NO 74 ° 0 min 0,000 mm 0,0 UV-I 53 W/m² 1,1 °C 0,9 °C 6,4 km/h (2 Bft)
20.11.2019 10:46 2,0 °C 93 % 1014,5 hPa 0,0 mm 3,9 km/h (1 Bft) O-NO 74 ° 0 min 0,000 mm 0,0 UV-I 53 W/m² 1,0 °C 2,0 °C 4,8 km/h (1 Bft)
20.11.2019 10:47 2,1 °C 93 % 1014,5 hPa 0,0 mm 1,9 km/h (1 Bft) O-NO 74 ° 0 min 0,000 mm 0,0 UV-I 54 W/m² 1,1 °C 2,1 °C 3,2 km/h (1 Bft)
20.11.2019 10:48 2,1 °C 93 % 1014,5 hPa 0,0 mm 4,4 km/h (1 Bft) O-NO 57 ° 0 min 0,000 mm 0,0 UV-I 60 W/m² 1,1 °C 2,1 °C 6,4 km/h (2 Bft)
20.11.2019 10:49 2,1 °C 93 % 1014,5 hPa 0,0 mm 6,6 km/h (2 Bft) O-NO 77 ° 0 min 0,000 mm 0,0 UV-I 63 W/m² 1,1 °C 0,2 °C 9,7 km/h (2 Bft)
20.11.2019 10:50 2,1 °C 93 % 1014,4 hPa 0,0 mm 6,1 km/h (2 Bft) O 81 ° 0 min 0,000 mm 0,0 UV-I 67 W/m² 1,1 °C 0,4 °C 8,0 km/h (2 Bft)
20.11.2019 10:51 2,1 °C 93 % 1014,4 hPa 0,0 mm 7,6 km/h (2 Bft) O-SO 106 ° 0 min 0,000 mm 0,0 UV-I 69 W/m² 1,1 °C -0,2 °C 11,3 km/h (2 Bft)
20.11.2019 10:52 2,1 °C 93 % 1014,4 hPa 0,0 mm 6,6 km/h (2 Bft) O 82 ° 0 min 0,000 mm 0,0 UV-I 70 W/m² 1,1 °C 0,2 °C 11,3 km/h (2 Bft)
20.11.2019 10:53 2,1 °C 93 % 1014,4 hPa 0,0 mm 4,8 km/h (1 Bft) O-NO 63 ° 0 min 0,000 mm 0,5 UV-I 76 W/m² 1,1 °C 0,9 °C 6,4 km/h (2 Bft)
20.11.2019 10:54 2,1 °C 93 % 1014,3 hPa 0,0 mm 4,5 km/h (1 Bft) O-NO 63 ° 0 min 0,000 mm 0,5 UV-I 77 W/m² 1,1 °C 2,1 °C 6,4 km/h (2 Bft)
20.11.2019 10:55 2,1 °C 93 % 1014,3 hPa 0,0 mm 3,2 km/h (1 Bft) O-NO 63 ° 0 min 0,000 mm 0,5 UV-I 76 W/m² 1,1 °C 2,1 °C 3,2 km/h (1 Bft)
20.11.2019 10:56 2,1 °C 93 % 1014,3 hPa 0,0 mm 1,9 km/h (1 Bft) O-NO 63 ° 0 min 0,000 mm 0,5 UV-I 69 W/m² 1,1 °C 2,1 °C 3,2 km/h (1 Bft)
20.11.2019 10:57 2,1 °C 93 % 1014,3 hPa 0,0 mm 3,2 km/h (1 Bft) O-NO 63 ° 0 min 0,000 mm 0,5 UV-I 70 W/m² 1,1 °C 2,1 °C 4,8 km/h (1 Bft)
20.11.2019 10:58 2,1 °C 93 % 1014,3 hPa 0,0 mm 5,1 km/h (1 Bft) O 84 ° 0 min 0,000 mm 0,5 UV-I 81 W/m² 1,1 °C 0,7 °C 6,4 km/h (2 Bft)
20.11.2019 10:59 2,1 °C 93 % 1014,3 hPa 0,0 mm 7,4 km/h (2 Bft) O-NO 75 ° 0 min 0,000 mm 0,5 UV-I 86 W/m² 1,1 °C -0,1 °C 9,7 km/h (2 Bft)
20.11.2019 11:00 2,1 °C 93 % 1014,3 hPa 0,0 mm 6,7 km/h (2 Bft) O 85 ° 0 min 0,026 mm 0,5 UV-I 83 W/m² 1,1 °C 0,1 °C 9,7 km/h (2 Bft)
20.11.2019 11:01 2,1 °C 93 % 1014,3 hPa 0,0 mm 4,3 km/h (1 Bft) O 85 ° 0 min 0,000 mm 0,5 UV-I 86 W/m² 1,1 °C 2,1 °C 6,4 km/h (2 Bft)
20.11.2019 11:02 2,1 °C 93 % 1014,2 hPa 0,0 mm 5,5 km/h (1 Bft) O-NO 64 ° 0 min 0,000 mm 0,6 UV-I 90 W/m² 1,1 °C 0,6 °C 6,4 km/h (2 Bft)
20.11.2019 11:03 2,2 °C 93 % 1014,2 hPa 0,0 mm 5,6 km/h (1 Bft) O 79 ° 0 min 0,000 mm 0,6 UV-I 95 W/m² 1,2 °C 0,7 °C 8,0 km/h (2 Bft)
20.11.2019 11:04 2,2 °C 93 % 1014,3 hPa 0,0 mm 5,5 km/h (1 Bft) O 94 ° 0 min 0,000 mm 0,6 UV-I 95 W/m² 1,2 °C 0,7 °C 8,0 km/h (2 Bft)
20.11.2019 11:05 2,2 °C 93 % 1014,2 hPa 0,0 mm 4,8 km/h (1 Bft) O-NO 77 ° 0 min 0,000 mm 0,6 UV-I 98 W/m² 1,2 °C 1,0 °C 9,7 km/h (2 Bft)
20.11.2019 11:06 2,2 °C 93 % 1014,2 hPa 0,0 mm 6,0 km/h (2 Bft) O-NO 57 ° 0 min 0,000 mm 0,6 UV-I 98 W/m² 1,2 °C 0,5 °C 8,0 km/h (2 Bft)
20.11.2019 11:07 2,2 °C 93 % 1014,2 hPa 0,0 mm 2,8 km/h (1 Bft) NO 56 ° 0 min 0,000 mm 0,6 UV-I 97 W/m² 1,2 °C 2,2 °C 6,4 km/h (2 Bft)
20.11.2019 11:08 2,2 °C 93 % 1014,1 hPa 0,0 mm 4,3 km/h (1 Bft) NO 56 ° 0 min 0,000 mm 0,6 UV-I 97 W/m² 1,2 °C 2,2 °C 8,0 km/h (2 Bft)
20.11.2019 11:09 2,2 °C 93 % 1014,2 hPa 0,0 mm 2,7 km/h (1 Bft) NO 56 ° 0 min 0,000 mm 0,6 UV-I 91 W/m² 1,2 °C 2,2 °C 4,8 km/h (1 Bft)
20.11.2019 11:10 2,2 °C 93 % 1014,1 hPa 0,0 mm 5,1 km/h (1 Bft) O-NO 66 ° 0 min 0,000 mm 0,6 UV-I 86 W/m² 1,2 °C 0,9 °C 9,7 km/h (2 Bft)
20.11.2019 11:11 2,3 °C 93 % 1014,1 hPa 0,0 mm 5,0 km/h (1 Bft) O-NO 66 ° 0 min 0,000 mm 0,6 UV-I 86 W/m² 1,3 °C 1,0 °C 6,4 km/h (2 Bft)
20.11.2019 11:12 2,3 °C 93 % 1014,1 hPa 0,0 mm 4,4 km/h (1 Bft) O-NO 74 ° 0 min 0,000 mm 0,6 UV-I 91 W/m² 1,3 °C 2,3 °C 6,4 km/h (2 Bft)
20.11.2019 11:13 2,3 °C 93 % 1014,1 hPa 0,0 mm 3,5 km/h (1 Bft) O 82 ° 0 min 0,000 mm 0,6 UV-I 97 W/m² 1,3 °C 2,3 °C 6,4 km/h (2 Bft)
20.11.2019 11:14 2,3 °C 93 % 1014,1 hPa 0,0 mm 2,7 km/h (1 Bft) O-NO 63 ° 0 min 0,000 mm 0,6 UV-I 98 W/m² 1,3 °C 2,3 °C 4,8 km/h (1 Bft)
20.11.2019 11:15 2,3 °C 93 % 1014,1 hPa 0,0 mm 3,7 km/h (1 Bft) O-NO 63 ° 0 min 0,000 mm 0,6 UV-I 98 W/m² 1,3 °C 2,3 °C 4,8 km/h (1 Bft)
20.11.2019 11:16 2,3 °C 93 % 1014,1 hPa 0,0 mm 4,3 km/h (1 Bft) NO 53 ° 0 min 0,000 mm 0,6 UV-I 98 W/m² 1,3 °C 2,3 °C 6,4 km/h (2 Bft)
20.11.2019 11:17 2,3 °C 93 % 1014,1 hPa 0,0 mm 3,7 km/h (1 Bft) NO 53 ° 0 min 0,000 mm 0,6 UV-I 97 W/m² 1,3 °C 2,3 °C 4,8 km/h (1 Bft)
20.11.2019 11:18 2,3 °C 93 % 1014,1 hPa 0,0 mm 3,2 km/h (1 Bft) NO 53 ° 0 min 0,000 mm 0,6 UV-I 98 W/m² 1,3 °C 2,3 °C 4,8 km/h (1 Bft)
20.11.2019 11:19 2,3 °C 93 % 1014,0 hPa 0,0 mm 4,1 km/h (1 Bft) NO 47 ° 0 min 0,000 mm 0,6 UV-I 98 W/m² 1,3 °C 2,3 °C 6,4 km/h (2 Bft)
20.11.2019 11:20 2,3 °C 93 % 1014,0 hPa 0,0 mm 5,5 km/h (1 Bft) O-NO 65 ° 0 min 0,000 mm 0,6 UV-I 100 W/m² 1,3 °C 0,8 °C 9,7 km/h (2 Bft)
20.11.2019 11:21 2,4 °C 93 % 1014,0 hPa 0,0 mm 6,1 km/h (2 Bft) O 86 ° 0 min 0,000 mm 0,7 UV-I 102 W/m² 1,4 °C 0,7 °C 11,3 km/h (2 Bft)
20.11.2019 11:22 2,4 °C 93 % 1014,0 hPa 0,0 mm 4,2 km/h (1 Bft) O-NO 59 ° 0 min 0,000 mm 0,7 UV-I 104 W/m² 1,4 °C 2,4 °C 6,4 km/h (2 Bft)
20.11.2019 11:23 2,4 °C 93 % 1014,0 hPa 0,0 mm 5,6 km/h (1 Bft) O 90 ° 0 min 0,000 mm 0,7 UV-I 102 W/m² 1,4 °C 0,9 °C 6,4 km/h (2 Bft)
20.11.2019 11:24 2,4 °C 93 % 1014,0 hPa 0,0 mm 5,8 km/h (2 Bft) NO 34 ° 0 min 0,000 mm 0,6 UV-I 97 W/m² 1,4 °C 0,8 °C 8,0 km/h (2 Bft)
20.11.2019 11:25 2,4 °C 93 % 1014,0 hPa 0,0 mm 6,8 km/h (2 Bft) N-NO 28 ° 0 min 0,000 mm 0,6 UV-I 97 W/m² 1,4 °C 0,5 °C 8,0 km/h (2 Bft)
20.11.2019 11:26 2,4 °C 93 % 1014,0 hPa 0,0 mm 4,8 km/h (1 Bft) N-NO 28 ° 0 min 0,000 mm 0,6 UV-I 98 W/m² 1,4 °C 1,2 °C 6,4 km/h (2 Bft)
20.11.2019 11:27 2,4 °C 93 % 1014,0 hPa 0,0 mm 4,8 km/h (1 Bft) NO 53 ° 0 min 0,000 mm 0,7 UV-I 98 W/m² 1,4 °C 1,2 °C 8,0 km/h (2 Bft)
20.11.2019 11:28 2,5 °C 92 % 1014,0 hPa 0,0 mm 4,7 km/h (1 Bft) O-NO 68 ° 0 min 0,000 mm 0,6 UV-I 97 W/m² 1,3 °C 1,4 °C 6,4 km/h (2 Bft)
20.11.2019 11:29 2,4 °C 92 % 1014,0 hPa 0,0 mm 4,3 km/h (1 Bft) O 84 ° 0 min 0,000 mm 0,6 UV-I 98 W/m² 1,2 °C 2,4 °C 6,4 km/h (2 Bft)
20.11.2019 11:30 2,4 °C 92 % 1014,0 hPa 0,0 mm 4,1 km/h (1 Bft) O-NO 72 ° 0 min 0,000 mm 0,7 UV-I 98 W/m² 1,2 °C 2,4 °C 4,8 km/h (1 Bft)
20.11.2019 11:31 2,5 °C 92 % 1013,9 hPa 0,0 mm 4,2 km/h (1 Bft) NO 38 ° 0 min 0,000 mm 0,7 UV-I 97 W/m² 1,3 °C 2,5 °C 6,4 km/h (2 Bft)
20.11.2019 11:32 2,5 °C 92 % 1013,9 hPa 0,0 mm 4,3 km/h (1 Bft) NO 55 ° 0 min 0,000 mm 0,6 UV-I 98 W/m² 1,3 °C 2,5 °C 6,4 km/h (2 Bft)
20.11.2019 11:33 2,6 °C 93 % 1013,9 hPa 0,0 mm 2,9 km/h (1 Bft) NO 56 ° 0 min 0,000 mm 0,6 UV-I 98 W/m² 1,6 °C 2,6 °C 4,8 km/h (1 Bft)
20.11.2019 11:34 2,6 °C 92 % 1013,8 hPa 0,0 mm 3,1 km/h (1 Bft) NO 56 ° 0 min 0,000 mm 0,7 UV-I 100 W/m² 1,4 °C 2,6 °C 4,8 km/h (1 Bft)
20.11.2019 11:35 2,6 °C 92 % 1013,8 hPa 0,0 mm 4,5 km/h (1 Bft) O-NO 70 ° 0 min 0,000 mm 0,7 UV-I 100 W/m² 1,4 °C 2,6 °C 6,4 km/h (2 Bft)
20.11.2019 11:36 2,6 °C 92 % 1013,9 hPa 0,0 mm 6,5 km/h (2 Bft) O-NO 60 ° 0 min 0,000 mm 0,7 UV-I 98 W/m² 1,4 °C 0,8 °C 9,7 km/h (2 Bft)
20.11.2019 11:37 2,6 °C 92 % 1013,8 hPa 0,0 mm 3,6 km/h (1 Bft) O-NO 66 ° 0 min 0,000 mm 0,7 UV-I 98 W/m² 1,4 °C 2,6 °C 6,4 km/h (2 Bft)
20.11.2019 11:38 2,6 °C 92 % 1013,8 hPa 0,0 mm 2,3 km/h (1 Bft) O-NO 65 ° 0 min 0,000 mm 0,6 UV-I 98 W/m² 1,4 °C 2,6 °C 3,2 km/h (1 Bft)
20.11.2019 11:39 2,7 °C 92 % 1013,8 hPa 0,0 mm 6,4 km/h (2 Bft) O-NO 73 ° 0 min 0,000 mm 0,6 UV-I 95 W/m² 1,5 °C 0,9 °C 8,0 km/h (2 Bft)
20.11.2019 11:40 2,6 °C 92 % 1013,8 hPa 0,0 mm 6,6 km/h (2 Bft) O-NO 66 ° 0 min 0,000 mm 0,6 UV-I 93 W/m² 1,4 °C 0,8 °C 9,7 km/h (2 Bft)
20.11.2019 11:41 2,7 °C 92 % 1013,8 hPa 0,0 mm 3,7 km/h (1 Bft) O-NO 78 ° 0 min 0,000 mm 0,6 UV-I 97 W/m² 1,5 °C 2,7 °C 6,4 km/h (2 Bft)
20.11.2019 11:42 2,7 °C 92 % 1013,8 hPa 0,0 mm 4,0 km/h (1 Bft) O-NO 78 ° 0 min 0,000 mm 0,6 UV-I 93 W/m² 1,5 °C 2,7 °C 6,4 km/h (2 Bft)
20.11.2019 11:43 2,7 °C 92 % 1013,8 hPa 0,0 mm 2,3 km/h (1 Bft) O-NO 78 ° 0 min 0,000 mm 0,6 UV-I 90 W/m² 1,5 °C 2,7 °C 4,8 km/h (1 Bft)
20.11.2019 11:44 2,7 °C 92 % 1013,7 hPa 0,0 mm 0,8 km/h (0 Bft) O-NO 78 ° 0 min 0,000 mm 0,6 UV-I 90 W/m² 1,5 °C 2,7 °C 3,2 km/h (1 Bft)
20.11.2019 11:45 2,8 °C 92 % 1013,8 hPa 0,0 mm 2,6 km/h (1 Bft) NO 50 ° 0 min 0,000 mm 0,6 UV-I 86 W/m² 1,6 °C 2,8 °C 6,4 km/h (2 Bft)
20.11.2019 11:46 2,7 °C 92 % 1013,7 hPa 0,0 mm 4,4 km/h (1 Bft) NO 51 ° 0 min 0,000 mm 0,6 UV-I 86 W/m² 1,5 °C 2,7 °C 6,4 km/h (2 Bft)
20.11.2019 11:47 2,8 °C 92 % 1013,7 hPa 0,0 mm 3,7 km/h (1 Bft) N 355 ° 0 min 0,000 mm 0,6 UV-I 88 W/m² 1,6 °C 2,8 °C 6,4 km/h (2 Bft)
20.11.2019 11:48 2,8 °C 92 % 1013,7 hPa 0,0 mm 2,4 km/h (1 Bft) N-NO 30 ° 0 min 0,000 mm 0,6 UV-I 90 W/m² 1,6 °C 2,8 °C 4,8 km/h (1 Bft)
20.11.2019 11:49 2,8 °C 92 % 1013,8 hPa 0,0 mm 0,3 km/h (0 Bft) N-NO 30 ° 0 min 0,000 mm 0,6 UV-I 88 W/m² 1,6 °C 2,8 °C 1,6 km/h (1 Bft)
20.11.2019 11:50 2,8 °C 92 % 1013,8 hPa 0,0 mm 2,5 km/h (1 Bft) O-NO 71 ° 0 min 0,000 mm 0,6 UV-I 88 W/m² 1,6 °C 2,8 °C 6,4 km/h (2 Bft)
20.11.2019 11:51 2,8 °C 92 % 1013,7 hPa 0,0 mm 5,1 km/h (1 Bft) NO 49 ° 0 min 0,000 mm 0,6 UV-I 90 W/m² 1,6 °C 1,5 °C 6,4 km/h (2 Bft)
20.11.2019 11:52 2,8 °C 92 % 1013,7 hPa 0,0 mm 2,5 km/h (1 Bft) O-NO 71 ° 0 min 0,000 mm 0,6 UV-I 90 W/m² 1,6 °C 2,8 °C 4,8 km/h (1 Bft)
20.11.2019 11:53 2,8 °C 92 % 1013,7 hPa 0,0 mm 4,9 km/h (1 Bft) O-NO 61 ° 0 min 0,000 mm 0,6 UV-I 95 W/m² 1,6 °C 1,6 °C 8,0 km/h (2 Bft)
20.11.2019 11:54 2,8 °C 92 % 1013,7 hPa 0,0 mm 4,2 km/h (1 Bft) NO 53 ° 0 min 0,000 mm 0,6 UV-I 95 W/m² 1,6 °C 2,8 °C 6,4 km/h (2 Bft)
20.11.2019 11:55 2,8 °C 92 % 1013,7 hPa 0,0 mm 3,6 km/h (1 Bft) NO 51 ° 0 min 0,000 mm 0,6 UV-I 93 W/m² 1,6 °C 2,8 °C 4,8 km/h (1 Bft)
20.11.2019 11:56 2,8 °C 92 % 1013,7 hPa 0,0 mm 5,2 km/h (1 Bft) N-NO 29 ° 0 min 0,000 mm 0,6 UV-I 88 W/m² 1,6 °C 1,5 °C 6,4 km/h (2 Bft)
20.11.2019 11:57 2,8 °C 92 % 1013,7 hPa 0,0 mm 6,8 km/h (2 Bft) NO 42 ° 0 min 0,000 mm 0,5 UV-I 84 W/m² 1,6 °C 0,9 °C 8,0 km/h (2 Bft)
20.11.2019 11:58 2,8 °C 91 % 1013,7 hPa 0,0 mm 3,5 km/h (1 Bft) NO 42 ° 0 min 0,000 mm 0,5 UV-I 84 W/m² 1,5 °C 2,8 °C 6,4 km/h (2 Bft)
20.11.2019 11:59 2,8 °C 91 % 1013,7 hPa 0,0 mm 1,4 km/h (1 Bft) NO 42 ° 0 min 0,000 mm 0,6 UV-I 86 W/m² 1,5 °C 2,8 °C 3,2 km/h (1 Bft)
20.11.2019 12:00 2,8 °C 91 % 1013,7 hPa 0,0 mm 5,2 km/h (1 Bft) N-NO 33 ° 0 min 0,025 mm 0,5 UV-I 83 W/m² 1,5 °C 1,5 °C 8,0 km/h (2 Bft)
20.11.2019 12:01 2,8 °C 91 % 1013,7 hPa 0,0 mm 4,4 km/h (1 Bft) N-NO 33 ° 0 min 0,000 mm 0,5 UV-I 83 W/m² 1,5 °C 2,8 °C 6,4 km/h (2 Bft)
20.11.2019 12:02 2,8 °C 91 % 1013,7 hPa 0,0 mm 5,4 km/h (1 Bft) NO 38 ° 0 min 0,000 mm 0,5 UV-I 84 W/m² 1,5 °C 1,4 °C 6,4 km/h (2 Bft)
20.11.2019 12:03 2,8 °C 91 % 1013,7 hPa 0,0 mm 3,4 km/h (1 Bft) O 90 ° 0 min 0,000 mm 0,5 UV-I 86 W/m² 1,5 °C 2,8 °C 6,4 km/h (2 Bft)
20.11.2019 12:04 2,8 °C 91 % 1013,6 hPa 0,0 mm 3,7 km/h (1 Bft) O 90 ° 0 min 0,000 mm 0,5 UV-I 86 W/m² 1,5 °C 2,8 °C 4,8 km/h (1 Bft)
20.11.2019 12:05 2,8 °C 91 % 1013,6 hPa 0,0 mm 4,5 km/h (1 Bft) O-NO 76 ° 0 min 0,000 mm 0,5 UV-I 79 W/m² 1,5 °C 2,8 °C 6,4 km/h (2 Bft)
20.11.2019 12:06 2,8 °C 91 % 1013,7 hPa 0,0 mm 5,6 km/h (1 Bft) O 80 ° 0 min 0,000 mm 0,5 UV-I 77 W/m² 1,5 °C 1,3 °C 8,0 km/h (2 Bft)
20.11.2019 12:07 2,9 °C 91 % 1013,7 hPa 0,0 mm 5,7 km/h (1 Bft) NO 48 ° 0 min 0,000 mm 0,5 UV-I 74 W/m² 1,6 °C 1,4 °C 11,3 km/h (2 Bft)
20.11.2019 12:08 2,9 °C 91 % 1013,7 hPa 0,0 mm 6,8 km/h (2 Bft) NO 46 ° 0 min 0,000 mm 0,5 UV-I 70 W/m² 1,6 °C 1,0 °C 11,3 km/h (2 Bft)
20.11.2019 12:09 2,8 °C 91 % 1013,6 hPa 0,0 mm 5,2 km/h (1 Bft) NO 54 ° 0 min 0,000 mm 0,5 UV-I 70 W/m² 1,5 °C 1,5 °C 8,0 km/h (2 Bft)
20.11.2019 12:10 2,8 °C 91 % 1013,6 hPa 0,0 mm 5,5 km/h (1 Bft) O-NO 77 ° 0 min 0,000 mm 0,5 UV-I 69 W/m² 1,5 °C 1,4 °C 8,0 km/h (2 Bft)
20.11.2019 12:11 2,8 °C 91 % 1013,7 hPa 0,0 mm 2,5 km/h (1 Bft) O-NO 57 ° 0 min 0,000 mm 0,5 UV-I 70 W/m² 1,5 °C 2,8 °C 4,8 km/h (1 Bft)
20.11.2019 12:12 2,8 °C 91 % 1013,6 hPa 0,0 mm 0,8 km/h (0 Bft) O-NO 57 ° 0 min 0,000 mm 0,5 UV-I 70 W/m² 1,5 °C 2,8 °C 3,2 km/h (1 Bft)
20.11.2019 12:13 2,8 °C 91 % 1013,6 hPa 0,0 mm 5,3 km/h (1 Bft) O-NO 67 ° 0 min 0,000 mm 0,5 UV-I 70 W/m² 1,5 °C 1,5 °C 9,7 km/h (2 Bft)
20.11.2019 12:14 2,9 °C 91 % 1013,6 hPa 0,0 mm 4,3 km/h (1 Bft) O-NO 67 ° 0 min 0,000 mm 0,0 UV-I 67 W/m² 1,6 °C 2,9 °C 6,4 km/h (2 Bft)
20.11.2019 12:15 2,9 °C 91 % 1013,6 hPa 0,0 mm 7,0 km/h (2 Bft) NO 51 ° 0 min 0,000 mm 0,0 UV-I 65 W/m² 1,6 °C 1,0 °C 9,7 km/h (2 Bft)
20.11.2019 12:16 2,9 °C 91 % 1013,6 hPa 0,0 mm 6,2 km/h (2 Bft) O-NO 69 ° 0 min 0,000 mm 0,5 UV-I 70 W/m² 1,6 °C 1,2 °C 9,7 km/h (2 Bft)
20.11.2019 12:17 2,9 °C 91 % 1013,6 hPa 0,0 mm 3,8 km/h (1 Bft) O-NO 69 ° 0 min 0,000 mm 0,5 UV-I 74 W/m² 1,6 °C 2,9 °C 4,8 km/h (1 Bft)
20.11.2019 12:18 2,9 °C 90 % 1013,6 hPa 0,0 mm 4,0 km/h (1 Bft) NO 49 ° 0 min 0,000 mm 0,5 UV-I 76 W/m² 1,4 °C 2,9 °C 6,4 km/h (2 Bft)
20.11.2019 12:19 2,9 °C 90 % 1013,6 hPa 0,0 mm 5,6 km/h (1 Bft) NO 49 ° 0 min 0,000 mm 0,5 UV-I 74 W/m² 1,4 °C 1,5 °C 8,0 km/h (2 Bft)
20.11.2019 12:20 2,9 °C 90 % 1013,6 hPa 0,0 mm 0,3 km/h (0 Bft) NO 49 ° 0 min 0,000 mm 0,5 UV-I 72 W/m² 1,4 °C 2,9 °C 3,2 km/h (1 Bft)
20.11.2019 12:21 2,9 °C 90 % 1013,6 hPa 0,0 mm 3,3 km/h (1 Bft) NO 49 ° 0 min 0,000 mm 0,5 UV-I 74 W/m² 1,4 °C 2,9 °C 6,4 km/h (2 Bft)
20.11.2019 12:22 2,9 °C 90 % 1013,6 hPa 0,0 mm 4,2 km/h (1 Bft) NO 50 ° 0 min 0,000 mm 0,5 UV-I 72 W/m² 1,4 °C 2,9 °C 6,4 km/h (2 Bft)
20.11.2019 12:23 2,9 °C 90 % 1013,6 hPa 0,0 mm 4,6 km/h (1 Bft) NO 50 ° 0 min 0,000 mm 0,5 UV-I 72 W/m² 1,4 °C 1,9 °C 6,4 km/h (2 Bft)
20.11.2019 12:24 2,9 °C 90 % 1013,5 hPa 0,0 mm 2,4 km/h (1 Bft) NO 50 ° 0 min 0,000 mm 0,5 UV-I 70 W/m² 1,4 °C 2,9 °C 4,8 km/h (1 Bft)
20.11.2019 12:25 2,9 °C 90 % 1013,5 hPa 0,0 mm 2,0 km/h (1 Bft) NO 50 ° 0 min 0,000 mm 0,5 UV-I 70 W/m² 1,4 °C 2,9 °C 3,2 km/h (1 Bft)
20.11.2019 12:26 2,9 °C 90 % 1013,4 hPa 0,0 mm 0,6 km/h (0 Bft) NO 50 ° 0 min 0,000 mm 0,0 UV-I 69 W/m² 1,4 °C 2,9 °C 1,6 km/h (1 Bft)
20.11.2019 12:27 2,9 °C 90 % 1013,4 hPa 0,0 mm 0,0 km/h (0 Bft) NO 50 ° 0 min 0,000 mm 0,0 UV-I 62 W/m² 1,4 °C 2,9 °C 0,0 km/h (0 Bft)
20.11.2019 12:28 2,9 °C 90 % 1013,4 hPa 0,0 mm 2,3 km/h (1 Bft) NO 50 ° 0 min 0,000 mm 0,0 UV-I 47 W/m² 1,4 °C 2,9 °C 4,8 km/h (1 Bft)
20.11.2019 12:29 3,0 °C 90 % 1013,4 hPa 0,0 mm 4,6 km/h (1 Bft) O-NO 63 ° 0 min 0,000 mm 0,0 UV-I 46 W/m² 1,5 °C 2,0 °C 6,4 km/h (2 Bft)
20.11.2019 12:30 3,0 °C 90 % 1013,5 hPa 0,0 mm 6,2 km/h (2 Bft) NO 53 ° 0 min 0,000 mm 0,0 UV-I 53 W/m² 1,5 °C 1,4 °C 8,0 km/h (2 Bft)
20.11.2019 12:31 3,0 °C 90 % 1013,5 hPa 0,0 mm 6,3 km/h (2 Bft) NO 36 ° 0 min 0,000 mm 0,0 UV-I 65 W/m² 1,5 °C 1,3 °C 8,0 km/h (2 Bft)
20.11.2019 12:32 2,9 °C 90 % 1013,5 hPa 0,0 mm 5,8 km/h (2 Bft) O-NO 77 ° 0 min 0,000 mm 0,0 UV-I 72 W/m² 1,4 °C 1,4 °C 8,0 km/h (2 Bft)
20.11.2019 12:33 3,0 °C 90 % 1013,4 hPa 0,0 mm 5,4 km/h (1 Bft) O-NO 59 ° 0 min 0,000 mm 0,5 UV-I 74 W/m² 1,5 °C 1,7 °C 6,4 km/h (2 Bft)
20.11.2019 12:34 2,9 °C 90 % 1013,4 hPa 0,0 mm 5,7 km/h (1 Bft) NO 49 ° 0 min 0,000 mm 0,0 UV-I 63 W/m² 1,4 °C 1,4 °C 9,7 km/h (2 Bft)
20.11.2019 12:35 3,0 °C 90 % 1013,4 hPa 0,0 mm 6,4 km/h (2 Bft) N-NO 30 ° 0 min 0,000 mm 0,5 UV-I 65 W/m² 1,5 °C 1,3 °C 8,0 km/h (2 Bft)
20.11.2019 12:36 2,9 °C 90 % 1013,4 hPa 0,0 mm 5,0 km/h (1 Bft) NO 56 ° 0 min 0,000 mm 0,5 UV-I 69 W/m² 1,4 °C 1,7 °C 8,0 km/h (2 Bft)
20.11.2019 12:37 2,9 °C 90 % 1013,4 hPa 0,0 mm 5,7 km/h (1 Bft) N-NO 30 ° 0 min 0,000 mm 0,0 UV-I 70 W/m² 1,4 °C 1,4 °C 8,0 km/h (2 Bft)
20.11.2019 12:38 2,9 °C 90 % 1013,4 hPa 0,0 mm 7,4 km/h (2 Bft) O-NO 69 ° 0 min 0,000 mm 0,0 UV-I 67 W/m² 1,4 °C 0,8 °C 11,3 km/h (2 Bft)
20.11.2019 12:39 2,9 °C 90 % 1013,4 hPa 0,0 mm 6,6 km/h (2 Bft) O-NO 69 ° 0 min 0,000 mm 0,0 UV-I 65 W/m² 1,4 °C 1,1 °C 8,0 km/h (2 Bft)
20.11.2019 12:40 2,9 °C 90 % 1013,3 hPa 0,0 mm 7,3 km/h (2 Bft) NO 51 ° 0 min 0,000 mm 0,0 UV-I 63 W/m² 1,4 °C 0,9 °C 11,3 km/h (2 Bft)
20.11.2019 12:41 2,9 °C 90 % 1013,3 hPa 0,0 mm 6,1 km/h (2 Bft) O 82 ° 0 min 0,000 mm 0,0 UV-I 63 W/m² 1,4 °C 1,3 °C 8,0 km/h (2 Bft)
20.11.2019 12:42 2,9 °C 90 % 1013,3 hPa 0,0 mm 4,7 km/h (1 Bft) NO 46 ° 0 min 0,000 mm 0,0 UV-I 62 W/m² 1,4 °C 1,8 °C 8,0 km/h (2 Bft)
20.11.2019 12:43 2,9 °C 90 % 1013,3 hPa 0,0 mm 6,4 km/h (2 Bft) NO 35 ° 0 min 0,000 mm 0,0 UV-I 63 W/m² 1,4 °C 1,2 °C 8,0 km/h (2 Bft)
20.11.2019 12:44 2,9 °C 90 % 1013,3 hPa 0,0 mm 4,1 km/h (1 Bft) NO 37 ° 0 min 0,000 mm 0,0 UV-I 63 W/m² 1,4 °C 2,9 °C 6,4 km/h (2 Bft)
20.11.2019 12:45 2,9 °C 90 % 1013,3 hPa 0,0 mm 3,3 km/h (1 Bft) O 86 ° 0 min 0,000 mm 0,0 UV-I 60 W/m² 1,4 °C 2,9 °C 6,4 km/h (2 Bft)
20.11.2019 12:46 2,9 °C 90 % 1013,3 hPa 0,0 mm 3,9 km/h (1 Bft) O 87 ° 0 min 0,000 mm 0,0 UV-I 54 W/m² 1,4 °C 2,9 °C 4,8 km/h (1 Bft)
20.11.2019 12:47 2,9 °C 90 % 1013,2 hPa 0,0 mm 4,4 km/h (1 Bft) O-NO 69 ° 0 min 0,000 mm 0,0 UV-I 58 W/m² 1,4 °C 2,9 °C 8,0 km/h (2 Bft)
20.11.2019 12:48 2,9 °C 90 % 1013,2 hPa 0,0 mm 4,0 km/h (1 Bft) NO 40 ° 0 min 0,000 mm 0,0 UV-I 62 W/m² 1,4 °C 2,9 °C 6,4 km/h (2 Bft)
20.11.2019 12:49 2,9 °C 90 % 1013,2 hPa 0,0 mm 6,2 km/h (2 Bft) O 86 ° 0 min 0,000 mm 0,0 UV-I 63 W/m² 1,4 °C 1,2 °C 8,0 km/h (2 Bft)
20.11.2019 12:50 2,9 °C 90 % 1013,3 hPa 0,0 mm 3,3 km/h (1 Bft) O 83 ° 0 min 0,000 mm 0,0 UV-I 67 W/m² 1,4 °C 2,9 °C 6,4 km/h (2 Bft)
20.11.2019 12:51 2,9 °C 90 % 1013,2 hPa 0,0 mm 3,4 km/h (1 Bft) O-NO 69 ° 0 min 0,000 mm 0,0 UV-I 56 W/m² 1,4 °C 2,9 °C 8,0 km/h (2 Bft)
20.11.2019 12:52 2,9 °C 90 % 1013,2 hPa 0,0 mm 5,2 km/h (1 Bft) O 82 ° 0 min 0,000 mm 0,0 UV-I 63 W/m² 1,4 °C 1,6 °C 8,0 km/h (2 Bft)
20.11.2019 12:53 2,9 °C 90 % 1013,2 hPa 0,0 mm 3,6 km/h (1 Bft) O-SO 112 ° 0 min 0,000 mm 0,0 UV-I 63 W/m² 1,4 °C 2,9 °C 6,4 km/h (2 Bft)
20.11.2019 12:54 2,9 °C 90 % 1013,2 hPa 0,0 mm 5,4 km/h (1 Bft) O-SO 117 ° 0 min 0,000 mm 0,0 UV-I 65 W/m² 1,4 °C 1,5 °C 9,7 km/h (2 Bft)
20.11.2019 12:55 2,9 °C 90 % 1013,2 hPa 0,0 mm 2,9 km/h (1 Bft) O 101 ° 0 min 0,000 mm 0,0 UV-I 65 W/m² 1,4 °C 2,9 °C 6,4 km/h (2 Bft)
20.11.2019 12:56 2,9 °C 90 % 1013,1 hPa 0,0 mm 2,8 km/h (1 Bft) O-NO 70 ° 0 min 0,000 mm 0,0 UV-I 65 W/m² 1,4 °C 2,9 °C 4,8 km/h (1 Bft)
20.11.2019 12:57 2,9 °C 90 % 1013,1 hPa 0,0 mm 5,4 km/h (1 Bft) O 84 ° 0 min 0,000 mm 0,0 UV-I 65 W/m² 1,4 °C 1,5 °C 8,0 km/h (2 Bft)
20.11.2019 12:58 2,9 °C 90 % 1013,1 hPa 0,0 mm 4,8 km/h (1 Bft) NO 48 ° 0 min 0,000 mm 0,0 UV-I 65 W/m² 1,4 °C 1,8 °C 8,0 km/h (2 Bft)
20.11.2019 12:59 3,0 °C 90 % 1013,1 hPa 0,0 mm 5,3 km/h (1 Bft) O 80 ° 0 min 0,000 mm 0,0 UV-I 65 W/m² 1,5 °C 1,7 °C 6,4 km/h (2 Bft)
20.11.2019 13:00 2,9 °C 90 % 1013,0 hPa 0,0 mm 4,0 km/h (1 Bft) O-NO 76 ° 0 min 0,000 mm 0,0 UV-I 63 W/m² 1,4 °C 2,9 °C 6,4 km/h (2 Bft)
20.11.2019 13:01 2,9 °C 90 % 1013,0 hPa 0,0 mm 3,1 km/h (1 Bft) O-NO 74 ° 0 min 0,026 mm 0,0 UV-I 65 W/m² 1,4 °C 2,9 °C 4,8 km/h (1 Bft)
20.11.2019 13:02 2,9 °C 90 % 1013,1 hPa 0,0 mm 2,5 km/h (1 Bft) N-NW 342 ° 0 min 0,000 mm 0,0 UV-I 65 W/m² 1,4 °C 2,9 °C 3,2 km/h (1 Bft)
20.11.2019 13:03 2,9 °C 90 % 1013,0 hPa 0,0 mm 0,0 km/h (0 Bft) N-NW 342 ° 0 min 0,000 mm 0,0 UV-I 67 W/m² 1,4 °C 2,9 °C 0,0 km/h (0 Bft)
20.11.2019 13:04 3,0 °C 90 % 1013,0 hPa 0,0 mm 0,9 km/h (0 Bft) O-NO 69 ° 0 min 0,000 mm 0,0 UV-I 67 W/m² 1,5 °C 3,0 °C 4,8 km/h (1 Bft)
20.11.2019 13:05 3,0 °C 90 % 1013,0 hPa 0,0 mm 4,3 km/h (1 Bft) O-NO 69 ° 0 min 0,000 mm 0,0 UV-I 65 W/m² 1,5 °C 3,0 °C 6,4 km/h (2 Bft)
20.11.2019 13:06 3,0 °C 90 % 1013,0 hPa 0,0 mm 5,1 km/h (1 Bft) O 83 ° 0 min 0,000 mm 0,0 UV-I 65 W/m² 1,5 °C 1,8 °C 6,4 km/h (2 Bft)
20.11.2019 13:07 3,0 °C 90 % 1013,0 hPa 0,0 mm 3,9 km/h (1 Bft) O 82 ° 0 min 0,000 mm 0,0 UV-I 65 W/m² 1,5 °C 3,0 °C 4,8 km/h (1 Bft)
20.11.2019 13:08 3,0 °C 90 % 1013,0 hPa 0,0 mm 3,8 km/h (1 Bft) O-NO 60 ° 0 min 0,000 mm 0,0 UV-I 65 W/m² 1,5 °C 3,0 °C 6,4 km/h (2 Bft)
20.11.2019 13:09 3,0 °C 90 % 1013,0 hPa 0,0 mm 0,6 km/h (0 Bft) O-NO 60 ° 0 min 0,000 mm 0,0 UV-I 67 W/m² 1,5 °C 3,0 °C 3,2 km/h (1 Bft)
20.11.2019 13:10 3,0 °C 90 % 1013,0 hPa 0,0 mm 1,5 km/h (1 Bft) O-NO 59 ° 0 min 0,000 mm 0,0 UV-I 69 W/m² 1,5 °C 3,0 °C 4,8 km/h (1 Bft)
20.11.2019 13:11 3,0 °C 90 % 1013,0 hPa 0,0 mm 3,5 km/h (1 Bft) O-SO 110 ° 0 min 0,000 mm 0,0 UV-I 69 W/m² 1,5 °C 3,0 °C 6,4 km/h (2 Bft)
20.11.2019 13:12 3,0 °C 90 % 1013,0 hPa 0,0 mm 3,7 km/h (1 Bft) SO 131 ° 0 min 0,000 mm 0,0 UV-I 70 W/m² 1,5 °C 3,0 °C 6,4 km/h (2 Bft)
20.11.2019 13:13 3,0 °C 90 % 1012,9 hPa 0,0 mm 6,6 km/h (2 Bft) SO 138 ° 0 min 0,000 mm 0,0 UV-I 69 W/m² 1,5 °C 1,2 °C 11,3 km/h (2 Bft)
20.11.2019 13:14 3,0 °C 90 % 1012,8 hPa 0,0 mm 1,2 km/h (1 Bft) SO 138 ° 0 min 0,000 mm 0,0 UV-I 69 W/m² 1,5 °C 3,0 °C 3,2 km/h (1 Bft)
20.11.2019 13:15 3,1 °C 90 % 1012,8 hPa 0,0 mm 1,6 km/h (1 Bft) O-NO 72 ° 0 min 0,000 mm 0,0 UV-I 67 W/m² 1,6 °C 3,1 °C 4,8 km/h (1 Bft)
20.11.2019 13:16 3,1 °C 90 % 1012,9 hPa 0,0 mm 6,1 km/h (2 Bft) O-NO 69 ° 0 min 0,000 mm 0,0 UV-I 67 W/m² 1,6 °C 1,5 °C 8,0 km/h (2 Bft)
20.11.2019 13:17 3,1 °C 90 % 1012,9 hPa 0,0 mm 3,8 km/h (1 Bft) O-NO 65 ° 0 min 0,000 mm 0,0 UV-I 65 W/m² 1,6 °C 3,1 °C 4,8 km/h (1 Bft)
20.11.2019 13:18 3,1 °C 90 % 1012,8 hPa 0,0 mm 7,2 km/h (2 Bft) O-NO 73 ° 0 min 0,000 mm 0,0 UV-I 60 W/m² 1,6 °C 1,1 °C 11,3 km/h (2 Bft)
20.11.2019 13:19 3,1 °C 90 % 1012,8 hPa 0,0 mm 5,0 km/h (1 Bft) O-NO 72 ° 0 min 0,000 mm 0,0 UV-I 58 W/m² 1,6 °C 1,9 °C 8,0 km/h (2 Bft)
20.11.2019 13:20 3,0 °C 90 % 1012,8 hPa 0,0 mm 3,4 km/h (1 Bft) O 83 ° 0 min 0,000 mm 0,0 UV-I 62 W/m² 1,5 °C 3,0 °C 4,8 km/h (1 Bft)
20.11.2019 13:21 3,1 °C 90 % 1012,8 hPa 0,0 mm 3,1 km/h (1 Bft) O-SO 104 ° 0 min 0,000 mm 0,0 UV-I 65 W/m² 1,6 °C 3,1 °C 4,8 km/h (1 Bft)
20.11.2019 13:22 3,0 °C 90 % 1012,8 hPa 0,0 mm 2,7 km/h (1 Bft) O-NO 69 ° 0 min 0,000 mm 0,0 UV-I 67 W/m² 1,5 °C 3,0 °C 4,8 km/h (1 Bft)
20.11.2019 13:23 3,0 °C 90 % 1012,8 hPa 0,0 mm 3,2 km/h (1 Bft) O-NO 69 ° 0 min 0,000 mm 0,0 UV-I 67 W/m² 1,5 °C 3,0 °C 4,8 km/h (1 Bft)
20.11.2019 13:24 3,0 °C 90 % 1012,7 hPa 0,0 mm 2,9 km/h (1 Bft) O-NO 69 ° 0 min 0,000 mm 0,0 UV-I 65 W/m² 1,5 °C 3,0 °C 4,8 km/h (1 Bft)
20.11.2019 13:25 3,1 °C 90 % 1012,7 hPa 0,0 mm 3,2 km/h (1 Bft) O-NO 69 ° 0 min 0,000 mm 0,0 UV-I 65 W/m² 1,6 °C 3,1 °C 4,8 km/h (1 Bft)
20.11.2019 13:26 3,0 °C 90 % 1012,7 hPa 0,0 mm 1,2 km/h (1 Bft) O-NO 69 ° 0 min 0,000 mm 0,0 UV-I 67 W/m² 1,5 °C 3,0 °C 4,8 km/h (1 Bft)
20.11.2019 13:27 3,1 °C 90 % 1012,7 hPa 0,0 mm 0,2 km/h (0 Bft) O-NO 69 ° 0 min 0,000 mm 0,0 UV-I 69 W/m² 1,6 °C 3,1 °C 1,6 km/h (1 Bft)
20.11.2019 13:28 3,0 °C 90 % 1012,7 hPa 0,0 mm 1,1 km/h (1 Bft) O-NO 69 ° 0 min 0,000 mm 0,0 UV-I 69 W/m² 1,5 °C 3,0 °C 3,2 km/h (1 Bft)
20.11.2019 13:29 3,1 °C 90 % 1012,7 hPa 0,0 mm 0,9 km/h (0 Bft) O-NO 69 ° 0 min 0,000 mm 0,0 UV-I 67 W/m² 1,6 °C 3,1 °C 3,2 km/h (1 Bft)
20.11.2019 13:30 3,1 °C 90 % 1012,7 hPa 0,0 mm 0,7 km/h (0 Bft) O-NO 69 ° 0 min 0,000 mm 0,0 UV-I 67 W/m² 1,6 °C 3,1 °C 3,2 km/h (1 Bft)
20.11.2019 13:31 3,1 °C 90 % 1012,7 hPa 0,0 mm 2,2 km/h (1 Bft) O 86 ° 0 min 0,000 mm 0,0 UV-I 67 W/m² 1,6 °C 3,1 °C 4,8 km/h (1 Bft)
20.11.2019 13:32 3,1 °C 90 % 1012,7 hPa 0,0 mm 6,2 km/h (2 Bft) O-NO 59 ° 0 min 0,000 mm 0,0 UV-I 63 W/m² 1,6 °C 1,5 °C 9,7 km/h (2 Bft)
20.11.2019 13:33 3,1 °C 90 % 1012,7 hPa 0,0 mm 3,6 km/h (1 Bft) O-NO 59 ° 0 min 0,000 mm 0,0 UV-I 63 W/m² 1,6 °C 3,1 °C 6,4 km/h (2 Bft)
20.11.2019 13:34 3,1 °C 90 % 1012,7 hPa 0,0 mm 4,6 km/h (1 Bft) O-SO 112 ° 0 min 0,000 mm 0,0 UV-I 62 W/m² 1,6 °C 2,1 °C 6,4 km/h (2 Bft)
20.11.2019 13:35 3,1 °C 90 % 1012,7 hPa 0,0 mm 4,9 km/h (1 Bft) O 84 ° 0 min 0,000 mm 0,0 UV-I 62 W/m² 1,6 °C 2,0 °C 8,0 km/h (2 Bft)
20.11.2019 13:36 3,1 °C 90 % 1012,7 hPa 0,0 mm 4,4 km/h (1 Bft) O-NO 69 ° 0 min 0,000 mm 0,0 UV-I 62 W/m² 1,6 °C 3,1 °C 6,4 km/h (2 Bft)
20.11.2019 13:37 3,1 °C 90 % 1012,7 hPa 0,0 mm 6,4 km/h (2 Bft) O 86 ° 0 min 0,000 mm 0,0 UV-I 63 W/m² 1,6 °C 1,4 °C 8,0 km/h (2 Bft)
20.11.2019 13:38 3,1 °C 90 % 1012,7 hPa 0,0 mm 5,5 km/h (1 Bft) NO 46 ° 0 min 0,000 mm 0,0 UV-I 62 W/m² 1,6 °C 1,7 °C 6,4 km/h (2 Bft)
20.11.2019 13:39 3,1 °C 90 % 1012,7 hPa 0,0 mm 5,7 km/h (1 Bft) NO 55 ° 0 min 0,000 mm 0,0 UV-I 62 W/m² 1,6 °C 1,6 °C 8,0 km/h (2 Bft)
20.11.2019 13:40 3,1 °C 90 % 1012,7 hPa 0,0 mm 4,5 km/h (1 Bft) O-SO 102 ° 0 min 0,000 mm 0,0 UV-I 62 W/m² 1,6 °C 3,1 °C 6,4 km/h (2 Bft)
20.11.2019 13:41 3,1 °C 90 % 1012,7 hPa 0,0 mm 4,7 km/h (1 Bft) O-SO 103 ° 0 min 0,000 mm 0,0 UV-I 63 W/m² 1,6 °C 2,1 °C 6,4 km/h (2 Bft)
20.11.2019 13:42 3,1 °C 90 % 1012,7 hPa 0,0 mm 1,2 km/h (1 Bft) O-SO 103 ° 0 min 0,000 mm 0,0 UV-I 63 W/m² 1,6 °C 3,1 °C 3,2 km/h (1 Bft)
20.11.2019 13:43 3,1 °C 90 % 1012,7 hPa 0,0 mm 0,7 km/h (0 Bft) O-SO 103 ° 0 min 0,000 mm 0,0 UV-I 65 W/m² 1,6 °C 3,1 °C 3,2 km/h (1 Bft)
20.11.2019 13:44 3,1 °C 90 % 1012,7 hPa 0,0 mm 0,0 km/h (0 Bft) O-SO 103 ° 0 min 0,000 mm 0,0 UV-I 63 W/m² 1,6 °C 3,1 °C 0,0 km/h (0 Bft)
20.11.2019 13:45 3,1 °C 90 % 1012,7 hPa 0,0 mm 0,7 km/h (0 Bft) O-SO 103 ° 0 min 0,000 mm 0,0 UV-I 63 W/m² 1,6 °C 3,1 °C 3,2 km/h (1 Bft)
20.11.2019 13:46 3,1 °C 90 % 1012,7 hPa 0,0 mm 2,7 km/h (1 Bft) O-SO 103 ° 0 min 0,000 mm 0,0 UV-I 63 W/m² 1,6 °C 3,1 °C 4,8 km/h (1 Bft)
20.11.2019 13:47 3,1 °C 90 % 1012,6 hPa 0,0 mm 4,2 km/h (1 Bft) NO 51 ° 0 min 0,000 mm 0,0 UV-I 63 W/m² 1,6 °C 3,1 °C 8,0 km/h (2 Bft)
20.11.2019 13:48 3,1 °C 90 % 1012,7 hPa 0,0 mm 3,5 km/h (1 Bft) NO 49 ° 0 min 0,000 mm 0,0 UV-I 62 W/m² 1,6 °C 3,1 °C 6,4 km/h (2 Bft)
20.11.2019 13:49 3,1 °C 90 % 1012,7 hPa 0,0 mm 1,1 km/h (1 Bft) NO 49 ° 0 min 0,000 mm 0,0 UV-I 62 W/m² 1,6 °C 3,1 °C 3,2 km/h (1 Bft)
20.11.2019 13:50 3,1 °C 90 % 1012,7 hPa 0,0 mm 4,3 km/h (1 Bft) O-NO 65 ° 0 min 0,000 mm 0,0 UV-I 62 W/m² 1,6 °C 3,1 °C 9,7 km/h (2 Bft)
20.11.2019 13:51 3,1 °C 90 % 1012,6 hPa 0,0 mm 6,4 km/h (2 Bft) O-NO 69 ° 0 min 0,000 mm 0,0 UV-I 62 W/m² 1,6 °C 1,4 °C 12,9 km/h (3 Bft)
20.11.2019 13:52 3,1 °C 90 % 1012,7 hPa 0,0 mm 5,4 km/h (1 Bft) O-SO 123 ° 0 min 0,000 mm 0,0 UV-I 62 W/m² 1,6 °C 1,8 °C 6,4 km/h (2 Bft)
20.11.2019 13:53 3,1 °C 90 % 1012,6 hPa 0,0 mm 3,2 km/h (1 Bft) O 100 ° 0 min 0,000 mm 0,0 UV-I 60 W/m² 1,6 °C 3,1 °C 4,8 km/h (1 Bft)
20.11.2019 13:54 3,1 °C 90 % 1012,7 hPa 0,0 mm 4,4 km/h (1 Bft) O-SO 116 ° 0 min 0,000 mm 0,0 UV-I 60 W/m² 1,6 °C 3,1 °C 6,4 km/h (2 Bft)
20.11.2019 13:55 3,1 °C 90 % 1012,7 hPa 0,0 mm 2,7 km/h (1 Bft) O-NO 65 ° 0 min 0,000 mm 0,0 UV-I 58 W/m² 1,6 °C 3,1 °C 6,4 km/h (2 Bft)
20.11.2019 13:56 3,1 °C 90 % 1012,7 hPa 0,0 mm 2,6 km/h (1 Bft) O-NO 67 ° 0 min 0,000 mm 0,0 UV-I 56 W/m² 1,6 °C 3,1 °C 3,2 km/h (1 Bft)
20.11.2019 13:57 3,1 °C 90 % 1012,6 hPa 0,0 mm 2,3 km/h (1 Bft) O-NO 67 ° 0 min 0,000 mm 0,0 UV-I 54 W/m² 1,6 °C 3,1 °C 4,8 km/h (1 Bft)
20.11.2019 13:58 3,1 °C 90 % 1012,6 hPa 0,0 mm 0,4 km/h (0 Bft) O-NO 67 ° 0 min 0,000 mm 0,0 UV-I 53 W/m² 1,6 °C 3,1 °C 1,6 km/h (1 Bft)
20.11.2019 13:59 3,1 °C 90 % 1012,6 hPa 0,0 mm 1,2 km/h (1 Bft) O-NO 67 ° 0 min 0,000 mm 0,0 UV-I 49 W/m² 1,6 °C 3,1 °C 1,6 km/h (1 Bft)
20.11.2019 14:00 3,1 °C 90 % 1012,6 hPa 0,0 mm 4,5 km/h (1 Bft) O-NO 67 ° 0 min 0,000 mm 0,0 UV-I 47 W/m² 1,6 °C 3,1 °C 8,0 km/h (2 Bft)
20.11.2019 14:01 3,1 °C 90 % 1012,6 hPa 0,0 mm 5,3 km/h (1 Bft) O-NO 67 ° 0 min 0,025 mm 0,0 UV-I 47 W/m² 1,6 °C 1,8 °C 8,0 km/h (2 Bft)
20.11.2019 14:02 3,1 °C 90 % 1012,6 hPa 0,0 mm 4,0 km/h (1 Bft) O-NO 69 ° 0 min 0,000 mm 0,0 UV-I 47 W/m² 1,6 °C 3,1 °C 4,8 km/h (1 Bft)
20.11.2019 14:03 3,1 °C 90 % 1012,6 hPa 0,0 mm 5,6 km/h (1 Bft) NO 40 ° 0 min 0,000 mm 0,0 UV-I 46 W/m² 1,6 °C 1,7 °C 9,7 km/h (2 Bft)
20.11.2019 14:04 3,1 °C 90 % 1012,6 hPa 0,0 mm 5,6 km/h (1 Bft) O 83 ° 0 min 0,000 mm 0,0 UV-I 46 W/m² 1,6 °C 1,7 °C 8,0 km/h (2 Bft)
20.11.2019 14:05 3,1 °C 90 % 1012,6 hPa 0,0 mm 4,7 km/h (1 Bft) O-NO 73 ° 0 min 0,000 mm 0,0 UV-I 44 W/m² 1,6 °C 2,1 °C 8,0 km/h (2 Bft)
20.11.2019 14:06 3,1 °C 90 % 1012,6 hPa 0,0 mm 6,1 km/h (2 Bft) O-NO 78 ° 0 min 0,000 mm 0,0 UV-I 46 W/m² 1,6 °C 1,5 °C 8,0 km/h (2 Bft)
20.11.2019 14:07 3,1 °C 90 % 1012,6 hPa 0,0 mm 6,8 km/h (2 Bft) O-NO 71 ° 0 min 0,000 mm 0,0 UV-I 46 W/m² 1,6 °C 1,3 °C 11,3 km/h (2 Bft)
20.11.2019 14:08 3,1 °C 90 % 1012,6 hPa 0,0 mm 3,6 km/h (1 Bft) O-NO 72 ° 0 min 0,000 mm 0,0 UV-I 46 W/m² 1,6 °C 3,1 °C 4,8 km/h (1 Bft)
20.11.2019 14:09 3,1 °C 90 % 1012,6 hPa 0,0 mm 4,8 km/h (1 Bft) O-SO 108 ° 0 min 0,000 mm 0,0 UV-I 47 W/m² 1,6 °C 2,0 °C 12,9 km/h (3 Bft)
20.11.2019 14:10 3,1 °C 90 % 1012,6 hPa 0,0 mm 4,2 km/h (1 Bft) O-SO 108 ° 0 min 0,000 mm 0,0 UV-I 51 W/m² 1,6 °C 3,1 °C 6,4 km/h (2 Bft)
20.11.2019 14:11 3,1 °C 90 % 1012,6 hPa 0,0 mm 0,9 km/h (0 Bft) O-SO 108 ° 0 min 0,000 mm 0,0 UV-I 53 W/m² 1,6 °C 3,1 °C 1,6 km/h (1 Bft)
20.11.2019 14:12 3,1 °C 90 % 1012,6 hPa 0,0 mm 1,2 km/h (1 Bft) O-SO 108 ° 0 min 0,000 mm 0,0 UV-I 53 W/m² 1,6 °C 3,1 °C 3,2 km/h (1 Bft)
20.11.2019 14:13 3,1 °C 90 % 1012,6 hPa 0,0 mm 2,4 km/h (1 Bft) O 98 ° 0 min 0,000 mm 0,0 UV-I 53 W/m² 1,6 °C 3,1 °C 4,8 km/h (1 Bft)
20.11.2019 14:14 3,1 °C 90 % 1012,6 hPa 0,0 mm 4,8 km/h (1 Bft) O-NO 72 ° 0 min 0,000 mm 0,0 UV-I 51 W/m² 1,6 °C 2,0 °C 6,4 km/h (2 Bft)
20.11.2019 14:15 3,1 °C 90 % 1012,6 hPa 0,0 mm 4,2 km/h (1 Bft) O-NO 61 ° 0 min 0,000 mm 0,0 UV-I 51 W/m² 1,6 °C 3,1 °C 6,4 km/h (2 Bft)
20.11.2019 14:16 3,1 °C 90 % 1012,6 hPa 0,0 mm 5,4 km/h (1 Bft) O-NO 71 ° 0 min 0,000 mm 0,0 UV-I 49 W/m² 1,6 °C 1,8 °C 6,4 km/h (2 Bft)
20.11.2019 14:17 3,1 °C 90 % 1012,6 hPa 0,0 mm 2,6 km/h (1 Bft) O-NO 71 ° 0 min 0,000 mm 0,0 UV-I 49 W/m² 1,6 °C 3,1 °C 6,4 km/h (2 Bft)
20.11.2019 14:18 3,1 °C 90 % 1012,6 hPa 0,0 mm 4,9 km/h (1 Bft) O-NO 61 ° 0 min 0,000 mm 0,0 UV-I 47 W/m² 1,6 °C 2,0 °C 6,4 km/h (2 Bft)
20.11.2019 14:19 3,1 °C 90 % 1012,6 hPa 0,0 mm 2,7 km/h (1 Bft) O-NO 61 ° 0 min 0,000 mm 0,0 UV-I 47 W/m² 1,6 °C 3,1 °C 4,8 km/h (1 Bft)
20.11.2019 14:20 3,1 °C 90 % 1012,6 hPa 0,0 mm 2,9 km/h (1 Bft) O-NO 61 ° 0 min 0,000 mm 0,0 UV-I 47 W/m² 1,6 °C 3,1 °C 4,8 km/h (1 Bft)
20.11.2019 14:21 3,1 °C 90 % 1012,6 hPa 0,0 mm 1,4 km/h (1 Bft) O-NO 61 ° 0 min 0,000 mm 0,0 UV-I 46 W/m² 1,6 °C 3,1 °C 3,2 km/h (1 Bft)
20.11.2019 14:22 3,1 °C 90 % 1012,6 hPa 0,0 mm 2,9 km/h (1 Bft) O 86 ° 0 min 0,000 mm 0,0 UV-I 46 W/m² 1,6 °C 3,1 °C 4,8 km/h (1 Bft)
20.11.2019 14:23 3,1 °C 90 % 1012,6 hPa 0,0 mm 4,3 km/h (1 Bft) O-NO 76 ° 0 min 0,000 mm 0,0 UV-I 44 W/m² 1,6 °C 3,1 °C 6,4 km/h (2 Bft)
20.11.2019 14:24 3,1 °C 90 % 1012,6 hPa 0,0 mm 4,7 km/h (1 Bft) O-NO 76 ° 0 min 0,000 mm 0,0 UV-I 42 W/m² 1,6 °C 2,1 °C 9,7 km/h (2 Bft)
20.11.2019 14:25 3,1 °C 90 % 1012,6 hPa 0,0 mm 5,3 km/h (1 Bft) O-NO 60 ° 0 min 0,000 mm 0,0 UV-I 42 W/m² 1,6 °C 1,8 °C 8,0 km/h (2 Bft)
20.11.2019 14:26 3,1 °C 90 % 1012,6 hPa 0,0 mm 2,2 km/h (1 Bft) O-NO 68 ° 0 min 0,000 mm 0,0 UV-I 40 W/m² 1,6 °C 3,1 °C 4,8 km/h (1 Bft)
20.11.2019 14:27 3,1 °C 90 % 1012,6 hPa 0,0 mm 4,8 km/h (1 Bft) O-NO 71 ° 0 min 0,000 mm 0,0 UV-I 40 W/m² 1,6 °C 2,0 °C 6,4 km/h (2 Bft)
20.11.2019 14:28 3,1 °C 90 % 1012,5 hPa 0,0 mm 4,6 km/h (1 Bft) O-SO 106 ° 0 min 0,000 mm 0,0 UV-I 42 W/m² 1,6 °C 2,1 °C 6,4 km/h (2 Bft)
20.11.2019 14:29 3,1 °C 90 % 1012,6 hPa 0,0 mm 3,6 km/h (1 Bft) O 101 ° 0 min 0,000 mm 0,0 UV-I 42 W/m² 1,6 °C 3,1 °C 6,4 km/h (2 Bft)
20.11.2019 14:30 3,1 °C 90 % 1012,5 hPa 0,0 mm 0,5 km/h (0 Bft) O 101 ° 0 min 0,000 mm 0,0 UV-I 42 W/m² 1,6 °C 3,1 °C 3,2 km/h (1 Bft)
20.11.2019 14:31 3,1 °C 90 % 1012,5 hPa 0,0 mm 2,7 km/h (1 Bft) O 100 ° 0 min 0,000 mm 0,0 UV-I 44 W/m² 1,6 °C 3,1 °C 4,8 km/h (1 Bft)
20.11.2019 14:32 3,2 °C 90 % 1012,5 hPa 0,0 mm 4,4 km/h (1 Bft) O 80 ° 0 min 0,000 mm 0,0 UV-I 46 W/m² 1,7 °C 3,2 °C 4,8 km/h (1 Bft)
20.11.2019 14:33 3,2 °C 90 % 1012,4 hPa 0,0 mm 3,2 km/h (1 Bft) O-NO 70 ° 0 min 0,000 mm 0,0 UV-I 47 W/m² 1,7 °C 3,2 °C 6,4 km/h (2 Bft)
20.11.2019 14:34 3,2 °C 90 % 1012,5 hPa 0,0 mm 4,8 km/h (1 Bft) O-NO 73 ° 0 min 0,000 mm 0,0 UV-I 47 W/m² 1,7 °C 2,1 °C 8,0 km/h (2 Bft)
20.11.2019 14:35 3,1 °C 90 % 1012,4 hPa 0,0 mm 4,1 km/h (1 Bft) O 85 ° 0 min 0,000 mm 0,0 UV-I 47 W/m² 1,6 °C 3,1 °C 6,4 km/h (2 Bft)
20.11.2019 14:36 3,2 °C 90 % 1012,5 hPa 0,0 mm 3,9 km/h (1 Bft) NO 46 ° 0 min 0,000 mm 0,0 UV-I 47 W/m² 1,7 °C 3,2 °C 4,8 km/h (1 Bft)
20.11.2019 14:37 3,2 °C 90 % 1012,4 hPa 0,0 mm 3,9 km/h (1 Bft) O 92 ° 0 min 0,000 mm 0,0 UV-I 46 W/m² 1,7 °C 3,2 °C 4,8 km/h (1 Bft)
20.11.2019 14:38 3,2 °C 90 % 1012,4 hPa 0,0 mm 2,7 km/h (1 Bft) O 91 ° 0 min 0,000 mm 0,0 UV-I 46 W/m² 1,7 °C 3,2 °C 4,8 km/h (1 Bft)
20.11.2019 14:39 3,2 °C 90 % 1012,5 hPa 0,0 mm 3,2 km/h (1 Bft) O-SO 109 ° 0 min 0,000 mm 0,0 UV-I 46 W/m² 1,7 °C 3,2 °C 4,8 km/h (1 Bft)
20.11.2019 14:40 3,2 °C 90 % 1012,4 hPa 0,0 mm 1,2 km/h (1 Bft) O-SO 109 ° 0 min 0,000 mm 0,0 UV-I 47 W/m² 1,7 °C 3,2 °C 3,2 km/h (1 Bft)
20.11.2019 14:41 3,2 °C 90 % 1012,5 hPa 0,0 mm 2,1 km/h (1 Bft) O-SO 109 ° 0 min 0,000 mm 0,0 UV-I 46 W/m² 1,7 °C 3,2 °C 3,2 km/h (1 Bft)
20.11.2019 14:42 3,2 °C 90 % 1012,5 hPa 0,0 mm 1,0 km/h (0 Bft) O-SO 109 ° 0 min 0,000 mm 0,0 UV-I 46 W/m² 1,7 °C 3,2 °C 3,2 km/h (1 Bft)
20.11.2019 14:43 3,2 °C 90 % 1012,5 hPa 0,0 mm 1,3 km/h (1 Bft) O-NO 63 ° 0 min 0,000 mm 0,0 UV-I 46 W/m² 1,7 °C 3,2 °C 6,4 km/h (2 Bft)
20.11.2019 14:44 3,2 °C 90 % 1012,5 hPa 0,0 mm 2,5 km/h (1 Bft) O-NO 59 ° 0 min 0,000 mm 0,0 UV-I 46 W/m² 1,7 °C 3,2 °C 6,4 km/h (2 Bft)
20.11.2019 14:45 3,2 °C 90 % 1012,5 hPa 0,0 mm 3,9 km/h (1 Bft) O 95 ° 0 min 0,000 mm 0,0 UV-I 46 W/m² 1,7 °C 3,2 °C 6,4 km/h (2 Bft)
20.11.2019 14:46 3,2 °C 90 % 1012,4 hPa 0,0 mm 2,0 km/h (1 Bft) O 95 ° 0 min 0,000 mm 0,0 UV-I 46 W/m² 1,7 °C 3,2 °C 3,2 km/h (1 Bft)
20.11.2019 14:47 3,2 °C 90 % 1012,4 hPa 0,0 mm 0,3 km/h (0 Bft) O 95 ° 0 min 0,000 mm 0,0 UV-I 47 W/m² 1,7 °C 3,2 °C 1,6 km/h (1 Bft)
20.11.2019 14:48 3,1 °C 90 % 1012,4 hPa 0,0 mm 0,0 km/h (0 Bft) O 95 ° 0 min 0,000 mm 0,0 UV-I 47 W/m² 1,6 °C 3,1 °C 0,0 km/h (0 Bft)
20.11.2019 14:49 3,1 °C 90 % 1012,4 hPa 0,0 mm 0,5 km/h (0 Bft) O 95 ° 0 min 0,000 mm 0,0 UV-I 46 W/m² 1,6 °C 3,1 °C 1,6 km/h (1 Bft)
20.11.2019 14:50 3,2 °C 90 % 1012,4 hPa 0,0 mm 3,1 km/h (1 Bft) O 88 ° 0 min 0,000 mm 0,0 UV-I 46 W/m² 1,7 °C 3,2 °C 4,8 km/h (1 Bft)
20.11.2019 14:51 3,2 °C 90 % 1012,4 hPa 0,0 mm 4,3 km/h (1 Bft) O 87 ° 0 min 0,000 mm 0,0 UV-I 44 W/m² 1,7 °C 3,2 °C 6,4 km/h (2 Bft)
20.11.2019 14:52 3,2 °C 90 % 1012,3 hPa 0,0 mm 3,0 km/h (1 Bft) O 88 ° 0 min 0,000 mm 0,0 UV-I 42 W/m² 1,7 °C 3,2 °C 4,8 km/h (1 Bft)
20.11.2019 14:53 3,2 °C 90 % 1012,3 hPa 0,0 mm 1,3 km/h (1 Bft) O 88 ° 0 min 0,000 mm 0,0 UV-I 42 W/m² 1,7 °C 3,2 °C 4,8 km/h (1 Bft)
20.11.2019 14:54 3,2 °C 90 % 1012,4 hPa 0,0 mm 3,0 km/h (1 Bft) O 88 ° 0 min 0,000 mm 0,0 UV-I 42 W/m² 1,7 °C 3,2 °C 4,8 km/h (1 Bft)
20.11.2019 14:55 3,2 °C 90 % 1012,3 hPa 0,0 mm 1,9 km/h (1 Bft) O 88 ° 0 min 0,000 mm 0,0 UV-I 40 W/m² 1,7 °C 3,2 °C 4,8 km/h (1 Bft)
20.11.2019 14:56 3,2 °C 90 % 1012,3 hPa 0,0 mm 0,1 km/h (0 Bft) O 88 ° 0 min 0,000 mm 0,0 UV-I 42 W/m² 1,7 °C 3,2 °C 1,6 km/h (1 Bft)
20.11.2019 14:57 3,2 °C 90 % 1012,3 hPa 0,0 mm 0,1 km/h (0 Bft) O 88 ° 0 min 0,000 mm 0,0 UV-I 42 W/m² 1,7 °C 3,2 °C 1,6 km/h (1 Bft)
20.11.2019 14:58 3,2 °C 90 % 1012,3 hPa 0,0 mm 1,6 km/h (1 Bft) O 88 ° 0 min 0,000 mm 0,0 UV-I 42 W/m² 1,7 °C 3,2 °C 3,2 km/h (1 Bft)
20.11.2019 14:59 3,2 °C 90 % 1012,3 hPa 0,0 mm 1,5 km/h (1 Bft) O 88 ° 0 min 0,000 mm 0,0 UV-I 42 W/m² 1,7 °C 3,2 °C 3,2 km/h (1 Bft)
20.11.2019 15:00 3,2 °C 90 % 1012,2 hPa 0,0 mm 0,0 km/h (0 Bft) O 88 ° 0 min 0,000 mm 0,0 UV-I 42 W/m² 1,7 °C 3,2 °C 0,0 km/h (0 Bft)
20.11.2019 15:01 3,2 °C 90 % 1012,2 hPa 0,0 mm 0,0 km/h (0 Bft) O 88 ° 0 min 0,025 mm 0,0 UV-I 42 W/m² 1,7 °C 3,2 °C 0,0 km/h (0 Bft)
20.11.2019 15:02 3,2 °C 90 % 1012,3 hPa 0,0 mm 0,0 km/h (0 Bft) O 88 ° 0 min 0,000 mm 0,0 UV-I 42 W/m² 1,7 °C 3,2 °C 0,0 km/h (0 Bft)
20.11.2019 15:03 3,2 °C 90 % 1012,2 hPa 0,0 mm 0,0 km/h (0 Bft) O 88 ° 0 min 0,000 mm 0,0 UV-I 40 W/m² 1,7 °C 3,2 °C 0,0 km/h (0 Bft)
20.11.2019 15:04 3,2 °C 90 % 1012,2 hPa 0,0 mm 0,0 km/h (0 Bft) O 88 ° 0 min 0,000 mm 0,0 UV-I 40 W/m² 1,7 °C 3,2 °C 0,0 km/h (0 Bft)
20.11.2019 15:05 3,2 °C 90 % 1012,2 hPa 0,0 mm 0,0 km/h (0 Bft) O 88 ° 0 min 0,000 mm 0,0 UV-I 40 W/m² 1,7 °C 3,2 °C 0,0 km/h (0 Bft)
20.11.2019 15:06 3,2 °C 90 % 1012,2 hPa 0,0 mm 0,0 km/h (0 Bft) O 88 ° 0 min 0,000 mm 0,0 UV-I 37 W/m² 1,7 °C 3,2 °C 0,0 km/h (0 Bft)
20.11.2019 15:07 3,2 °C 90 % 1012,1 hPa 0,0 mm 0,0 km/h (0 Bft) O 88 ° 0 min 0,000 mm 0,0 UV-I 37 W/m² 1,7 °C 3,2 °C 0,0 km/h (0 Bft)
20.11.2019 15:08 3,2 °C 90 % 1012,2 hPa 0,0 mm 0,0 km/h (0 Bft) O 88 ° 0 min 0,000 mm 0,0 UV-I 37 W/m² 1,7 °C 3,2 °C 0,0 km/h (0 Bft)
20.11.2019 15:09 3,2 °C 90 % 1012,2 hPa 0,0 mm 0,0 km/h (0 Bft) O 88 ° 0 min 0,000 mm 0,0 UV-I 37 W/m² 1,7 °C 3,2 °C 0,0 km/h (0 Bft)
20.11.2019 15:10 3,2 °C 90 % 1012,2 hPa 0,0 mm 2,1 km/h (1 Bft) O 88 ° 0 min 0,000 mm 0,0 UV-I 37 W/m² 1,7 °C 3,2 °C 3,2 km/h (1 Bft)
20.11.2019 15:11 3,2 °C 90 % 1012,1 hPa 0,0 mm 2,7 km/h (1 Bft) O 88 ° 0 min 0,000 mm 0,0 UV-I 39 W/m² 1,7 °C 3,2 °C 4,8 km/h (1 Bft)
20.11.2019 15:12 3,2 °C 90 % 1012,2 hPa 0,0 mm 3,2 km/h (1 Bft) O 88 ° 0 min 0,000 mm 0,0 UV-I 39 W/m² 1,7 °C 3,2 °C 4,8 km/h (1 Bft)
20.11.2019 15:13 3,2 °C 90 % 1012,2 hPa 0,0 mm 3,5 km/h (1 Bft) O 88 ° 0 min 0,000 mm 0,0 UV-I 39 W/m² 1,7 °C 3,2 °C 4,8 km/h (1 Bft)
20.11.2019 15:14 3,3 °C 90 % 1012,1 hPa 0,0 mm 5,1 km/h (1 Bft) O-NO 72 ° 0 min 0,000 mm 0,0 UV-I 39 W/m² 1,8 °C 2,1 °C 8,0 km/h (2 Bft)
20.11.2019 15:15 3,3 °C 90 % 1012,1 hPa 0,0 mm 0,5 km/h (0 Bft) O-NO 72 ° 0 min 0,000 mm 0,0 UV-I 39 W/m² 1,8 °C 3,3 °C 3,2 km/h (1 Bft)
20.11.2019 15:16 3,2 °C 90 % 1012,1 hPa 0,0 mm 2,0 km/h (1 Bft) O-NO 72 ° 0 min 0,000 mm 0,0 UV-I 37 W/m² 1,7 °C 3,2 °C 4,8 km/h (1 Bft)
20.11.2019 15:17 3,2 °C 90 % 1012,1 hPa 0,0 mm 3,7 km/h (1 Bft) O-NO 71 ° 0 min 0,000 mm 0,0 UV-I 35 W/m² 1,7 °C 3,2 °C 4,8 km/h (1 Bft)
20.11.2019 15:18 3,2 °C 90 % 1012,1 hPa 0,0 mm 3,4 km/h (1 Bft) O-NO 72 ° 0 min 0,000 mm 0,0 UV-I 33 W/m² 1,7 °C 3,2 °C 4,8 km/h (1 Bft)
20.11.2019 15:19 3,2 °C 90 % 1012,1 hPa 0,0 mm 3,4 km/h (1 Bft) O-NO 72 ° 0 min 0,000 mm 0,0 UV-I 33 W/m² 1,7 °C 3,2 °C 4,8 km/h (1 Bft)
20.11.2019 15:20 3,2 °C 90 % 1012,1 hPa 0,0 mm 3,6 km/h (1 Bft) O-NO 72 ° 0 min 0,000 mm 0,0 UV-I 33 W/m² 1,7 °C 3,2 °C 4,8 km/h (1 Bft)
20.11.2019 15:21 3,3 °C 90 % 1012,2 hPa 0,0 mm 2,6 km/h (1 Bft) O-NO 72 ° 0 min 0,000 mm 0,0 UV-I 32 W/m² 1,8 °C 3,3 °C 4,8 km/h (1 Bft)
20.11.2019 15:22 3,2 °C 90 % 1012,2 hPa 0,0 mm 3,4 km/h (1 Bft) O-NO 72 ° 0 min 0,000 mm 0,0 UV-I 32 W/m² 1,7 °C 3,2 °C 4,8 km/h (1 Bft)
20.11.2019 15:23 3,2 °C 90 % 1012,2 hPa 0,0 mm 0,2 km/h (0 Bft) O-NO 69 ° 0 min 0,000 mm 0,0 UV-I 30 W/m² 1,7 °C 3,2 °C 1,6 km/h (1 Bft)
20.11.2019 15:24 3,2 °C 90 % 1012,2 hPa 0,0 mm 4,9 km/h (1 Bft) O-NO 62 ° 0 min 0,000 mm 0,0 UV-I 28 W/m² 1,7 °C 2,1 °C 8,0 km/h (2 Bft)
20.11.2019 15:25 3,2 °C 90 % 1012,2 hPa 0,0 mm 5,8 km/h (2 Bft) O-NO 76 ° 0 min 0,000 mm 0,0 UV-I 28 W/m² 1,7 °C 1,7 °C 8,0 km/h (2 Bft)
20.11.2019 15:26 3,2 °C 90 % 1012,2 hPa 0,0 mm 2,9 km/h (1 Bft) O-NO 76 ° 0 min 0,000 mm 0,0 UV-I 28 W/m² 1,7 °C 3,2 °C 4,8 km/h (1 Bft)
20.11.2019 15:27 3,2 °C 90 % 1012,3 hPa 0,0 mm 1,6 km/h (1 Bft) O-NO 76 ° 0 min 0,000 mm 0,0 UV-I 26 W/m² 1,7 °C 3,2 °C 3,2 km/h (1 Bft)
20.11.2019 15:28 3,2 °C 90 % 1012,2 hPa 0,0 mm 1,4 km/h (1 Bft) O-NO 76 ° 0 min 0,000 mm 0,0 UV-I 26 W/m² 1,7 °C 3,2 °C 3,2 km/h (1 Bft)
20.11.2019 15:29 3,2 °C 90 % 1012,3 hPa 0,0 mm 3,5 km/h (1 Bft) O-NO 76 ° 0 min 0,000 mm 0,0 UV-I 26 W/m² 1,7 °C 3,2 °C 4,8 km/h (1 Bft)
20.11.2019 15:30 3,2 °C 90 % 1012,3 hPa 0,0 mm 4,0 km/h (1 Bft) O-NO 63 ° 0 min 0,000 mm 0,0 UV-I 25 W/m² 1,7 °C 3,2 °C 4,8 km/h (1 Bft)
20.11.2019 15:31 3,2 °C 90 % 1012,3 hPa 0,0 mm 4,0 km/h (1 Bft) O-NO 70 ° 0 min 0,000 mm 0,0 UV-I 25 W/m² 1,7 °C 3,2 °C 4,8 km/h (1 Bft)
20.11.2019 15:32 3,2 °C 90 % 1012,3 hPa 0,0 mm 4,6 km/h (1 Bft) O 90 ° 0 min 0,000 mm 0,0 UV-I 25 W/m² 1,7 °C 2,2 °C 6,4 km/h (2 Bft)
20.11.2019 15:33 3,2 °C 90 % 1012,3 hPa 0,0 mm 3,6 km/h (1 Bft) O 90 ° 0 min 0,000 mm 0,0 UV-I 25 W/m² 1,7 °C 3,2 °C 4,8 km/h (1 Bft)
20.11.2019 15:34 3,2 °C 90 % 1012,3 hPa 0,0 mm 3,0 km/h (1 Bft) O 90 ° 0 min 0,000 mm 0,0 UV-I 25 W/m² 1,7 °C 3,2 °C 4,8 km/h (1 Bft)
20.11.2019 15:35 3,2 °C 90 % 1012,3 hPa 0,0 mm 1,3 km/h (1 Bft) O 90 ° 0 min 0,000 mm 0,0 UV-I 23 W/m² 1,7 °C 3,2 °C 3,2 km/h (1 Bft)
20.11.2019 15:36 3,2 °C 90 % 1012,4 hPa 0,0 mm 1,6 km/h (1 Bft) O 90 ° 0 min 0,000 mm 0,0 UV-I 21 W/m² 1,7 °C 3,2 °C 3,2 km/h (1 Bft)
20.11.2019 15:37 3,2 °C 90 % 1012,3 hPa 0,0 mm 4,5 km/h (1 Bft) O 83 ° 0 min 0,000 mm 0,0 UV-I 21 W/m² 1,7 °C 3,2 °C 6,4 km/h (2 Bft)
20.11.2019 15:38 3,2 °C 90 % 1012,4 hPa 0,0 mm 5,0 km/h (1 Bft) O 83 ° 0 min 0,000 mm 0,0 UV-I 19 W/m² 1,7 °C 2,0 °C 6,4 km/h (2 Bft)
20.11.2019 15:39 3,2 °C 90 % 1012,4 hPa 0,0 mm 4,5 km/h (1 Bft) O 83 ° 0 min 0,000 mm 0,0 UV-I 19 W/m² 1,7 °C 3,2 °C 6,4 km/h (2 Bft)
20.11.2019 15:40 3,2 °C 90 % 1012,4 hPa 0,0 mm 2,7 km/h (1 Bft) O 83 ° 0 min 0,000 mm 0,0 UV-I 21 W/m² 1,7 °C 3,2 °C 4,8 km/h (1 Bft)
20.11.2019 15:41 3,2 °C 90 % 1012,4 hPa 0,0 mm 0,9 km/h (0 Bft) O 83 ° 0 min 0,000 mm 0,0 UV-I 21 W/m² 1,7 °C 3,2 °C 3,2 km/h (1 Bft)
20.11.2019 15:42 3,2 °C 90 % 1012,4 hPa 0,0 mm 2,8 km/h (1 Bft) O 83 ° 0 min 0,000 mm 0,0 UV-I 21 W/m² 1,7 °C 3,2 °C 4,8 km/h (1 Bft)
20.11.2019 15:43 3,1 °C 90 % 1012,3 hPa 0,0 mm 3,7 km/h (1 Bft) O-NO 69 ° 0 min 0,000 mm 0,0 UV-I 21 W/m² 1,6 °C 3,1 °C 4,8 km/h (1 Bft)
20.11.2019 15:44 3,2 °C 90 % 1012,3 hPa 0,0 mm 1,9 km/h (1 Bft) O-NO 69 ° 0 min 0,000 mm 0,0 UV-I 19 W/m² 1,7 °C 3,2 °C 4,8 km/h (1 Bft)
20.11.2019 15:45 3,1 °C 90 % 1012,3 hPa 0,0 mm 0,5 km/h (0 Bft) O-NO 69 ° 0 min 0,000 mm 0,0 UV-I 19 W/m² 1,6 °C 3,1 °C 1,6 km/h (1 Bft)
20.11.2019 15:46 3,2 °C 90 % 1012,3 hPa 0,0 mm 4,5 km/h (1 Bft) O-NO 65 ° 0 min 0,000 mm 0,0 UV-I 19 W/m² 1,7 °C 3,2 °C 6,4 km/h (2 Bft)
20.11.2019 15:47 3,2 °C 90 % 1012,3 hPa 0,0 mm 3,1 km/h (1 Bft) O-NO 65 ° 0 min 0,000 mm 0,0 UV-I 18 W/m² 1,7 °C 3,2 °C 4,8 km/h (1 Bft)
20.11.2019 15:48 3,2 °C 90 % 1012,3 hPa 0,0 mm 0,7 km/h (0 Bft) O-NO 69 ° 0 min 0,000 mm 0,0 UV-I 18 W/m² 1,7 °C 3,2 °C 1,6 km/h (1 Bft)
20.11.2019 15:49 3,2 °C 90 % 1012,3 hPa 0,0 mm 2,1 km/h (1 Bft) O-NO 69 ° 0 min 0,000 mm 0,0 UV-I 16 W/m² 1,7 °C 3,2 °C 3,2 km/h (1 Bft)
20.11.2019 15:50 3,2 °C 90 % 1012,3 hPa 0,0 mm 2,5 km/h (1 Bft) O-NO 69 ° 0 min 0,000 mm 0,0 UV-I 16 W/m² 1,7 °C 3,2 °C 4,8 km/h (1 Bft)
20.11.2019 15:51 3,1 °C 90 % 1012,4 hPa 0,0 mm 1,5 km/h (1 Bft) O-NO 69 ° 0 min 0,000 mm 0,0 UV-I 16 W/m² 1,6 °C 3,1 °C 4,8 km/h (1 Bft)
20.11.2019 15:52 3,2 °C 90 % 1012,4 hPa 0,0 mm 3,4 km/h (1 Bft) O-NO 69 ° 0 min 0,000 mm 0,0 UV-I 16 W/m² 1,7 °C 3,2 °C 4,8 km/h (1 Bft)
20.11.2019 15:53 3,2 °C 90 % 1012,4 hPa 0,0 mm 3,5 km/h (1 Bft) O-NO 69 ° 0 min 0,000 mm 0,0 UV-I 14 W/m² 1,7 °C 3,2 °C 4,8 km/h (1 Bft)
20.11.2019 15:54 3,1 °C 90 % 1012,4 hPa 0,0 mm 4,4 km/h (1 Bft) O-NO 63 ° 0 min 0,000 mm 0,0 UV-I 14 W/m² 1,6 °C 3,1 °C 6,4 km/h (2 Bft)
20.11.2019 15:55 3,1 °C 90 % 1012,4 hPa 0,0 mm 4,6 km/h (1 Bft) O-NO 62 ° 0 min 0,000 mm 0,0 UV-I 14 W/m² 1,6 °C 2,1 °C 6,4 km/h (2 Bft)
20.11.2019 15:56 3,1 °C 90 % 1012,4 hPa 0,0 mm 2,3 km/h (1 Bft) O-NO 65 ° 0 min 0,000 mm 0,0 UV-I 12 W/m² 1,6 °C 3,1 °C 4,8 km/h (1 Bft)
20.11.2019 15:57 3,1 °C 90 % 1012,4 hPa 0,0 mm 5,3 km/h (1 Bft) O 79 ° 0 min 0,000 mm 0,0 UV-I 12 W/m² 1,6 °C 1,8 °C 6,4 km/h (2 Bft)
20.11.2019 15:58 3,1 °C 90 % 1012,4 hPa 0,0 mm 4,6 km/h (1 Bft) O 79 ° 0 min 0,000 mm 0,0 UV-I 12 W/m² 1,6 °C 2,1 °C 4,8 km/h (1 Bft)
20.11.2019 15:59 3,1 °C 90 % 1012,4 hPa 0,0 mm 4,2 km/h (1 Bft) O-NO 66 ° 0 min 0,000 mm 0,0 UV-I 12 W/m² 1,6 °C 3,1 °C 6,4 km/h (2 Bft)
20.11.2019 16:00 3,1 °C 90 % 1012,4 hPa 0,0 mm 3,1 km/h (1 Bft) O-NO 67 ° 0 min 0,000 mm 0,0 UV-I 12 W/m² 1,6 °C 3,1 °C 4,8 km/h (1 Bft)
20.11.2019 16:01 3,1 °C 90 % 1012,4 hPa 0,0 mm 3,7 km/h (1 Bft) O-NO 61 ° 0 min 0,026 mm 0,0 UV-I 12 W/m² 1,6 °C 3,1 °C 6,4 km/h (2 Bft)
20.11.2019 16:02 3,1 °C 91 % 1012,4 hPa 0,0 mm 6,4 km/h (2 Bft) O-NO 61 ° 0 min 0,000 mm 0,0 UV-I 12 W/m² 1,8 °C 1,4 °C 8,0 km/h (2 Bft)
20.11.2019 16:03 3,1 °C 91 % 1012,4 hPa 0,0 mm 4,1 km/h (1 Bft) O-NO 61 ° 0 min 0,000 mm 0,0 UV-I 12 W/m² 1,8 °C 3,1 °C 4,8 km/h (1 Bft)
20.11.2019 16:04 3,0 °C 91 % 1012,4 hPa 0,0 mm 4,7 km/h (1 Bft) NO 55 ° 0 min 0,000 mm 0,0 UV-I 12 W/m² 1,7 °C 1,9 °C 8,0 km/h (2 Bft)
20.11.2019 16:05 3,0 °C 91 % 1012,4 hPa 0,0 mm 6,1 km/h (2 Bft) O 94 ° 0 min 0,000 mm 0,0 UV-I 12 W/m² 1,7 °C 1,4 °C 9,7 km/h (2 Bft)
20.11.2019 16:06 3,1 °C 91 % 1012,4 hPa 0,0 mm 4,8 km/h (1 Bft) O-NO 76 ° 0 min 0,000 mm 0,0 UV-I 11 W/m² 1,8 °C 2,0 °C 6,4 km/h (2 Bft)
20.11.2019 16:07 3,0 °C 91 % 1012,4 hPa 0,0 mm 6,1 km/h (2 Bft) O 84 ° 0 min 0,000 mm 0,0 UV-I 11 W/m² 1,7 °C 1,4 °C 8,0 km/h (2 Bft)
20.11.2019 16:08 2,9 °C 90 % 1012,4 hPa 0,0 mm 3,2 km/h (1 Bft) O 84 ° 0 min 0,000 mm 0,0 UV-I 11 W/m² 1,4 °C 2,9 °C 4,8 km/h (1 Bft)
20.11.2019 16:09 3,0 °C 90 % 1012,4 hPa 0,0 mm 2,7 km/h (1 Bft) O 84 ° 0 min 0,000 mm 0,0 UV-I 11 W/m² 1,5 °C 3,0 °C 4,8 km/h (1 Bft)
20.11.2019 16:10 2,9 °C 90 % 1012,3 hPa 0,0 mm 3,0 km/h (1 Bft) O 84 ° 0 min 0,000 mm 0,0 UV-I 9 W/m² 1,4 °C 2,9 °C 4,8 km/h (1 Bft)
20.11.2019 16:11 2,9 °C 90 % 1012,4 hPa 0,0 mm 2,3 km/h (1 Bft) O 84 ° 0 min 0,000 mm 0,0 UV-I 9 W/m² 1,4 °C 2,9 °C 3,2 km/h (1 Bft)
20.11.2019 16:12 2,9 °C 90 % 1012,4 hPa 0,0 mm 0,4 km/h (0 Bft) O 84 ° 0 min 0,000 mm 0,0 UV-I 7 W/m² 1,4 °C 2,9 °C 1,6 km/h (1 Bft)
20.11.2019 16:13 2,9 °C 90 % 1012,4 hPa 0,0 mm 0,0 km/h (0 Bft) O 84 ° 0 min 0,000 mm 0,0 UV-I 7 W/m² 1,4 °C 2,9 °C 0,0 km/h (0 Bft)
20.11.2019 16:14 2,9 °C 90 % 1012,3 hPa 0,0 mm 0,0 km/h (0 Bft) O 84 ° 0 min 0,000 mm 0,0 UV-I 7 W/m² 1,4 °C 2,9 °C 0,0 km/h (0 Bft)
20.11.2019 16:15 2,9 °C 90 % 1012,3 hPa 0,0 mm 0,0 km/h (0 Bft) O 84 ° 0 min 0,000 mm 0,0 UV-I 7 W/m² 1,4 °C 2,9 °C 0,0 km/h (0 Bft)
20.11.2019 16:16 2,9 °C 90 % 1012,3 hPa 0,0 mm 0,0 km/h (0 Bft) O 84 ° 0 min 0,000 mm 0,0 UV-I 7 W/m² 1,4 °C 2,9 °C 0,0 km/h (0 Bft)
20.11.2019 16:17 2,9 °C 90 % 1012,3 hPa 0,0 mm 0,0 km/h (0 Bft) O 84 ° 0 min 0,000 mm 0,0 UV-I 7 W/m² 1,4 °C 2,9 °C 0,0 km/h (0 Bft)
20.11.2019 16:18 2,9 °C 90 % 1012,4 hPa 0,0 mm 1,0 km/h (0 Bft) O 84 ° 0 min 0,000 mm 0,0 UV-I 7 W/m² 1,4 °C 2,9 °C 3,2 km/h (1 Bft)
20.11.2019 16:19 2,9 °C 90 % 1012,3 hPa 0,0 mm 3,1 km/h (1 Bft) O 84 ° 0 min 0,000 mm 0,0 UV-I 5 W/m² 1,4 °C 2,9 °C 4,8 km/h (1 Bft)
20.11.2019 16:20 2,9 °C 90 % 1012,3 hPa 0,0 mm 1,0 km/h (0 Bft) O 84 ° 0 min 0,000 mm 0,0 UV-I 5 W/m² 1,4 °C 2,9 °C 3,2 km/h (1 Bft)
20.11.2019 16:21 2,9 °C 90 % 1012,3 hPa 0,0 mm 0,0 km/h (0 Bft) O 84 ° 0 min 0,000 mm 0,0 UV-I 5 W/m² 1,4 °C 2,9 °C 0,0 km/h (0 Bft)
20.11.2019 16:22 2,9 °C 90 % 1012,3 hPa 0,0 mm 0,0 km/h (0 Bft) O 84 ° 0 min 0,000 mm 0,0 UV-I 5 W/m² 1,4 °C 2,9 °C 0,0 km/h (0 Bft)
20.11.2019 16:23 2,9 °C 90 % 1012,3 hPa 0,0 mm 0,0 km/h (0 Bft) O 84 ° 0 min 0,000 mm 0,0 UV-I 5 W/m² 1,4 °C 2,9 °C 0,0 km/h (0 Bft)
20.11.2019 16:24 2,9 °C 90 % 1012,3 hPa 0,0 mm 0,0 km/h (0 Bft) O 84 ° 0 min 0,000 mm 0,0 UV-I 5 W/m² 1,4 °C 2,9 °C 0,0 km/h (0 Bft)
20.11.2019 16:25 2,9 °C 90 % 1012,3 hPa 0,0 mm 0,0 km/h (0 Bft) O 84 ° 0 min 0,000 mm 0,0 UV-I 0 W/m² 1,4 °C 2,9 °C 0,0 km/h (0 Bft)
20.11.2019 16:26 2,9 °C 91 % 1012,3 hPa 0,0 mm 0,0 km/h (0 Bft) O 84 ° 0 min 0,000 mm 0,0 UV-I 0 W/m² 1,6 °C 2,9 °C 0,0 km/h (0 Bft)
20.11.2019 16:27 2,9 °C 91 % 1012,3 hPa 0,0 mm 0,0 km/h (0 Bft) O 84 ° 0 min 0,000 mm 0,0 UV-I 0 W/m² 1,6 °C 2,9 °C 0,0 km/h (0 Bft)
20.11.2019 16:28 2,9 °C 91 % 1012,3 hPa 0,0 mm 0,0 km/h (0 Bft) O 84 ° 0 min 0,000 mm 0,0 UV-I 0 W/m² 1,6 °C 2,9 °C 0,0 km/h (0 Bft)
20.11.2019 16:29 2,9 °C 91 % 1012,3 hPa 0,0 mm 0,0 km/h (0 Bft) O 84 ° 0 min 0,000 mm 0,0 UV-I 0 W/m² 1,6 °C 2,9 °C 0,0 km/h (0 Bft)
20.11.2019 16:30 2,9 °C 91 % 1012,3 hPa 0,0 mm 0,0 km/h (0 Bft) O 84 ° 0 min 0,000 mm 0,0 UV-I 0 W/m² 1,6 °C 2,9 °C 0,0 km/h (0 Bft)
20.11.2019 16:31 2,9 °C 91 % 1012,3 hPa 0,0 mm 0,0 km/h (0 Bft) O 84 ° 0 min 0,000 mm 0,0 UV-I 0 W/m² 1,6 °C 2,9 °C 0,0 km/h (0 Bft)
20.11.2019 16:32 2,9 °C 91 % 1012,3 hPa 0,0 mm 0,0 km/h (0 Bft) NO 36 ° 0 min 0,000 mm 0,0 UV-I 0 W/m² 1,6 °C 2,9 °C 0,0 km/h (0 Bft)
20.11.2019 16:33 2,9 °C 91 % 1012,3 hPa 0,0 mm 0,0 km/h (0 Bft) NO 36 ° 0 min 0,000 mm 0,0 UV-I 0 W/m² 1,6 °C 2,9 °C 0,0 km/h (0 Bft)
20.11.2019 16:34 2,9 °C 91 % 1012,3 hPa 0,0 mm 0,0 km/h (0 Bft) NO 36 ° 0 min 0,000 mm 0,0 UV-I 0 W/m² 1,6 °C 2,9 °C 0,0 km/h (0 Bft)
20.11.2019 16:35 2,9 °C 91 % 1012,3 hPa 0,0 mm 0,0 km/h (0 Bft) NO 36 ° 0 min 0,000 mm 0,0 UV-I 0 W/m² 1,6 °C 2,9 °C 0,0 km/h (0 Bft)
20.11.2019 16:36 2,9 °C 91 % 1012,3 hPa 0,0 mm 0,0 km/h (0 Bft) NO 36 ° 0 min 0,000 mm 0,0 UV-I 0 W/m² 1,6 °C 2,9 °C 0,0 km/h (0 Bft)
20.11.2019 16:37 2,9 °C 91 % 1012,3 hPa 0,0 mm 0,0 km/h (0 Bft) N-NO 32 ° 0 min 0,000 mm 0,0 UV-I 0 W/m² 1,6 °C 2,9 °C 0,0 km/h (0 Bft)
20.11.2019 16:38 2,9 °C 91 % 1012,3 hPa 0,0 mm 2,7 km/h (1 Bft) N-NW 342 ° 0 min 0,000 mm 0,0 UV-I 0 W/m² 1,6 °C 2,9 °C 4,8 km/h (1 Bft)
20.11.2019 16:39 2,9 °C 91 % 1012,4 hPa 0,0 mm 1,4 km/h (1 Bft) N-NW 342 ° 0 min 0,000 mm 0,0 UV-I 0 W/m² 1,6 °C 2,9 °C 3,2 km/h (1 Bft)
20.11.2019 16:40 2,9 °C 91 % 1012,3 hPa 0,0 mm 3,1 km/h (1 Bft) N-NW 344 ° 0 min 0,000 mm 0,0 UV-I 0 W/m² 1,6 °C 2,9 °C 4,8 km/h (1 Bft)
20.11.2019 16:41 2,9 °C 91 % 1012,3 hPa 0,0 mm 2,3 km/h (1 Bft) N-NW 344 ° 0 min 0,000 mm 0,0 UV-I 0 W/m² 1,6 °C 2,9 °C 4,8 km/h (1 Bft)
20.11.2019 16:42 2,9 °C 91 % 1012,3 hPa 0,0 mm 2,1 km/h (1 Bft) N-NW 344 ° 0 min 0,000 mm 0,0 UV-I 0 W/m² 1,6 °C 2,9 °C 3,2 km/h (1 Bft)
20.11.2019 16:43 2,8 °C 91 % 1012,3 hPa 0,0 mm 0,6 km/h (0 Bft) N-NW 344 ° 0 min 0,000 mm 0,0 UV-I 0 W/m² 1,5 °C 2,8 °C 3,2 km/h (1 Bft)
20.11.2019 16:44 2,9 °C 91 % 1012,3 hPa 0,0 mm 2,4 km/h (1 Bft) N-NW 344 ° 0 min 0,000 mm 0,0 UV-I 0 W/m² 1,6 °C 2,9 °C 4,8 km/h (1 Bft)
20.11.2019 16:45 2,8 °C 91 % 1012,4 hPa 0,0 mm 4,1 km/h (1 Bft) N-NO 23 ° 0 min 0,000 mm 0,0 UV-I 0 W/m² 1,5 °C 2,8 °C 6,4 km/h (2 Bft)
20.11.2019 16:46 2,8 °C 91 % 1012,3 hPa 0,0 mm 2,2 km/h (1 Bft) N-NO 22 ° 0 min 0,000 mm 0,0 UV-I 0 W/m² 1,5 °C 2,8 °C 3,2 km/h (1 Bft)
20.11.2019 16:47 2,8 °C 91 % 1012,3 hPa 0,0 mm 1,7 km/h (1 Bft) N-NO 22 ° 0 min 0,000 mm 0,0 UV-I 0 W/m² 1,5 °C 2,8 °C 3,2 km/h (1 Bft)
20.11.2019 16:48 2,8 °C 91 % 1012,3 hPa 0,0 mm 1,0 km/h (0 Bft) N-NO 23 ° 0 min 0,000 mm 0,0 UV-I 0 W/m² 1,5 °C 2,8 °C 3,2 km/h (1 Bft)
20.11.2019 16:49 2,8 °C 91 % 1012,4 hPa 0,0 mm 3,6 km/h (1 Bft) N-NO 23 ° 0 min 0,000 mm 0,0 UV-I 0 W/m² 1,5 °C 2,8 °C 4,8 km/h (1 Bft)
20.11.2019 16:50 2,8 °C 91 % 1012,3 hPa 0,0 mm 2,3 km/h (1 Bft) N-NO 23 ° 0 min 0,000 mm 0,0 UV-I 0 W/m² 1,5 °C 2,8 °C 3,2 km/h (1 Bft)
20.11.2019 16:51 2,8 °C 91 % 1012,4 hPa 0,0 mm 0,9 km/h (0 Bft) N-NO 23 ° 0 min 0,000 mm 0,0 UV-I 0 W/m² 1,5 °C 2,8 °C 1,6 km/h (1 Bft)
20.11.2019 16:52 2,8 °C 91 % 1012,4 hPa 0,0 mm 0,9 km/h (0 Bft) N-NO 23 ° 0 min 0,000 mm 0,0 UV-I 0 W/m² 1,5 °C 2,8 °C 3,2 km/h (1 Bft)
20.11.2019 16:53 2,8 °C 91 % 1012,3 hPa 0,0 mm 1,3 km/h (1 Bft) N-NO 23 ° 0 min 0,000 mm 0,0 UV-I 0 W/m² 1,5 °C 2,8 °C 3,2 km/h (1 Bft)
20.11.2019 16:54 2,8 °C 91 % 1012,3 hPa 0,0 mm 2,8 km/h (1 Bft) N-NO 23 ° 0 min 0,000 mm 0,0 UV-I 0 W/m² 1,5 °C 2,8 °C 4,8 km/h (1 Bft)
20.11.2019 16:55 2,8 °C 91 % 1012,4 hPa 0,0 mm 2,6 km/h (1 Bft) N-NO 23 ° 0 min 0,000 mm 0,0 UV-I 0 W/m² 1,5 °C 2,8 °C 4,8 km/h (1 Bft)
20.11.2019 16:56 2,8 °C 91 % 1012,4 hPa 0,0 mm 2,3 km/h (1 Bft) N-NO 23 ° 0 min 0,000 mm 0,0 UV-I 0 W/m² 1,5 °C 2,8 °C 4,8 km/h (1 Bft)
20.11.2019 16:57 2,8 °C 91 % 1012,4 hPa 0,0 mm 1,6 km/h (1 Bft) N-NO 23 ° 0 min 0,000 mm 0,0 UV-I 0 W/m² 1,5 °C 2,8 °C 3,2 km/h (1 Bft)
20.11.2019 16:58 2,8 °C 91 % 1012,4 hPa 0,0 mm 0,1 km/h (0 Bft) N-NO 23 ° 0 min 0,000 mm 0,0 UV-I 0 W/m² 1,5 °C 2,8 °C 1,6 km/h (1 Bft)
20.11.2019 16:59 2,8 °C 91 % 1012,4 hPa 0,0 mm 0,1 km/h (0 Bft) N-NO 23 ° 0 min 0,000 mm 0,0 UV-I 0 W/m² 1,5 °C 2,8 °C 1,6 km/h (1 Bft)
20.11.2019 17:00 2,7 °C 91 % 1012,4 hPa 0,0 mm 0,0 km/h (0 Bft) N-NO 23 ° 0 min 0,000 mm 0,0 UV-I 0 W/m² 1,4 °C 2,7 °C 0,0 km/h (0 Bft)
20.11.2019 17:01 2,7 °C 91 % 1012,4 hPa 0,0 mm 1,3 km/h (1 Bft) N-NO 23 ° 0 min 0,000 mm 0,0 UV-I 0 W/m² 1,4 °C 2,7 °C 3,2 km/h (1 Bft)
20.11.2019 17:02 2,7 °C 91 % 1012,4 hPa 0,0 mm 2,8 km/h (1 Bft) N-NO 23 ° 0 min 0,000 mm 0,0 UV-I 0 W/m² 1,4 °C 2,7 °C 4,8 km/h (1 Bft)
20.11.2019 17:03 2,8 °C 91 % 1012,4 hPa 0,0 mm 2,9 km/h (1 Bft) N-NO 23 ° 0 min 0,000 mm 0,0 UV-I 0 W/m² 1,5 °C 2,8 °C 4,8 km/h (1 Bft)
20.11.2019 17:04 2,7 °C 91 % 1012,4 hPa 0,0 mm 2,0 km/h (1 Bft) N-NO 23 ° 0 min 0,000 mm 0,0 UV-I 0 W/m² 1,4 °C 2,7 °C 3,2 km/h (1 Bft)
20.11.2019 17:05 2,8 °C 91 % 1012,5 hPa 0,0 mm 0,0 km/h (0 Bft) N-NO 23 ° 0 min 0,000 mm 0,0 UV-I 0 W/m² 1,5 °C 2,8 °C 0,0 km/h (0 Bft)
20.11.2019 17:06 2,7 °C 91 % 1012,4 hPa 0,0 mm 0,0 km/h (0 Bft) N-NO 23 ° 0 min 0,000 mm 0,0 UV-I 0 W/m² 1,4 °C 2,7 °C 0,0 km/h (0 Bft)
20.11.2019 17:07 2,7 °C 91 % 1012,4 hPa 0,0 mm 0,0 km/h (0 Bft) N-NO 23 ° 0 min 0,000 mm 0,0 UV-I 0 W/m² 1,4 °C 2,7 °C 0,0 km/h (0 Bft)
20.11.2019 17:08 2,7 °C 91 % 1012,4 hPa 0,0 mm 0,0 km/h (0 Bft) N-NO 23 ° 0 min 0,000 mm 0,0 UV-I 0 W/m² 1,4 °C 2,7 °C 0,0 km/h (0 Bft)
20.11.2019 17:09 2,8 °C 91 % 1012,5 hPa 0,0 mm 0,0 km/h (0 Bft) N-NO 23 ° 0 min 0,000 mm 0,0 UV-I 0 W/m² 1,5 °C 2,8 °C 0,0 km/h (0 Bft)
20.11.2019 17:10 2,7 °C 91 % 1012,5 hPa 0,0 mm 0,2 km/h (0 Bft) N-NO 23 ° 0 min 0,000 mm 0,0 UV-I 0 W/m² 1,4 °C 2,7 °C 3,2 km/h (1 Bft)
20.11.2019 17:11 2,7 °C 91 % 1012,5 hPa 0,0 mm 3,8 km/h (1 Bft) N-NO 23 ° 0 min 0,000 mm 0,0 UV-I 0 W/m² 1,4 °C 2,7 °C 6,4 km/h (2 Bft)
20.11.2019 17:12 2,7 °C 91 % 1012,5 hPa 0,0 mm 2,9 km/h (1 Bft) N-NO 23 ° 0 min 0,000 mm 0,0 UV-I 0 W/m² 1,4 °C 2,7 °C 3,2 km/h (1 Bft)
20.11.2019 17:13 2,7 °C 91 % 1012,5 hPa 0,0 mm 1,4 km/h (1 Bft) N-NO 23 ° 0 min 0,000 mm 0,0 UV-I 0 W/m² 1,4 °C 2,7 °C 4,8 km/h (1 Bft)
20.11.2019 17:14 2,7 °C 91 % 1012,5 hPa 0,0 mm 1,4 km/h (1 Bft) N-NO 23 ° 0 min 0,000 mm 0,0 UV-I 0 W/m² 1,4 °C 2,7 °C 3,2 km/h (1 Bft)
20.11.2019 17:15 2,7 °C 91 % 1012,5 hPa 0,0 mm 2,2 km/h (1 Bft) N-NO 23 ° 0 min 0,000 mm 0,0 UV-I 0 W/m² 1,4 °C 2,7 °C 3,2 km/h (1 Bft)
20.11.2019 17:16 2,7 °C 91 % 1012,5 hPa 0,0 mm 3,4 km/h (1 Bft) O-NO 69 ° 0 min 0,000 mm 0,0 UV-I 0 W/m² 1,4 °C 2,7 °C 4,8 km/h (1 Bft)
20.11.2019 17:17 2,7 °C 91 % 1012,6 hPa 0,0 mm 2,5 km/h (1 Bft) O-NO 69 ° 0 min 0,000 mm 0,0 UV-I 0 W/m² 1,4 °C 2,7 °C 4,8 km/h (1 Bft)
20.11.2019 17:18 2,7 °C 91 % 1012,5 hPa 0,0 mm 3,1 km/h (1 Bft) O 97 ° 0 min 0,000 mm 0,0 UV-I 0 W/m² 1,4 °C 2,7 °C 4,8 km/h (1 Bft)
20.11.2019 17:19 2,7 °C 91 % 1012,5 hPa 0,0 mm 3,6 km/h (1 Bft) O 97 ° 0 min 0,000 mm 0,0 UV-I 0 W/m² 1,4 °C 2,7 °C 4,8 km/h (1 Bft)
20.11.2019 17:20 2,7 °C 91 % 1012,5 hPa 0,0 mm 4,8 km/h (1 Bft) O 96 ° 0 min 0,000 mm 0,0 UV-I 0 W/m² 1,4 °C 1,6 °C 6,4 km/h (2 Bft)
20.11.2019 17:21 2,6 °C 91 % 1012,6 hPa 0,0 mm 3,2 km/h (1 Bft) O 96 ° 0 min 0,000 mm 0,0 UV-I 0 W/m² 1,3 °C 2,6 °C 4,8 km/h (1 Bft)
20.11.2019 17:22 2,7 °C 91 % 1012,6 hPa 0,0 mm 2,8 km/h (1 Bft) O 95 ° 0 min 0,000 mm 0,0 UV-I 0 W/m² 1,4 °C 2,7 °C 4,8 km/h (1 Bft)
20.11.2019 17:23 2,6 °C 92 % 1012,6 hPa 0,0 mm 2,5 km/h (1 Bft) O 95 ° 0 min 0,000 mm 0,0 UV-I 0 W/m² 1,4 °C 2,6 °C 4,8 km/h (1 Bft)
20.11.2019 17:24 2,6 °C 92 % 1012,5 hPa 0,0 mm 1,7 km/h (1 Bft) O 95 ° 0 min 0,000 mm 0,0 UV-I 0 W/m² 1,4 °C 2,6 °C 3,2 km/h (1 Bft)
20.11.2019 17:25 2,6 °C 92 % 1012,6 hPa 0,0 mm 0,5 km/h (0 Bft) O 95 ° 0 min 0,000 mm 0,0 UV-I 0 W/m² 1,4 °C 2,6 °C 1,6 km/h (1 Bft)
20.11.2019 17:26 2,6 °C 92 % 1012,5 hPa 0,0 mm 4,6 km/h (1 Bft) O-NO 76 ° 0 min 0,000 mm 0,0 UV-I 0 W/m² 1,4 °C 1,5 °C 6,4 km/h (2 Bft)
20.11.2019 17:27 2,6 °C 92 % 1012,5 hPa 0,0 mm 4,1 km/h (1 Bft) O-NO 61 ° 0 min 0,000 mm 0,0 UV-I 0 W/m² 1,4 °C 2,6 °C 4,8 km/h (1 Bft)
20.11.2019 17:28 2,6 °C 91 % 1012,5 hPa 0,0 mm 3,4 km/h (1 Bft) O-NO 61 ° 0 min 0,000 mm 0,0 UV-I 0 W/m² 1,3 °C 2,6 °C 4,8 km/h (1 Bft)
20.11.2019 17:29 2,6 °C 92 % 1012,5 hPa 0,0 mm 4,4 km/h (1 Bft) O-NO 61 ° 0 min 0,000 mm 0,0 UV-I 0 W/m² 1,4 °C 2,6 °C 6,4 km/h (2 Bft)
20.11.2019 17:30 2,6 °C 92 % 1012,4 hPa 0,0 mm 2,7 km/h (1 Bft) O-NO 61 ° 0 min 0,000 mm 0,0 UV-I 0 W/m² 1,4 °C 2,6 °C 4,8 km/h (1 Bft)
20.11.2019 17:31 2,6 °C 92 % 1012,4 hPa 0,0 mm 2,7 km/h (1 Bft) O-NO 61 ° 0 min 0,000 mm 0,0 UV-I 0 W/m² 1,4 °C 2,6 °C 3,2 km/h (1 Bft)
20.11.2019 17:32 2,6 °C 92 % 1012,5 hPa 0,0 mm 2,0 km/h (1 Bft) O-NO 61 ° 0 min 0,000 mm 0,0 UV-I 0 W/m² 1,4 °C 2,6 °C 3,2 km/h (1 Bft)
20.11.2019 17:33 2,6 °C 92 % 1012,4 hPa 0,0 mm 0,9 km/h (0 Bft) O-NO 61 ° 0 min 0,000 mm 0,0 UV-I 0 W/m² 1,4 °C 2,6 °C 3,2 km/h (1 Bft)
20.11.2019 17:34 2,6 °C 92 % 1012,4 hPa 0,0 mm 1,8 km/h (1 Bft) O-NO 61 ° 0 min 0,000 mm 0,0 UV-I 0 W/m² 1,4 °C 2,6 °C 3,2 km/h (1 Bft)
20.11.2019 17:35 2,6 °C 92 % 1012,4 hPa 0,0 mm 1,9 km/h (1 Bft) O-NO 61 ° 0 min 0,000 mm 0,0 UV-I 0 W/m² 1,4 °C 2,6 °C 3,2 km/h (1 Bft)
20.11.2019 17:36 2,6 °C 92 % 1012,4 hPa 0,0 mm 0,7 km/h (0 Bft) O-NO 61 ° 0 min 0,000 mm 0,0 UV-I 0 W/m² 1,4 °C 2,6 °C 1,6 km/h (1 Bft)
20.11.2019 17:37 2,6 °C 92 % 1012,4 hPa 0,0 mm 0,0 km/h (0 Bft) O-NO 61 ° 0 min 0,000 mm 0,0 UV-I 0 W/m² 1,4 °C 2,6 °C 0,0 km/h (0 Bft)
20.11.2019 17:38 2,6 °C 92 % 1012,4 hPa 0,0 mm 1,4 km/h (1 Bft) O-NO 61 ° 0 min 0,000 mm 0,0 UV-I 0 W/m² 1,4 °C 2,6 °C 3,2 km/h (1 Bft)
20.11.2019 17:39 2,5 °C 92 % 1012,3 hPa 0,0 mm 1,7 km/h (1 Bft) O-NO 61 ° 0 min 0,000 mm 0,0 UV-I 0 W/m² 1,3 °C 2,5 °C 3,2 km/h (1 Bft)
20.11.2019 17:40 2,5 °C 92 % 1012,3 hPa 0,0 mm 0,6 km/h (0 Bft) O-NO 61 ° 0 min 0,000 mm 0,0 UV-I 0 W/m² 1,3 °C 2,5 °C 1,6 km/h (1 Bft)
20.11.2019 17:41 2,6 °C 92 % 1012,3 hPa 0,0 mm 0,0 km/h (0 Bft) O-NO 61 ° 0 min 0,000 mm 0,0 UV-I 0 W/m² 1,4 °C 2,6 °C 0,0 km/h (0 Bft)
20.11.2019 17:42 2,5 °C 92 % 1012,3 hPa 0,0 mm 0,0 km/h (0 Bft) O-NO 61 ° 0 min 0,000 mm 0,0 UV-I 0 W/m² 1,3 °C 2,5 °C 0,0 km/h (0 Bft)
20.11.2019 17:43 2,5 °C 92 % 1012,3 hPa 0,0 mm 0,0 km/h (0 Bft) O-NO 61 ° 0 min 0,000 mm 0,0 UV-I 0 W/m² 1,3 °C 2,5 °C 0,0 km/h (0 Bft)
20.11.2019 17:44 2,5 °C 92 % 1012,3 hPa 0,0 mm 0,0 km/h (0 Bft) O-NO 61 ° 0 min 0,000 mm 0,0 UV-I 0 W/m² 1,3 °C 2,5 °C 0,0 km/h (0 Bft)
20.11.2019 17:45 2,5 °C 92 % 1012,3 hPa 0,0 mm 0,0 km/h (0 Bft) O-NO 61 ° 0 min 0,000 mm 0,0 UV-I 0 W/m² 1,3 °C 2,5 °C 0,0 km/h (0 Bft)
20.11.2019 17:46 2,5 °C 92 % 1012,2 hPa 0,0 mm 0,8 km/h (0 Bft) O-NO 61 ° 0 min 0,000 mm 0,0 UV-I 0 W/m² 1,3 °C 2,5 °C 3,2 km/h (1 Bft)
20.11.2019 17:47 2,5 °C 92 % 1012,2 hPa 0,0 mm 2,5 km/h (1 Bft) O-NO 61 ° 0 min 0,000 mm 0,0 UV-I 0 W/m² 1,3 °C 2,5 °C 3,2 km/h (1 Bft)
20.11.2019 17:48 2,5 °C 92 % 1012,3 hPa 0,0 mm 0,1 km/h (0 Bft) O-NO 61 ° 0 min 0,000 mm 0,0 UV-I 0 W/m² 1,3 °C 2,5 °C 1,6 km/h (1 Bft)
20.11.2019 17:49 2,5 °C 92 % 1012,3 hPa 0,0 mm 0,0 km/h (0 Bft) O-NO 61 ° 0 min 0,000 mm 0,0 UV-I 0 W/m² 1,3 °C 2,5 °C 0,0 km/h (0 Bft)
20.11.2019 17:50 2,5 °C 92 % 1012,3 hPa 0,0 mm 0,0 km/h (0 Bft) O-NO 61 ° 0 min 0,000 mm 0,0 UV-I 0 W/m² 1,3 °C 2,5 °C 0,0 km/h (0 Bft)
20.11.2019 17:51 2,4 °C 92 % 1012,3 hPa 0,0 mm 0,3 km/h (0 Bft) O-NO 61 ° 0 min 0,000 mm 0,0 UV-I 0 W/m² 1,2 °C 2,4 °C 1,6 km/h (1 Bft)
20.11.2019 17:52 2,5 °C 92 % 1012,3 hPa 0,0 mm 0,0 km/h (0 Bft) O-NO 61 ° 0 min 0,000 mm 0,0 UV-I 0 W/m² 1,3 °C 2,5 °C 0,0 km/h (0 Bft)
20.11.2019 17:53 2,5 °C 92 % 1012,2 hPa 0,0 mm 2,5 km/h (1 Bft) O-NO 61 ° 0 min 0,000 mm 0,0 UV-I 0 W/m² 1,3 °C 2,5 °C 4,8 km/h (1 Bft)
20.11.2019 17:54 2,4 °C 92 % 1012,2 hPa 0,0 mm 1,2 km/h (1 Bft) O-NO 61 ° 0 min 0,000 mm 0,0 UV-I 0 W/m² 1,2 °C 2,4 °C 3,2 km/h (1 Bft)
20.11.2019 17:55 2,5 °C 92 % 1012,2 hPa 0,0 mm 0,0 km/h (0 Bft) O-NO 61 ° 0 min 0,000 mm 0,0 UV-I 0 W/m² 1,3 °C 2,5 °C 0,0 km/h (0 Bft)
20.11.2019 17:56 2,5 °C 92 % 1012,1 hPa 0,0 mm 0,0 km/h (0 Bft) O-NO 61 ° 0 min 0,000 mm 0,0 UV-I 0 W/m² 1,3 °C 2,5 °C 0,0 km/h (0 Bft)
20.11.2019 17:57 2,4 °C 92 % 1012,2 hPa 0,0 mm 1,4 km/h (1 Bft) O-NO 61 ° 0 min 0,000 mm 0,0 UV-I 0 W/m² 1,2 °C 2,4 °C 3,2 km/h (1 Bft)
20.11.2019 17:58 2,4 °C 92 % 1012,1 hPa 0,0 mm 2,2 km/h (1 Bft) O-NO 61 ° 0 min 0,000 mm 0,0 UV-I 0 W/m² 1,2 °C 2,4 °C 3,2 km/h (1 Bft)
20.11.2019 17:59 2,4 °C 92 % 1012,1 hPa 0,0 mm 2,7 km/h (1 Bft) O-NO 61 ° 0 min 0,000 mm 0,0 UV-I 0 W/m² 1,2 °C 2,4 °C 4,8 km/h (1 Bft)
20.11.2019 18:00 2,4 °C 92 % 1012,1 hPa 0,0 mm 1,7 km/h (1 Bft) O-NO 61 ° 0 min 0,000 mm 0,0 UV-I 0 W/m² 1,2 °C 2,4 °C 3,2 km/h (1 Bft)
20.11.2019 18:01 2,5 °C 92 % 1012,1 hPa 0,0 mm 2,2 km/h (1 Bft) O-NO 61 ° 0 min 0,000 mm 0,0 UV-I 0 W/m² 1,3 °C 2,5 °C 3,2 km/h (1 Bft)
20.11.2019 18:02 2,4 °C 92 % 1012,1 hPa 0,0 mm 1,9 km/h (1 Bft) O-NO 61 ° 0 min 0,000 mm 0,0 UV-I 0 W/m² 1,2 °C 2,4 °C 3,2 km/h (1 Bft)
20.11.2019 18:03 2,4 °C 92 % 1012,1 hPa 0,0 mm 0,0 km/h (0 Bft) O-NO 61 ° 0 min 0,000 mm 0,0 UV-I 0 W/m² 1,2 °C 2,4 °C 0,0 km/h (0 Bft)
20.11.2019 18:04 2,4 °C 92 % 1012,0 hPa 0,0 mm 0,0 km/h (0 Bft) O-NO 61 ° 0 min 0,000 mm 0,0 UV-I 0 W/m² 1,2 °C 2,4 °C 0,0 km/h (0 Bft)
20.11.2019 18:05 2,4 °C 92 % 1012,0 hPa 0,0 mm 0,0 km/h (0 Bft) O-NO 61 ° 0 min 0,000 mm 0,0 UV-I 0 W/m² 1,2 °C 2,4 °C 0,0 km/h (0 Bft)
20.11.2019 18:06 2,4 °C 92 % 1012,0 hPa 0,0 mm 0,6 km/h (0 Bft) O-NO 61 ° 0 min 0,000 mm 0,0 UV-I 0 W/m² 1,2 °C 2,4 °C 1,6 km/h (1 Bft)
20.11.2019 18:07 2,4 °C 92 % 1012,0 hPa 0,0 mm 1,3 km/h (1 Bft) O-NO 61 ° 0 min 0,000 mm 0,0 UV-I 0 W/m² 1,2 °C 2,4 °C 3,2 km/h (1 Bft)
20.11.2019 18:08 2,4 °C 92 % 1012,0 hPa 0,0 mm 2,6 km/h (1 Bft) O-NO 61 ° 0 min 0,000 mm 0,0 UV-I 0 W/m² 1,2 °C 2,4 °C 3,2 km/h (1 Bft)
20.11.2019 18:09 2,4 °C 92 % 1012,0 hPa 0,0 mm 1,8 km/h (1 Bft) O-NO 61 ° 0 min 0,000 mm 0,0 UV-I 0 W/m² 1,2 °C 2,4 °C 3,2 km/h (1 Bft)
20.11.2019 18:10 2,4 °C 92 % 1012,0 hPa 0,0 mm 0,0 km/h (0 Bft) O-NO 61 ° 0 min 0,000 mm 0,0 UV-I 0 W/m² 1,2 °C 2,4 °C 0,0 km/h (0 Bft)
20.11.2019 18:11 2,4 °C 92 % 1012,0 hPa 0,0 mm 0,1 km/h (0 Bft) O-NO 61 ° 0 min 0,000 mm 0,0 UV-I 0 W/m² 1,2 °C 2,4 °C 1,6 km/h (1 Bft)
20.11.2019 18:12 2,4 °C 92 % 1012,0 hPa 0,0 mm 0,0 km/h (0 Bft) O-NO 61 ° 0 min 0,000 mm 0,0 UV-I 0 W/m² 1,2 °C 2,4 °C 0,0 km/h (0 Bft)
20.11.2019 18:13 2,4 °C 92 % 1012,0 hPa 0,0 mm 1,4 km/h (1 Bft) O-NO 61 ° 0 min 0,000 mm 0,0 UV-I 0 W/m² 1,2 °C 2,4 °C 4,8 km/h (1 Bft)
20.11.2019 18:14 2,4 °C 92 % 1012,1 hPa 0,0 mm 1,0 km/h (0 Bft) O-NO 61 ° 0 min 0,000 mm 0,0 UV-I 0 W/m² 1,2 °C 2,4 °C 1,6 km/h (1 Bft)
20.11.2019 18:15 2,4 °C 92 % 1012,1 hPa 0,0 mm 0,0 km/h (0 Bft) O-NO 61 ° 0 min 0,000 mm 0,0 UV-I 0 W/m² 1,2 °C 2,4 °C 0,0 km/h (0 Bft)
20.11.2019 18:16 2,4 °C 92 % 1012,0 hPa 0,0 mm 0,0 km/h (0 Bft) O-NO 61 ° 0 min 0,000 mm 0,0 UV-I 0 W/m² 1,2 °C 2,4 °C 0,0 km/h (0 Bft)
20.11.2019 18:17 2,4 °C 92 % 1012,0 hPa 0,0 mm 0,1 km/h (0 Bft) O-NO 61 ° 0 min 0,000 mm 0,0 UV-I 0 W/m² 1,2 °C 2,4 °C 1,6 km/h (1 Bft)
20.11.2019 18:18 2,4 °C 92 % 1012,0 hPa 0,0 mm 2,5 km/h (1 Bft) O-NO 61 ° 0 min 0,000 mm 0,0 UV-I 0 W/m² 1,2 °C 2,4 °C 3,2 km/h (1 Bft)
20.11.2019 18:19 2,4 °C 92 % 1012,0 hPa 0,0 mm 2,6 km/h (1 Bft) O-NO 61 ° 0 min 0,000 mm 0,0 UV-I 0 W/m² 1,2 °C 2,4 °C 4,8 km/h (1 Bft)
20.11.2019 18:20 2,4 °C 92 % 1012,0 hPa 0,0 mm 2,3 km/h (1 Bft) O-NO 61 ° 0 min 0,000 mm 0,0 UV-I 0 W/m² 1,2 °C 2,4 °C 4,8 km/h (1 Bft)
20.11.2019 18:21 2,4 °C 92 % 1012,0 hPa 0,0 mm 1,7 km/h (1 Bft) O-NO 61 ° 0 min 0,000 mm 0,0 UV-I 0 W/m² 1,2 °C 2,4 °C 3,2 km/h (1 Bft)
20.11.2019 18:22 2,4 °C 92 % 1012,0 hPa 0,0 mm 1,9 km/h (1 Bft) O-NO 61 ° 0 min 0,000 mm 0,0 UV-I 0 W/m² 1,2 °C 2,4 °C 3,2 km/h (1 Bft)
20.11.2019 18:23 2,4 °C 92 % 1012,0 hPa 0,0 mm 2,1 km/h (1 Bft) O-NO 61 ° 0 min 0,000 mm 0,0 UV-I 0 W/m² 1,2 °C 2,4 °C 3,2 km/h (1 Bft)
20.11.2019 18:24 2,4 °C 92 % 1012,1 hPa 0,0 mm 1,3 km/h (1 Bft) O-NO 61 ° 0 min 0,000 mm 0,0 UV-I 0 W/m² 1,2 °C 2,4 °C 3,2 km/h (1 Bft)
20.11.2019 18:25 2,4 °C 92 % 1012,1 hPa 0,0 mm 1,2 km/h (1 Bft) O-NO 61 ° 0 min 0,000 mm 0,0 UV-I 0 W/m² 1,2 °C 2,4 °C 4,8 km/h (1 Bft)
20.11.2019 18:26 2,4 °C 92 % 1012,1 hPa 0,0 mm 1,6 km/h (1 Bft) O-NO 61 ° 0 min 0,000 mm 0,0 UV-I 0 W/m² 1,2 °C 2,4 °C 3,2 km/h (1 Bft)
20.11.2019 18:27 2,4 °C 92 % 1012,1 hPa 0,0 mm 2,3 km/h (1 Bft) O-NO 61 ° 0 min 0,000 mm 0,0 UV-I 0 W/m² 1,2 °C 2,4 °C 3,2 km/h (1 Bft)
20.11.2019 18:28 2,4 °C 92 % 1012,1 hPa 0,0 mm 2,3 km/h (1 Bft) O-NO 61 ° 0 min 0,000 mm 0,0 UV-I 0 W/m² 1,2 °C 2,4 °C 3,2 km/h (1 Bft)
20.11.2019 18:29 2,4 °C 92 % 1012,1 hPa 0,0 mm 2,3 km/h (1 Bft) O-NO 61 ° 0 min 0,000 mm 0,0 UV-I 0 W/m² 1,2 °C 2,4 °C 3,2 km/h (1 Bft)
20.11.2019 18:30 2,3 °C 92 % 1012,1 hPa 0,0 mm 0,5 km/h (0 Bft) O-NO 61 ° 0 min 0,000 mm 0,0 UV-I 0 W/m² 1,1 °C 2,3 °C 3,2 km/h (1 Bft)
20.11.2019 18:31 2,4 °C 92 % 1012,1 hPa 0,0 mm 2,7 km/h (1 Bft) O-NO 61 ° 0 min 0,000 mm 0,0 UV-I 0 W/m² 1,2 °C 2,4 °C 4,8 km/h (1 Bft)
20.11.2019 18:32 2,4 °C 92 % 1012,1 hPa 0,0 mm 1,0 km/h (0 Bft) O-NO 61 ° 0 min 0,000 mm 0,0 UV-I 0 W/m² 1,2 °C 2,4 °C 3,2 km/h (1 Bft)
20.11.2019 18:33 2,4 °C 92 % 1012,1 hPa 0,0 mm 0,0 km/h (0 Bft) O-NO 61 ° 0 min 0,000 mm 0,0 UV-I 0 W/m² 1,2 °C 2,4 °C 0,0 km/h (0 Bft)
20.11.2019 18:34 2,3 °C 92 % 1012,1 hPa 0,0 mm 0,7 km/h (0 Bft) O-NO 61 ° 0 min 0,000 mm 0,0 UV-I 0 W/m² 1,1 °C 2,3 °C 3,2 km/h (1 Bft)
20.11.2019 18:35 2,4 °C 92 % 1012,1 hPa 0,0 mm 1,2 km/h (1 Bft) O-NO 61 ° 0 min 0,000 mm 0,0 UV-I 0 W/m² 1,2 °C 2,4 °C 1,6 km/h (1 Bft)
20.11.2019 18:36 2,3 °C 92 % 1012,1 hPa 0,0 mm 0,0 km/h (0 Bft) O-NO 61 ° 0 min 0,000 mm 0,0 UV-I 0 W/m² 1,1 °C 2,3 °C 0,0 km/h (0 Bft)
20.11.2019 18:37 2,3 °C 92 % 1012,1 hPa 0,0 mm 1,3 km/h (1 Bft) O-NO 61 ° 0 min 0,000 mm 0,0 UV-I 0 W/m² 1,1 °C 2,3 °C 3,2 km/h (1 Bft)
20.11.2019 18:38 2,3 °C 92 % 1012,2 hPa 0,0 mm 1,6 km/h (1 Bft) O-NO 61 ° 0 min 0,000 mm 0,0 UV-I 0 W/m² 1,1 °C 2,3 °C 3,2 km/h (1 Bft)
20.11.2019 18:39 2,3 °C 92 % 1012,1 hPa 0,0 mm 0,1 km/h (0 Bft) O-NO 61 ° 0 min 0,000 mm 0,0 UV-I 0 W/m² 1,1 °C 2,3 °C 1,6 km/h (1 Bft)
20.11.2019 18:40 2,3 °C 92 % 1012,1 hPa 0,0 mm 0,0 km/h (0 Bft) O-NO 61 ° 0 min 0,000 mm 0,0 UV-I 0 W/m² 1,1 °C 2,3 °C 0,0 km/h (0 Bft)
20.11.2019 18:41 2,3 °C 92 % 1012,1 hPa 0,0 mm 0,0 km/h (0 Bft) O-NO 61 ° 0 min 0,000 mm 0,0 UV-I 0 W/m² 1,1 °C 2,3 °C 0,0 km/h (0 Bft)
20.11.2019 18:42 2,3 °C 92 % 1012,1 hPa 0,0 mm 0,6 km/h (0 Bft) O-NO 61 ° 0 min 0,000 mm 0,0 UV-I 0 W/m² 1,1 °C 2,3 °C 3,2 km/h (1 Bft)
20.11.2019 18:43 2,3 °C 92 % 1012,1 hPa 0,0 mm 1,2 km/h (1 Bft) O-NO 61 ° 0 min 0,000 mm 0,0 UV-I 0 W/m² 1,1 °C 2,3 °C 3,2 km/h (1 Bft)
20.11.2019 18:44 2,3 °C 92 % 1012,1 hPa 0,0 mm 1,7 km/h (1 Bft) O-NO 61 ° 0 min 0,000 mm 0,0 UV-I 0 W/m² 1,1 °C 2,3 °C 3,2 km/h (1 Bft)
20.11.2019 18:45 2,3 °C 92 % 1012,1 hPa 0,0 mm 1,2 km/h (1 Bft) O-NO 61 ° 0 min 0,000 mm 0,0 UV-I 0 W/m² 1,1 °C 2,3 °C 3,2 km/h (1 Bft)
20.11.2019 18:46 2,3 °C 92 % 1012,1 hPa 0,0 mm 0,0 km/h (0 Bft) O-NO 61 ° 0 min 0,000 mm 0,0 UV-I 0 W/m² 1,1 °C 2,3 °C 0,0 km/h (0 Bft)
20.11.2019 18:47 2,3 °C 92 % 1012,1 hPa 0,0 mm 2,8 km/h (1 Bft) O-NO 61 ° 0 min 0,000 mm 0,0 UV-I 0 W/m² 1,1 °C 2,3 °C 4,8 km/h (1 Bft)
20.11.2019 18:48 2,3 °C 92 % 1012,1 hPa 0,0 mm 3,2 km/h (1 Bft) O-NO 61 ° 0 min 0,000 mm 0,0 UV-I 0 W/m² 1,1 °C 2,3 °C 4,8 km/h (1 Bft)
20.11.2019 18:49 2,3 °C 92 % 1012,1 hPa 0,0 mm 1,9 km/h (1 Bft) O-NO 61 ° 0 min 0,000 mm 0,0 UV-I 0 W/m² 1,1 °C 2,3 °C 3,2 km/h (1 Bft)
20.11.2019 18:50 2,3 °C 92 % 1012,1 hPa 0,0 mm 0,7 km/h (0 Bft) O-NO 61 ° 0 min 0,000 mm 0,0 UV-I 0 W/m² 1,1 °C 2,3 °C 3,2 km/h (1 Bft)
20.11.2019 18:51 2,3 °C 92 % 1012,1 hPa 0,0 mm 3,8 km/h (1 Bft) O-NO 59 ° 0 min 0,000 mm 0,0 UV-I 0 W/m² 1,1 °C 2,3 °C 6,4 km/h (2 Bft)
20.11.2019 18:52 2,3 °C 92 % 1012,1 hPa 0,0 mm 2,5 km/h (1 Bft) O-NO 59 ° 0 min 0,000 mm 0,0 UV-I 0 W/m² 1,1 °C 2,3 °C 3,2 km/h (1 Bft)
20.11.2019 18:53 2,3 °C 92 % 1012,2 hPa 0,0 mm 1,1 km/h (1 Bft) O-NO 59 ° 0 min 0,000 mm 0,0 UV-I 0 W/m² 1,1 °C 2,3 °C 3,2 km/h (1 Bft)
20.11.2019 18:54 2,3 °C 92 % 1012,1 hPa 0,0 mm 0,5 km/h (0 Bft) O-NO 59 ° 0 min 0,000 mm 0,0 UV-I 0 W/m² 1,1 °C 2,3 °C 1,6 km/h (1 Bft)
20.11.2019 18:55 2,3 °C 92 % 1012,2 hPa 0,0 mm 0,0 km/h (0 Bft) O-NO 59 ° 0 min 0,000 mm 0,0 UV-I 0 W/m² 1,1 °C 2,3 °C 0,0 km/h (0 Bft)
20.11.2019 18:56 2,3 °C 92 % 1012,1 hPa 0,0 mm 2,1 km/h (1 Bft) O-NO 63 ° 0 min 0,000 mm 0,0 UV-I 0 W/m² 1,1 °C 2,3 °C 3,2 km/h (1 Bft)
20.11.2019 18:57 2,3 °C 92 % 1012,1 hPa 0,0 mm 4,2 km/h (1 Bft) O 84 ° 0 min 0,000 mm 0,0 UV-I 0 W/m² 1,1 °C 2,3 °C 6,4 km/h (2 Bft)
20.11.2019 18:58 2,3 °C 92 % 1012,1 hPa 0,0 mm 2,8 km/h (1 Bft) O 80 ° 0 min 0,000 mm 0,0 UV-I 0 W/m² 1,1 °C 2,3 °C 6,4 km/h (2 Bft)
20.11.2019 18:59 2,3 °C 92 % 1012,1 hPa 0,0 mm 0,3 km/h (0 Bft) O 80 ° 0 min 0,000 mm 0,0 UV-I 0 W/m² 1,1 °C 2,3 °C 1,6 km/h (1 Bft)
20.11.2019 19:00 2,3 °C 92 % 1012,1 hPa 0,0 mm 2,1 km/h (1 Bft) O 80 ° 0 min 0,000 mm 0,0 UV-I 0 W/m² 1,1 °C 2,3 °C 4,8 km/h (1 Bft)
20.11.2019 19:01 2,3 °C 92 % 1012,1 hPa 0,0 mm 3,5 km/h (1 Bft) O 79 ° 0 min 0,000 mm 0,0 UV-I 0 W/m² 1,1 °C 2,3 °C 4,8 km/h (1 Bft)
20.11.2019 19:02 2,3 °C 92 % 1012,1 hPa 0,0 mm 2,4 km/h (1 Bft) O 79 ° 0 min 0,000 mm 0,0 UV-I 0 W/m² 1,1 °C 2,3 °C 3,2 km/h (1 Bft)
20.11.2019 19:03 2,3 °C 92 % 1012,1 hPa 0,0 mm 2,7 km/h (1 Bft) NO 51 ° 0 min 0,000 mm 0,0 UV-I 0 W/m² 1,1 °C 2,3 °C 4,8 km/h (1 Bft)
20.11.2019 19:04 2,3 °C 92 % 1012,1 hPa 0,0 mm 2,9 km/h (1 Bft) O-NO 74 ° 0 min 0,000 mm 0,0 UV-I 0 W/m² 1,1 °C 2,3 °C 4,8 km/h (1 Bft)
20.11.2019 19:05 2,3 °C 92 % 1012,1 hPa 0,0 mm 2,7 km/h (1 Bft) O-NO 74 ° 0 min 0,000 mm 0,0 UV-I 0 W/m² 1,1 °C 2,3 °C 3,2 km/h (1 Bft)
20.11.2019 19:06 2,3 °C 93 % 1012,1 hPa 0,0 mm 2,1 km/h (1 Bft) O-NO 74 ° 0 min 0,000 mm 0,0 UV-I 0 W/m² 1,3 °C 2,3 °C 3,2 km/h (1 Bft)
20.11.2019 19:07 2,3 °C 93 % 1012,1 hPa 0,0 mm 0,0 km/h (0 Bft) O-NO 74 ° 0 min 0,000 mm 0,0 UV-I 0 W/m² 1,3 °C 2,3 °C 0,0 km/h (0 Bft)
20.11.2019 19:08 2,3 °C 93 % 1012,1 hPa 0,0 mm 0,0 km/h (0 Bft) O-NO 74 ° 0 min 0,000 mm 0,0 UV-I 0 W/m² 1,3 °C 2,3 °C 0,0 km/h (0 Bft)
20.11.2019 19:09 2,3 °C 93 % 1012,1 hPa 0,0 mm 0,9 km/h (0 Bft) O-NO 74 ° 0 min 0,000 mm 0,0 UV-I 0 W/m² 1,3 °C 2,3 °C 3,2 km/h (1 Bft)
20.11.2019 19:10 2,3 °C 93 % 1012,1 hPa 0,0 mm 2,9 km/h (1 Bft) O-NO 74 ° 0 min 0,000 mm 0,0 UV-I 0 W/m² 1,3 °C 2,3 °C 4,8 km/h (1 Bft)
20.11.2019 19:11 2,3 °C 93 % 1012,1 hPa 0,0 mm 2,0 km/h (1 Bft) O-NO 74 ° 0 min 0,000 mm 0,0 UV-I 0 W/m² 1,3 °C 2,3 °C 3,2 km/h (1 Bft)
20.11.2019 19:12 2,3 °C 93 % 1012,1 hPa 0,0 mm 0,0 km/h (0 Bft) O-NO 74 ° 0 min 0,000 mm 0,0 UV-I 0 W/m² 1,3 °C 2,3 °C 0,0 km/h (0 Bft)
20.11.2019 19:13 2,3 °C 93 % 1012,2 hPa 0,0 mm 0,0 km/h (0 Bft) O-NO 74 ° 0 min 0,000 mm 0,0 UV-I 0 W/m² 1,3 °C 2,3 °C 0,0 km/h (0 Bft)
20.11.2019 19:14 2,3 °C 93 % 1012,2 hPa 0,0 mm 4,2 km/h (1 Bft) O-NO 74 ° 0 min 0,000 mm 0,0 UV-I 0 W/m² 1,3 °C 2,3 °C 4,8 km/h (1 Bft)
20.11.2019 19:15 2,3 °C 93 % 1012,2 hPa 0,0 mm 4,1 km/h (1 Bft) O 86 ° 0 min 0,000 mm 0,0 UV-I 0 W/m² 1,3 °C 2,3 °C 6,4 km/h (2 Bft)
20.11.2019 19:16 2,3 °C 93 % 1012,2 hPa 0,0 mm 4,8 km/h (1 Bft) O 86 ° 0 min 0,000 mm 0,0 UV-I 0 W/m² 1,3 °C 1,1 °C 6,4 km/h (2 Bft)
20.11.2019 19:17 2,3 °C 93 % 1012,2 hPa 0,0 mm 2,9 km/h (1 Bft) O 86 ° 0 min 0,000 mm 0,0 UV-I 0 W/m² 1,3 °C 2,3 °C 4,8 km/h (1 Bft)
20.11.2019 19:18 2,3 °C 93 % 1012,3 hPa 0,0 mm 2,1 km/h (1 Bft) O 86 ° 0 min 0,000 mm 0,0 UV-I 0 W/m² 1,3 °C 2,3 °C 3,2 km/h (1 Bft)
20.11.2019 19:19 2,3 °C 93 % 1012,3 hPa 0,0 mm 2,8 km/h (1 Bft) O 86 ° 0 min 0,000 mm 0,0 UV-I 0 W/m² 1,3 °C 2,3 °C 3,2 km/h (1 Bft)
20.11.2019 19:20 2,3 °C 93 % 1012,3 hPa 0,0 mm 2,3 km/h (1 Bft) O 86 ° 0 min 0,000 mm 0,0 UV-I 0 W/m² 1,3 °C 2,3 °C 4,8 km/h (1 Bft)
20.11.2019 19:21 2,3 °C 93 % 1012,2 hPa 0,0 mm 0,0 km/h (0 Bft) O 86 ° 0 min 0,000 mm 0,0 UV-I 0 W/m² 1,3 °C 2,3 °C 0,0 km/h (0 Bft)
20.11.2019 19:22 2,3 °C 93 % 1012,2 hPa 0,0 mm 0,0 km/h (0 Bft) O 86 ° 0 min 0,000 mm 0,0 UV-I 0 W/m² 1,3 °C 2,3 °C 0,0 km/h (0 Bft)
20.11.2019 19:23 2,3 °C 93 % 1012,2 hPa 0,0 mm 0,0 km/h (0 Bft) O 86 ° 0 min 0,000 mm 0,0 UV-I 0 W/m² 1,3 °C 2,3 °C 0,0 km/h (0 Bft)
20.11.2019 19:24 2,3 °C 93 % 1012,2 hPa 0,0 mm 0,0 km/h (0 Bft) O 86 ° 0 min 0,000 mm 0,0 UV-I 0 W/m² 1,3 °C 2,3 °C 0,0 km/h (0 Bft)
20.11.2019 19:25 2,3 °C 93 % 1012,2 hPa 0,0 mm 0,0 km/h (0 Bft) O 86 ° 0 min 0,000 mm 0,0 UV-I 0 W/m² 1,3 °C 2,3 °C 0,0 km/h (0 Bft)
20.11.2019 19:26 2,2 °C 93 % 1012,2 hPa 0,0 mm 0,0 km/h (0 Bft) O 86 ° 0 min 0,000 mm 0,0 UV-I 0 W/m² 1,2 °C 2,2 °C 0,0 km/h (0 Bft)
20.11.2019 19:27 2,3 °C 93 % 1012,2 hPa 0,0 mm 0,5 km/h (0 Bft) O 86 ° 0 min 0,000 mm 0,0 UV-I 0 W/m² 1,3 °C 2,3 °C 3,2 km/h (1 Bft)
20.11.2019 19:28 2,2 °C 92 % 1012,2 hPa 0,0 mm 2,7 km/h (1 Bft) O 86 ° 0 min 0,000 mm 0,0 UV-I 0 W/m² 1,0 °C 2,2 °C 3,2 km/h (1 Bft)
20.11.2019 19:29 2,2 °C 93 % 1012,1 hPa 0,0 mm 2,1 km/h (1 Bft) O 86 ° 0 min 0,000 mm 0,0 UV-I 0 W/m² 1,2 °C 2,2 °C 3,2 km/h (1 Bft)
20.11.2019 19:30 2,2 °C 92 % 1012,2 hPa 0,0 mm 3,1 km/h (1 Bft) O 86 ° 0 min 0,000 mm 0,0 UV-I 0 W/m² 1,0 °C 2,2 °C 3,2 km/h (1 Bft)
20.11.2019 19:31 2,3 °C 93 % 1012,2 hPa 0,0 mm 3,6 km/h (1 Bft) O 86 ° 0 min 0,000 mm 0,0 UV-I 0 W/m² 1,3 °C 2,3 °C 4,8 km/h (1 Bft)
20.11.2019 19:32 2,2 °C 92 % 1012,1 hPa 0,0 mm 3,3 km/h (1 Bft) O 86 ° 0 min 0,000 mm 0,0 UV-I 0 W/m² 1,0 °C 2,2 °C 4,8 km/h (1 Bft)
20.11.2019 19:33 2,2 °C 92 % 1012,1 hPa 0,0 mm 2,1 km/h (1 Bft) O 86 ° 0 min 0,000 mm 0,0 UV-I 0 W/m² 1,0 °C 2,2 °C 3,2 km/h (1 Bft)
20.11.2019 19:34 2,2 °C 92 % 1012,1 hPa 0,0 mm 2,2 km/h (1 Bft) O 86 ° 0 min 0,000 mm 0,0 UV-I 0 W/m² 1,0 °C 2,2 °C 4,8 km/h (1 Bft)
20.11.2019 19:35 2,3 °C 92 % 1012,1 hPa 0,0 mm 3,2 km/h (1 Bft) O 86 ° 0 min 0,000 mm 0,0 UV-I 0 W/m² 1,1 °C 2,3 °C 4,8 km/h (1 Bft)
20.11.2019 19:36 2,2 °C 93 % 1012,1 hPa 0,0 mm 3,8 km/h (1 Bft) O 86 ° 0 min 0,000 mm 0,0 UV-I 0 W/m² 1,2 °C 2,2 °C 4,8 km/h (1 Bft)
20.11.2019 19:37 2,2 °C 92 % 1012,1 hPa 0,0 mm 3,1 km/h (1 Bft) O 86 ° 0 min 0,000 mm 0,0 UV-I 0 W/m² 1,0 °C 2,2 °C 4,8 km/h (1 Bft)
20.11.2019 19:38 2,2 °C 92 % 1012,1 hPa 0,0 mm 2,5 km/h (1 Bft) O 86 ° 0 min 0,000 mm 0,0 UV-I 0 W/m² 1,0 °C 2,2 °C 3,2 km/h (1 Bft)
20.11.2019 19:39 2,2 °C 92 % 1012,1 hPa 0,0 mm 2,0 km/h (1 Bft) O 86 ° 0 min 0,000 mm 0,0 UV-I 0 W/m² 1,0 °C 2,2 °C 3,2 km/h (1 Bft)
20.11.2019 19:40 2,2 °C 92 % 1012,0 hPa 0,0 mm 2,3 km/h (1 Bft) O 86 ° 0 min 0,000 mm 0,0 UV-I 0 W/m² 1,0 °C 2,2 °C 3,2 km/h (1 Bft)
20.11.2019 19:41 2,2 °C 92 % 1012,1 hPa 0,0 mm 2,2 km/h (1 Bft) O 86 ° 0 min 0,000 mm 0,0 UV-I 0 W/m² 1,0 °C 2,2 °C 3,2 km/h (1 Bft)
20.11.2019 19:42 2,2 °C 92 % 1012,0 hPa 0,0 mm 2,3 km/h (1 Bft) O 86 ° 0 min 0,000 mm 0,0 UV-I 0 W/m² 1,0 °C 2,2 °C 3,2 km/h (1 Bft)
20.11.2019 19:43 2,2 °C 92 % 1012,0 hPa 0,0 mm 1,1 km/h (1 Bft) O 86 ° 0 min 0,000 mm 0,0 UV-I 0 W/m² 1,0 °C 2,2 °C 3,2 km/h (1 Bft)
20.11.2019 19:44 2,2 °C 92 % 1012,0 hPa 0,0 mm 0,3 km/h (0 Bft) O 86 ° 0 min 0,000 mm 0,0 UV-I 0 W/m² 1,0 °C 2,2 °C 1,6 km/h (1 Bft)
20.11.2019 19:45 2,2 °C 92 % 1012,0 hPa 0,0 mm 0,6 km/h (0 Bft) O 86 ° 0 min 0,000 mm 0,0 UV-I 0 W/m² 1,0 °C 2,2 °C 3,2 km/h (1 Bft)
20.11.2019 19:46 2,2 °C 92 % 1012,0 hPa 0,0 mm 1,1 km/h (1 Bft) O 86 ° 0 min 0,000 mm 0,0 UV-I 0 W/m² 1,0 °C 2,2 °C 3,2 km/h (1 Bft)
20.11.2019 19:47 2,2 °C 92 % 1012,0 hPa 0,0 mm 0,1 km/h (0 Bft) O 86 ° 0 min 0,000 mm 0,0 UV-I 0 W/m² 1,0 °C 2,2 °C 1,6 km/h (1 Bft)
20.11.2019 19:48 2,2 °C 92 % 1012,0 hPa 0,0 mm 0,0 km/h (0 Bft) O 86 ° 0 min 0,000 mm 0,0 UV-I 0 W/m² 1,0 °C 2,2 °C 0,0 km/h (0 Bft)
20.11.2019 19:49 2,2 °C 93 % 1012,0 hPa 0,0 mm 0,6 km/h (0 Bft) O 86 ° 0 min 0,000 mm 0,0 UV-I 0 W/m² 1,2 °C 2,2 °C 3,2 km/h (1 Bft)
20.11.2019 19:50 2,2 °C 92 % 1012,0 hPa 0,0 mm 1,7 km/h (1 Bft) O 86 ° 0 min 0,000 mm 0,0 UV-I 0 W/m² 1,0 °C 2,2 °C 3,2 km/h (1 Bft)
20.11.2019 19:51 2,2 °C 93 % 1012,0 hPa 0,0 mm 2,1 km/h (1 Bft) O 86 ° 0 min 0,000 mm 0,0 UV-I 0 W/m² 1,2 °C 2,2 °C 3,2 km/h (1 Bft)
20.11.2019 19:52 2,2 °C 93 % 1011,9 hPa 0,0 mm 0,9 km/h (0 Bft) O 86 ° 0 min 0,000 mm 0,0 UV-I 0 W/m² 1,2 °C 2,2 °C 3,2 km/h (1 Bft)
20.11.2019 19:53 2,2 °C 93 % 1012,0 hPa 0,0 mm 0,0 km/h (0 Bft) O-NO 62 ° 0 min 0,000 mm 0,0 UV-I 0 W/m² 1,2 °C 2,2 °C 0,0 km/h (0 Bft)
20.11.2019 19:54 2,2 °C 93 % 1012,0 hPa 0,0 mm 3,1 km/h (1 Bft) O-NO 61 ° 0 min 0,000 mm 0,0 UV-I 0 W/m² 1,2 °C 2,2 °C 4,8 km/h (1 Bft)
20.11.2019 19:55 2,2 °C 93 % 1011,9 hPa 0,0 mm 3,0 km/h (1 Bft) O-NO 61 ° 0 min 0,000 mm 0,0 UV-I 0 W/m² 1,2 °C 2,2 °C 4,8 km/h (1 Bft)
20.11.2019 19:56 2,2 °C 92 % 1011,9 hPa 0,0 mm 0,7 km/h (0 Bft) O-NO 61 ° 0 min 0,000 mm 0,0 UV-I 0 W/m² 1,0 °C 2,2 °C 3,2 km/h (1 Bft)
20.11.2019 19:57 2,2 °C 93 % 1011,9 hPa 0,0 mm 1,3 km/h (1 Bft) O-NO 61 ° 0 min 0,000 mm 0,0 UV-I 0 W/m² 1,2 °C 2,2 °C 1,6 km/h (1 Bft)
20.11.2019 19:58 2,2 °C 93 % 1012,0 hPa 0,0 mm 1,6 km/h (1 Bft) O-NO 61 ° 0 min 0,000 mm 0,0 UV-I 0 W/m² 1,2 °C 2,2 °C 3,2 km/h (1 Bft)
20.11.2019 19:59 2,2 °C 93 % 1011,9 hPa 0,0 mm 1,8 km/h (1 Bft) O-NO 61 ° 0 min 0,000 mm 0,0 UV-I 0 W/m² 1,2 °C 2,2 °C 3,2 km/h (1 Bft)
20.11.2019 20:00 2,2 °C 93 % 1011,9 hPa 0,0 mm 2,7 km/h (1 Bft) O-NO 61 ° 0 min 0,000 mm 0,0 UV-I 0 W/m² 1,2 °C 2,2 °C 3,2 km/h (1 Bft)
20.11.2019 20:01 2,2 °C 93 % 1011,9 hPa 0,0 mm 2,0 km/h (1 Bft) O-NO 61 ° 0 min 0,000 mm 0,0 UV-I 0 W/m² 1,2 °C 2,2 °C 3,2 km/h (1 Bft)
20.11.2019 20:02 2,1 °C 93 % 1011,9 hPa 0,0 mm 0,0 km/h (0 Bft) O-NO 61 ° 0 min 0,000 mm 0,0 UV-I 0 W/m² 1,1 °C 2,1 °C 0,0 km/h (0 Bft)
20.11.2019 20:03 2,1 °C 93 % 1011,9 hPa 0,0 mm 0,0 km/h (0 Bft) O-NO 61 ° 0 min 0,000 mm 0,0 UV-I 0 W/m² 1,1 °C 2,1 °C 0,0 km/h (0 Bft)
20.11.2019 20:04 2,1 °C 93 % 1011,9 hPa 0,0 mm 0,0 km/h (0 Bft) O-NO 61 ° 0 min 0,000 mm 0,0 UV-I 0 W/m² 1,1 °C 2,1 °C 0,0 km/h (0 Bft)
20.11.2019 20:05 2,1 °C 93 % 1011,9 hPa 0,0 mm 0,0 km/h (0 Bft) O-NO 61 ° 0 min 0,000 mm 0,0 UV-I 0 W/m² 1,1 °C 2,1 °C 0,0 km/h (0 Bft)
20.11.2019 20:06 2,1 °C 93 % 1011,9 hPa 0,0 mm 0,0 km/h (0 Bft) O-NO 61 ° 0 min 0,000 mm 0,0 UV-I 0 W/m² 1,1 °C 2,1 °C 0,0 km/h (0 Bft)
20.11.2019 20:07 2,1 °C 93 % 1012,0 hPa 0,0 mm 0,0 km/h (0 Bft) O-NO 61 ° 0 min 0,000 mm 0,0 UV-I 0 W/m² 1,1 °C 2,1 °C 0,0 km/h (0 Bft)
20.11.2019 20:08 2,1 °C 93 % 1011,9 hPa 0,0 mm 0,0 km/h (0 Bft) O-NO 61 ° 0 min 0,000 mm 0,0 UV-I 0 W/m² 1,1 °C 2,1 °C 0,0 km/h (0 Bft)
20.11.2019 20:09 2,1 °C 93 % 1011,9 hPa 0,0 mm 0,0 km/h (0 Bft) O-NO 61 ° 0 min 0,000 mm 0,0 UV-I 0 W/m² 1,1 °C 2,1 °C 0,0 km/h (0 Bft)
20.11.2019 20:10 2,1 °C 93 % 1011,9 hPa 0,0 mm 0,0 km/h (0 Bft) O-NO 61 ° 0 min 0,000 mm 0,0 UV-I 0 W/m² 1,1 °C 2,1 °C 0,0 km/h (0 Bft)
20.11.2019 20:11 2,1 °C 93 % 1012,0 hPa 0,0 mm 0,0 km/h (0 Bft) O-NO 61 ° 0 min 0,000 mm 0,0 UV-I 0 W/m² 1,1 °C 2,1 °C 0,0 km/h (0 Bft)
20.11.2019 20:12 2,1 °C 93 % 1012,0 hPa 0,0 mm 0,0 km/h (0 Bft) O-NO 61 ° 0 min 0,000 mm 0,0 UV-I 0 W/m² 1,1 °C 2,1 °C 0,0 km/h (0 Bft)
20.11.2019 20:13 2,1 °C 93 % 1011,9 hPa 0,0 mm 0,0 km/h (0 Bft) O-NO 61 ° 0 min 0,000 mm 0,0 UV-I 0 W/m² 1,1 °C 2,1 °C 0,0 km/h (0 Bft)
20.11.2019 20:14 2,1 °C 93 % 1011,9 hPa 0,0 mm 0,0 km/h (0 Bft) O-NO 61 ° 0 min 0,000 mm 0,0 UV-I 0 W/m² 1,1 °C 2,1 °C 0,0 km/h (0 Bft)
20.11.2019 20:15 2,1 °C 93 % 1011,9 hPa 0,0 mm 0,0 km/h (0 Bft) O-NO 61 ° 0 min 0,000 mm 0,0 UV-I 0 W/m² 1,1 °C 2,1 °C 0,0 km/h (0 Bft)
20.11.2019 20:16 2,1 °C 93 % 1012,0 hPa 0,0 mm 0,0 km/h (0 Bft) O-NO 61 ° 0 min 0,000 mm 0,0 UV-I 0 W/m² 1,1 °C 2,1 °C 0,0 km/h (0 Bft)
20.11.2019 20:17 2,1 °C 93 % 1012,0 hPa 0,0 mm 0,0 km/h (0 Bft) O-NO 61 ° 0 min 0,000 mm 0,0 UV-I 0 W/m² 1,1 °C 2,1 °C 0,0 km/h (0 Bft)
20.11.2019 20:18 2,1 °C 93 % 1011,9 hPa 0,0 mm 0,0 km/h (0 Bft) O-NO 61 ° 0 min 0,000 mm 0,0 UV-I 0 W/m² 1,1 °C 2,1 °C 0,0 km/h (0 Bft)
20.11.2019 20:19 2,1 °C 93 % 1011,9 hPa 0,0 mm 0,0 km/h (0 Bft) O-NO 61 ° 0 min 0,000 mm 0,0 UV-I 0 W/m² 1,1 °C 2,1 °C 0,0 km/h (0 Bft)
20.11.2019 20:20 2,1 °C 93 % 1012,0 hPa 0,0 mm 0,0 km/h (0 Bft) O-NO 61 ° 0 min 0,000 mm 0,0 UV-I 0 W/m² 1,1 °C 2,1 °C 0,0 km/h (0 Bft)
20.11.2019 20:21 2,1 °C 93 % 1012,0 hPa 0,0 mm 0,0 km/h (0 Bft) O-NO 61 ° 0 min 0,000 mm 0,0 UV-I 0 W/m² 1,1 °C 2,1 °C 0,0 km/h (0 Bft)
20.11.2019 20:22 2,1 °C 93 % 1012,0 hPa 0,0 mm 0,0 km/h (0 Bft) O-NO 61 ° 0 min 0,000 mm 0,0 UV-I 0 W/m² 1,1 °C 2,1 °C 0,0 km/h (0 Bft)
20.11.2019 20:23 2,1 °C 93 % 1012,0 hPa 0,0 mm 0,0 km/h (0 Bft) O-NO 61 ° 0 min 0,000 mm 0,0 UV-I 0 W/m² 1,1 °C 2,1 °C 0,0 km/h (0 Bft)
20.11.2019 20:24 2,1 °C 93 % 1011,9 hPa 0,0 mm 0,0 km/h (0 Bft) O-NO 61 ° 0 min 0,000 mm 0,0 UV-I 0 W/m² 1,1 °C 2,1 °C 0,0 km/h (0 Bft)
20.11.2019 20:25 2,1 °C 93 % 1011,9 hPa 0,0 mm 0,0 km/h (0 Bft) O-NO 61 ° 0 min 0,000 mm 0,0 UV-I 0 W/m² 1,1 °C 2,1 °C 0,0 km/h (0 Bft)
20.11.2019 20:26 2,1 °C 93 % 1011,9 hPa 0,0 mm 0,0 km/h (0 Bft) O-NO 61 ° 0 min 0,000 mm 0,0 UV-I 0 W/m² 1,1 °C 2,1 °C 0,0 km/h (0 Bft)
20.11.2019 20:27 2,1 °C 93 % 1011,9 hPa 0,0 mm 0,0 km/h (0 Bft) O-NO 61 ° 0 min 0,000 mm 0,0 UV-I 0 W/m² 1,1 °C 2,1 °C 0,0 km/h (0 Bft)
20.11.2019 20:28 2,1 °C 93 % 1011,9 hPa 0,0 mm 0,0 km/h (0 Bft) O-NO 61 ° 0 min 0,000 mm 0,0 UV-I 0 W/m² 1,1 °C 2,1 °C 0,0 km/h (0 Bft)
20.11.2019 20:29 2,1 °C 93 % 1011,9 hPa 0,0 mm 0,0 km/h (0 Bft) O-NO 61 ° 0 min 0,000 mm 0,0 UV-I 0 W/m² 1,1 °C 2,1 °C 0,0 km/h (0 Bft)
20.11.2019 20:30 2,1 °C 93 % 1011,9 hPa 0,0 mm 0,0 km/h (0 Bft) O-NO 61 ° 0 min 0,000 mm 0,0 UV-I 0 W/m² 1,1 °C 2,1 °C 0,0 km/h (0 Bft)
20.11.2019 20:31 2,1 °C 93 % 1011,9 hPa 0,0 mm 0,0 km/h (0 Bft) O-NO 61 ° 0 min 0,000 mm 0,0 UV-I 0 W/m² 1,1 °C 2,1 °C 0,0 km/h (0 Bft)
20.11.2019 20:32 2,1 °C 93 % 1011,9 hPa 0,0 mm 0,0 km/h (0 Bft) O-NO 61 ° 0 min 0,000 mm 0,0 UV-I 0 W/m² 1,1 °C 2,1 °C 0,0 km/h (0 Bft)
20.11.2019 20:33 2,1 °C 93 % 1011,9 hPa 0,0 mm 0,0 km/h (0 Bft) O-NO 61 ° 0 min 0,000 mm 0,0 UV-I 0 W/m² 1,1 °C 2,1 °C 0,0 km/h (0 Bft)
20.11.2019 20:34 2,0 °C 93 % 1011,9 hPa 0,0 mm 0,0 km/h (0 Bft) O-NO 61 ° 0 min 0,000 mm 0,0 UV-I 0 W/m² 1,0 °C 2,0 °C 0,0 km/h (0 Bft)
20.11.2019 20:35 2,1 °C 93 % 1011,9 hPa 0,0 mm 0,0 km/h (0 Bft) O-NO 61 ° 0 min 0,000 mm 0,0 UV-I 0 W/m² 1,1 °C 2,1 °C 0,0 km/h (0 Bft)
20.11.2019 20:36 2,0 °C 93 % 1011,8 hPa 0,0 mm 0,0 km/h (0 Bft) O-NO 61 ° 0 min 0,000 mm 0,0 UV-I 0 W/m² 1,0 °C 2,0 °C 0,0 km/h (0 Bft)
20.11.2019 20:37 2,0 °C 93 % 1011,8 hPa 0,0 mm 0,0 km/h (0 Bft) O-NO 61 ° 0 min 0,000 mm 0,0 UV-I 0 W/m² 1,0 °C 2,0 °C 0,0 km/h (0 Bft)
20.11.2019 20:38 2,0 °C 93 % 1011,8 hPa 0,0 mm 0,0 km/h (0 Bft) O-NO 61 ° 0 min 0,000 mm 0,0 UV-I 0 W/m² 1,0 °C 2,0 °C 0,0 km/h (0 Bft)
20.11.2019 20:39 2,0 °C 93 % 1011,8 hPa 0,0 mm 0,0 km/h (0 Bft) O-NO 61 ° 0 min 0,000 mm 0,0 UV-I 0 W/m² 1,0 °C 2,0 °C 0,0 km/h (0 Bft)
20.11.2019 20:40 2,0 °C 93 % 1011,7 hPa 0,0 mm 0,0 km/h (0 Bft) O-NO 61 ° 0 min 0,000 mm 0,0 UV-I 0 W/m² 1,0 °C 2,0 °C 0,0 km/h (0 Bft)
20.11.2019 20:41 2,0 °C 93 % 1011,8 hPa 0,0 mm 0,0 km/h (0 Bft) O-NO 61 ° 0 min 0,000 mm 0,0 UV-I 0 W/m² 1,0 °C 2,0 °C 0,0 km/h (0 Bft)
20.11.2019 20:42 2,0 °C 93 % 1011,8 hPa 0,0 mm 0,0 km/h (0 Bft) O-NO 61 ° 0 min 0,000 mm 0,0 UV-I 0 W/m² 1,0 °C 2,0 °C 0,0 km/h (0 Bft)
20.11.2019 20:43 2,1 °C 93 % 1011,7 hPa 0,0 mm 0,0 km/h (0 Bft) O-NO 61 ° 0 min 0,000 mm 0,0 UV-I 0 W/m² 1,1 °C 2,1 °C 0,0 km/h (0 Bft)
20.11.2019 20:44 2,0 °C 93 % 1011,7 hPa 0,0 mm 0,0 km/h (0 Bft) O-NO 61 ° 0 min 0,000 mm 0,0 UV-I 0 W/m² 1,0 °C 2,0 °C 0,0 km/h (0 Bft)
20.11.2019 20:45 2,0 °C 93 % 1011,8 hPa 0,0 mm 0,0 km/h (0 Bft) O-NO 61 ° 0 min 0,000 mm 0,0 UV-I 0 W/m² 1,0 °C 2,0 °C 0,0 km/h (0 Bft)
20.11.2019 20:46 2,0 °C 93 % 1011,8 hPa 0,0 mm 0,0 km/h (0 Bft) O-NO 61 ° 0 min 0,000 mm 0,0 UV-I 0 W/m² 1,0 °C 2,0 °C 0,0 km/h (0 Bft)
20.11.2019 20:47 2,0 °C 93 % 1011,8 hPa 0,0 mm 0,0 km/h (0 Bft) O-NO 61 ° 0 min 0,000 mm 0,0 UV-I 0 W/m² 1,0 °C 2,0 °C 0,0 km/h (0 Bft)
20.11.2019 20:48 2,0 °C 93 % 1011,8 hPa 0,0 mm 0,0 km/h (0 Bft) O-NO 61 ° 0 min 0,000 mm 0,0 UV-I 0 W/m² 1,0 °C 2,0 °C 0,0 km/h (0 Bft)
20.11.2019 20:49 2,0 °C 93 % 1011,8 hPa 0,0 mm 0,0 km/h (0 Bft) O-NO 61 ° 0 min 0,000 mm 0,0 UV-I 0 W/m² 1,0 °C 2,0 °C 0,0 km/h (0 Bft)
20.11.2019 20:50 2,0 °C 93 % 1011,8 hPa 0,0 mm 0,0 km/h (0 Bft) O-NO 61 ° 0 min 0,000 mm 0,0 UV-I 0 W/m² 1,0 °C 2,0 °C 0,0 km/h (0 Bft)
20.11.2019 20:51 2,0 °C 93 % 1011,8 hPa 0,0 mm 0,0 km/h (0 Bft) O-NO 61 ° 0 min 0,000 mm 0,0 UV-I 0 W/m² 1,0 °C 2,0 °C 0,0 km/h (0 Bft)
20.11.2019 20:52 2,0 °C 93 % 1011,8 hPa 0,0 mm 0,0 km/h (0 Bft) O-NO 61 ° 0 min 0,000 mm 0,0 UV-I 0 W/m² 1,0 °C 2,0 °C 0,0 km/h (0 Bft)
20.11.2019 20:53 2,0 °C 93 % 1011,8 hPa 0,0 mm 0,0 km/h (0 Bft) O-NO 61 ° 0 min 0,000 mm 0,0 UV-I 0 W/m² 1,0 °C 2,0 °C 0,0 km/h (0 Bft)
20.11.2019 20:54 2,0 °C 93 % 1011,8 hPa 0,0 mm 0,0 km/h (0 Bft) O-NO 61 ° 0 min 0,000 mm 0,0 UV-I 0 W/m² 1,0 °C 2,0 °C 0,0 km/h (0 Bft)
20.11.2019 20:55 2,0 °C 93 % 1011,8 hPa 0,0 mm 0,0 km/h (0 Bft) O-NO 61 ° 0 min 0,000 mm 0,0 UV-I 0 W/m² 1,0 °C 2,0 °C 0,0 km/h (0 Bft)
20.11.2019 20:56 2,0 °C 93 % 1011,7 hPa 0,0 mm 0,0 km/h (0 Bft) O-NO 61 ° 0 min 0,000 mm 0,0 UV-I 0 W/m² 1,0 °C 2,0 °C 0,0 km/h (0 Bft)
20.11.2019 20:57 2,0 °C 93 % 1011,7 hPa 0,0 mm 0,0 km/h (0 Bft) O-NO 61 ° 0 min 0,000 mm 0,0 UV-I 0 W/m² 1,0 °C 2,0 °C 0,0 km/h (0 Bft)
20.11.2019 20:58 1,9 °C 93 % 1011,7 hPa 0,0 mm 0,0 km/h (0 Bft) O-NO 61 ° 0 min 0,000 mm 0,0 UV-I 0 W/m² 0,9 °C 1,9 °C 0,0 km/h (0 Bft)
20.11.2019 20:59 2,0 °C 93 % 1011,7 hPa 0,0 mm 0,0 km/h (0 Bft) O-NO 61 ° 0 min 0,000 mm 0,0 UV-I 0 W/m² 1,0 °C 2,0 °C 0,0 km/h (0 Bft)
20.11.2019 21:00 1,9 °C 93 % 1011,7 hPa 0,0 mm 0,0 km/h (0 Bft) O-NO 61 ° 0 min 0,000 mm 0,0 UV-I 0 W/m² 0,9 °C 1,9 °C 0,0 km/h (0 Bft)
20.11.2019 21:01 2,0 °C 93 % 1011,7 hPa 0,0 mm 0,0 km/h (0 Bft) O-NO 61 ° 0 min 0,000 mm 0,0 UV-I 0 W/m² 1,0 °C 2,0 °C 0,0 km/h (0 Bft)
20.11.2019 21:02 2,0 °C 93 % 1011,7 hPa 0,0 mm 0,0 km/h (0 Bft) O-NO 61 ° 0 min 0,000 mm 0,0 UV-I 0 W/m² 1,0 °C 2,0 °C 0,0 km/h (0 Bft)
20.11.2019 21:03 2,0 °C 93 % 1011,7 hPa 0,0 mm 0,0 km/h (0 Bft) O-NO 61 ° 0 min 0,000 mm 0,0 UV-I 0 W/m² 1,0 °C 2,0 °C 0,0 km/h (0 Bft)
20.11.2019 21:04 2,0 °C 93 % 1011,7 hPa 0,0 mm 0,0 km/h (0 Bft) O-NO 61 ° 0 min 0,000 mm 0,0 UV-I 0 W/m² 1,0 °C 2,0 °C 0,0 km/h (0 Bft)
20.11.2019 21:05 1,9 °C 93 % 1011,7 hPa 0,0 mm 0,0 km/h (0 Bft) O-NO 61 ° 0 min 0,000 mm 0,0 UV-I 0 W/m² 0,9 °C 1,9 °C 0,0 km/h (0 Bft)
20.11.2019 21:06 2,0 °C 93 % 1011,6 hPa 0,0 mm 0,0 km/h (0 Bft) O-NO 61 ° 0 min 0,000 mm 0,0 UV-I 0 W/m² 1,0 °C 2,0 °C 0,0 km/h (0 Bft)
20.11.2019 21:07 2,0 °C 93 % 1011,7 hPa 0,0 mm 0,0 km/h (0 Bft) O-NO 61 ° 0 min 0,000 mm 0,0 UV-I 0 W/m² 1,0 °C 2,0 °C 0,0 km/h (0 Bft)
20.11.2019 21:08 2,0 °C 93 % 1011,7 hPa 0,0 mm 0,0 km/h (0 Bft) O-NO 61 ° 0 min 0,000 mm 0,0 UV-I 0 W/m² 1,0 °C 2,0 °C 0,0 km/h (0 Bft)
20.11.2019 21:09 2,0 °C 93 % 1011,7 hPa 0,0 mm 0,0 km/h (0 Bft) O-NO 61 ° 0 min 0,000 mm 0,0 UV-I 0 W/m² 1,0 °C 2,0 °C 0,0 km/h (0 Bft)
20.11.2019 21:10 1,9 °C 93 % 1011,7 hPa 0,0 mm 0,0 km/h (0 Bft) O-NO 61 ° 0 min 0,000 mm 0,0 UV-I 0 W/m² 0,9 °C 1,9 °C 0,0 km/h (0 Bft)
20.11.2019 21:11 2,0 °C 93 % 1011,7 hPa 0,0 mm 0,0 km/h (0 Bft) O-NO 61 ° 0 min 0,000 mm 0,0 UV-I 0 W/m² 1,0 °C 2,0 °C 0,0 km/h (0 Bft)
20.11.2019 21:12 2,0 °C 93 % 1011,7 hPa 0,0 mm 0,0 km/h (0 Bft) O-NO 61 ° 0 min 0,000 mm 0,0 UV-I 0 W/m² 1,0 °C 2,0 °C 0,0 km/h (0 Bft)
20.11.2019 21:13 1,9 °C 93 % 1011,7 hPa 0,0 mm 0,0 km/h (0 Bft) O-NO 61 ° 0 min 0,000 mm 0,0 UV-I 0 W/m² 0,9 °C 1,9 °C 0,0 km/h (0 Bft)
20.11.2019 21:14 2,0 °C 93 % 1011,7 hPa 0,0 mm 0,0 km/h (0 Bft) O-NO 61 ° 0 min 0,000 mm 0,0 UV-I 0 W/m² 1,0 °C 2,0 °C 0,0 km/h (0 Bft)
20.11.2019 21:15 2,0 °C 93 % 1011,7 hPa 0,0 mm 0,0 km/h (0 Bft) O-NO 61 ° 0 min 0,000 mm 0,0 UV-I 0 W/m² 1,0 °C 2,0 °C 0,0 km/h (0 Bft)
20.11.2019 21:16 1,9 °C 93 % 1011,7 hPa 0,0 mm 0,0 km/h (0 Bft) O-NO 61 ° 0 min 0,000 mm 0,0 UV-I 0 W/m² 0,9 °C 1,9 °C 0,0 km/h (0 Bft)
20.11.2019 21:17 2,0 °C 93 % 1011,7 hPa 0,0 mm 0,0 km/h (0 Bft) O-NO 61 ° 0 min 0,000 mm 0,0 UV-I 0 W/m² 1,0 °C 2,0 °C 0,0 km/h (0 Bft)
20.11.2019 21:18 1,9 °C 93 % 1011,7 hPa 0,0 mm 0,0 km/h (0 Bft) O-NO 61 ° 0 min 0,000 mm 0,0 UV-I 0 W/m² 0,9 °C 1,9 °C 0,0 km/h (0 Bft)
20.11.2019 21:19 1,9 °C 93 % 1011,7 hPa 0,0 mm 0,0 km/h (0 Bft) O-NO 61 ° 0 min 0,000 mm 0,0 UV-I 0 W/m² 0,9 °C 1,9 °C 0,0 km/h (0 Bft)
20.11.2019 21:20 1,9 °C 93 % 1011,7 hPa 0,0 mm 0,0 km/h (0 Bft) O-NO 61 ° 0 min 0,000 mm 0,0 UV-I 0 W/m² 0,9 °C 1,9 °C 0,0 km/h (0 Bft)
20.11.2019 21:21 2,0 °C 93 % 1011,7 hPa 0,0 mm 0,0 km/h (0 Bft) O-NO 61 ° 0 min 0,000 mm 0,0 UV-I 0 W/m² 1,0 °C 2,0 °C 0,0 km/h (0 Bft)
20.11.2019 21:22 1,9 °C 93 % 1011,7 hPa 0,0 mm 0,0 km/h (0 Bft) O-NO 61 ° 0 min 0,000 mm 0,0 UV-I 0 W/m² 0,9 °C 1,9 °C 0,0 km/h (0 Bft)
20.11.2019 21:23 1,9 °C 93 % 1011,7 hPa 0,0 mm 0,0 km/h (0 Bft) O-NO 61 ° 0 min 0,000 mm 0,0 UV-I 0 W/m² 0,9 °C 1,9 °C 0,0 km/h (0 Bft)
20.11.2019 21:24 1,9 °C 93 % 1011,7 hPa 0,0 mm 0,0 km/h (0 Bft) O-NO 61 ° 0 min 0,000 mm 0,0 UV-I 0 W/m² 0,9 °C 1,9 °C 0,0 km/h (0 Bft)
20.11.2019 21:25 1,9 °C 93 % 1011,8 hPa 0,0 mm 0,0 km/h (0 Bft) O-NO 61 ° 0 min 0,000 mm 0,0 UV-I 0 W/m² 0,9 °C 1,9 °C 0,0 km/h (0 Bft)
20.11.2019 21:26 1,9 °C 93 % 1011,7 hPa 0,0 mm 0,0 km/h (0 Bft) O-NO 61 ° 0 min 0,000 mm 0,0 UV-I 0 W/m² 0,9 °C 1,9 °C 0,0 km/h (0 Bft)
20.11.2019 21:27 1,9 °C 93 % 1011,8 hPa 0,0 mm 0,0 km/h (0 Bft) O-NO 61 ° 0 min 0,000 mm 0,0 UV-I 0 W/m² 0,9 °C 1,9 °C 0,0 km/h (0 Bft)
20.11.2019 21:28 1,9 °C 93 % 1011,8 hPa 0,0 mm 0,0 km/h (0 Bft) O-NO 61 ° 0 min 0,000 mm 0,0 UV-I 0 W/m² 0,9 °C 1,9 °C 0,0 km/h (0 Bft)
20.11.2019 21:29 1,9 °C 93 % 1011,8 hPa 0,0 mm 0,0 km/h (0 Bft) O-NO 61 ° 0 min 0,000 mm 0,0 UV-I 0 W/m² 0,9 °C 1,9 °C 0,0 km/h (0 Bft)
20.11.2019 21:30 1,9 °C 93 % 1011,7 hPa 0,0 mm 0,0 km/h (0 Bft) O-NO 61 ° 0 min 0,000 mm 0,0 UV-I 0 W/m² 0,9 °C 1,9 °C 0,0 km/h (0 Bft)
20.11.2019 21:31 1,9 °C 93 % 1011,8 hPa 0,0 mm 0,0 km/h (0 Bft) O-NO 61 ° 0 min 0,000 mm 0,0 UV-I 0 W/m² 0,9 °C 1,9 °C 0,0 km/h (0 Bft)
20.11.2019 21:32 1,9 °C 93 % 1011,8 hPa 0,0 mm 0,0 km/h (0 Bft) O-NO 61 ° 0 min 0,000 mm 0,0 UV-I 0 W/m² 0,9 °C 1,9 °C 0,0 km/h (0 Bft)
20.11.2019 21:33 1,9 °C 93 % 1011,8 hPa 0,0 mm 0,0 km/h (0 Bft) O-NO 61 ° 0 min 0,000 mm 0,0 UV-I 0 W/m² 0,9 °C 1,9 °C 0,0 km/h (0 Bft)
20.11.2019 21:34 1,9 °C 93 % 1011,8 hPa 0,0 mm 0,0 km/h (0 Bft) O-NO 61 ° 0 min 0,000 mm 0,0 UV-I 0 W/m² 0,9 °C 1,9 °C 0,0 km/h (0 Bft)
20.11.2019 21:35 1,9 °C 93 % 1011,8 hPa 0,0 mm 0,0 km/h (0 Bft) O-NO 61 ° 0 min 0,000 mm 0,0 UV-I 0 W/m² 0,9 °C 1,9 °C 0,0 km/h (0 Bft)
20.11.2019 21:36 2,0 °C 93 % 1011,9 hPa 0,0 mm 0,0 km/h (0 Bft) O-NO 61 ° 0 min 0,000 mm 0,0 UV-I 0 W/m² 1,0 °C 2,0 °C 0,0 km/h (0 Bft)
20.11.2019 21:37 1,9 °C 93 % 1011,8 hPa 0,0 mm 0,0 km/h (0 Bft) O-NO 61 ° 0 min 0,000 mm 0,0 UV-I 0 W/m² 0,9 °C 1,9 °C 0,0 km/h (0 Bft)
20.11.2019 21:38 1,9 °C 93 % 1011,8 hPa 0,0 mm 0,0 km/h (0 Bft) O-NO 61 ° 0 min 0,000 mm 0,0 UV-I 0 W/m² 0,9 °C 1,9 °C 0,0 km/h (0 Bft)
20.11.2019 21:39 2,0 °C 93 % 1011,8 hPa 0,0 mm 0,0 km/h (0 Bft) O-NO 61 ° 0 min 0,000 mm 0,0 UV-I 0 W/m² 1,0 °C 2,0 °C 0,0 km/h (0 Bft)
20.11.2019 21:40 1,9 °C 93 % 1011,8 hPa 0,0 mm 0,0 km/h (0 Bft) O-NO 61 ° 0 min 0,000 mm 0,0 UV-I 0 W/m² 0,9 °C 1,9 °C 0,0 km/h (0 Bft)
20.11.2019 21:41 1,9 °C 93 % 1011,8 hPa 0,0 mm 0,0 km/h (0 Bft) O-NO 61 ° 0 min 0,000 mm 0,0 UV-I 0 W/m² 0,9 °C 1,9 °C 0,0 km/h (0 Bft)
20.11.2019 21:42 2,0 °C 93 % 1011,8 hPa 0,0 mm 0,0 km/h (0 Bft) O-NO 61 ° 0 min 0,000 mm 0,0 UV-I 0 W/m² 1,0 °C 2,0 °C 0,0 km/h (0 Bft)
20.11.2019 21:43 2,0 °C 93 % 1011,8 hPa 0,0 mm 0,0 km/h (0 Bft) O-NO 61 ° 0 min 0,000 mm 0,0 UV-I 0 W/m² 1,0 °C 2,0 °C 0,0 km/h (0 Bft)
20.11.2019 21:44 1,9 °C 93 % 1011,8 hPa 0,0 mm 0,0 km/h (0 Bft) O-NO 61 ° 0 min 0,000 mm 0,0 UV-I 0 W/m² 0,9 °C 1,9 °C 0,0 km/h (0 Bft)
20.11.2019 21:45 1,9 °C 93 % 1011,8 hPa 0,0 mm 0,0 km/h (0 Bft) O-NO 61 ° 0 min 0,000 mm 0,0 UV-I 0 W/m² 0,9 °C 1,9 °C 0,0 km/h (0 Bft)
20.11.2019 21:46 2,0 °C 93 % 1011,8 hPa 0,0 mm 0,0 km/h (0 Bft) O-NO 61 ° 0 min 0,000 mm 0,0 UV-I 0 W/m² 1,0 °C 2,0 °C 0,0 km/h (0 Bft)
20.11.2019 21:47 1,9 °C 93 % 1011,8 hPa 0,0 mm 0,0 km/h (0 Bft) O-NO 62 ° 0 min 0,000 mm 0,0 UV-I 0 W/m² 0,9 °C 1,9 °C 0,0 km/h (0 Bft)
20.11.2019 21:48 1,9 °C 93 % 1011,8 hPa 0,0 mm 0,0 km/h (0 Bft) O-NO 61 ° 0 min 0,000 mm 0,0 UV-I 0 W/m² 0,9 °C 1,9 °C 0,0 km/h (0 Bft)
20.11.2019 21:49 2,0 °C 93 % 1011,8 hPa 0,0 mm 0,0 km/h (0 Bft) O-NO 61 ° 0 min 0,000 mm 0,0 UV-I 0 W/m² 1,0 °C 2,0 °C 0,0 km/h (0 Bft)
20.11.2019 21:50 1,9 °C 93 % 1011,7 hPa 0,0 mm 0,0 km/h (0 Bft) O-NO 61 ° 0 min 0,000 mm 0,0 UV-I 0 W/m² 0,9 °C 1,9 °C 0,0 km/h (0 Bft)
20.11.2019 21:51 1,9 °C 93 % 1011,8 hPa 0,0 mm 0,0 km/h (0 Bft) O-NO 61 ° 0 min 0,000 mm 0,0 UV-I 0 W/m² 0,9 °C 1,9 °C 0,0 km/h (0 Bft)
20.11.2019 21:52 1,9 °C 93 % 1011,8 hPa 0,0 mm 0,0 km/h (0 Bft) O-NO 61 ° 0 min 0,000 mm 0,0 UV-I 0 W/m² 0,9 °C 1,9 °C 0,0 km/h (0 Bft)
20.11.2019 21:53 1,9 °C 93 % 1011,8 hPa 0,0 mm 0,0 km/h (0 Bft) O-NO 61 ° 0 min 0,000 mm 0,0 UV-I 0 W/m² 0,9 °C 1,9 °C 0,0 km/h (0 Bft)
20.11.2019 21:54 1,9 °C 93 % 1011,7 hPa 0,0 mm 0,0 km/h (0 Bft) O-NO 61 ° 0 min 0,000 mm 0,0 UV-I 0 W/m² 0,9 °C 1,9 °C 0,0 km/h (0 Bft)
20.11.2019 21:55 1,9 °C 93 % 1011,7 hPa 0,0 mm 0,0 km/h (0 Bft) O-NO 61 ° 0 min 0,000 mm 0,0 UV-I 0 W/m² 0,9 °C 1,9 °C 0,0 km/h (0 Bft)
20.11.2019 21:56 1,9 °C 93 % 1011,7 hPa 0,0 mm 0,0 km/h (0 Bft) O-NO 61 ° 0 min 0,000 mm 0,0 UV-I 0 W/m² 0,9 °C 1,9 °C 0,0 km/h (0 Bft)
20.11.2019 21:57 1,9 °C 93 % 1011,7 hPa 0,0 mm 0,0 km/h (0 Bft) O-NO 61 ° 0 min 0,000 mm 0,0 UV-I 0 W/m² 0,9 °C 1,9 °C 0,0 km/h (0 Bft)
20.11.2019 21:58 1,9 °C 93 % 1011,7 hPa 0,0 mm 0,0 km/h (0 Bft) O-NO 61 ° 0 min 0,000 mm 0,0 UV-I 0 W/m² 0,9 °C 1,9 °C 0,0 km/h (0 Bft)
20.11.2019 21:59 1,9 °C 93 % 1011,8 hPa 0,0 mm 0,0 km/h (0 Bft) O-NO 61 ° 0 min 0,000 mm 0,0 UV-I 0 W/m² 0,9 °C 1,9 °C 0,0 km/h (0 Bft)
20.11.2019 22:00 1,9 °C 93 % 1011,8 hPa 0,0 mm 0,0 km/h (0 Bft) O-NO 61 ° 0 min 0,000 mm 0,0 UV-I 0 W/m² 0,9 °C 1,9 °C 0,0 km/h (0 Bft)
20.11.2019 22:01 1,9 °C 93 % 1011,7 hPa 0,0 mm 0,0 km/h (0 Bft) O-NO 61 ° 0 min 0,000 mm 0,0 UV-I 0 W/m² 0,9 °C 1,9 °C 0,0 km/h (0 Bft)
20.11.2019 22:02 1,9 °C 93 % 1011,8 hPa 0,0 mm 0,0 km/h (0 Bft) O-NO 61 ° 0 min 0,000 mm 0,0 UV-I 0 W/m² 0,9 °C 1,9 °C 0,0 km/h (0 Bft)
20.11.2019 22:03 1,9 °C 93 % 1011,8 hPa 0,0 mm 0,0 km/h (0 Bft) O-NO 61 ° 0 min 0,000 mm 0,0 UV-I 0 W/m² 0,9 °C 1,9 °C 0,0 km/h (0 Bft)
20.11.2019 22:04 1,9 °C 93 % 1011,8 hPa 0,0 mm 0,0 km/h (0 Bft) O-NO 61 ° 0 min 0,000 mm 0,0 UV-I 0 W/m² 0,9 °C 1,9 °C 0,0 km/h (0 Bft)
20.11.2019 22:05 1,9 °C 93 % 1011,8 hPa 0,0 mm 0,0 km/h (0 Bft) O-NO 61 ° 0 min 0,000 mm 0,0 UV-I 0 W/m² 0,9 °C 1,9 °C 0,0 km/h (0 Bft)
20.11.2019 22:06 1,9 °C 93 % 1011,7 hPa 0,0 mm 0,0 km/h (0 Bft) O-NO 61 ° 0 min 0,000 mm 0,0 UV-I 0 W/m² 0,9 °C 1,9 °C 0,0 km/h (0 Bft)
20.11.2019 22:07 1,9 °C 93 % 1011,7 hPa 0,0 mm 0,0 km/h (0 Bft) O-NO 61 ° 0 min 0,000 mm 0,0 UV-I 0 W/m² 0,9 °C 1,9 °C 0,0 km/h (0 Bft)
20.11.2019 22:08 1,9 °C 93 % 1011,7 hPa 0,0 mm 0,0 km/h (0 Bft) O-NO 61 ° 0 min 0,000 mm 0,0 UV-I 0 W/m² 0,9 °C 1,9 °C 0,0 km/h (0 Bft)
20.11.2019 22:09 1,9 °C 93 % 1011,7 hPa 0,0 mm 0,0 km/h (0 Bft) O-NO 61 ° 0 min 0,000 mm 0,0 UV-I 0 W/m² 0,9 °C 1,9 °C 0,0 km/h (0 Bft)
20.11.2019 22:10 1,9 °C 93 % 1011,7 hPa 0,0 mm 0,0 km/h (0 Bft) O-NO 61 ° 0 min 0,000 mm 0,0 UV-I 0 W/m² 0,9 °C 1,9 °C 0,0 km/h (0 Bft)
20.11.2019 22:11 1,9 °C 93 % 1011,7 hPa 0,0 mm 0,0 km/h (0 Bft) O-NO 61 ° 0 min 0,000 mm 0,0 UV-I 0 W/m² 0,9 °C 1,9 °C 0,0 km/h (0 Bft)
20.11.2019 22:12 1,9 °C 93 % 1011,7 hPa 0,0 mm 0,0 km/h (0 Bft) O-NO 61 ° 0 min 0,000 mm 0,0 UV-I 0 W/m² 0,9 °C 1,9 °C 0,0 km/h (0 Bft)
20.11.2019 22:13 1,9 °C 93 % 1011,8 hPa 0,0 mm 0,0 km/h (0 Bft) O-NO 61 ° 0 min 0,000 mm 0,0 UV-I 0 W/m² 0,9 °C 1,9 °C 0,0 km/h (0 Bft)
20.11.2019 22:14 1,9 °C 93 % 1011,7 hPa 0,0 mm 0,0 km/h (0 Bft) O-NO 61 ° 0 min 0,000 mm 0,0 UV-I 0 W/m² 0,9 °C 1,9 °C 0,0 km/h (0 Bft)
20.11.2019 22:15 1,9 °C 93 % 1011,7 hPa 0,0 mm 0,0 km/h (0 Bft) O-NO 63 ° 0 min 0,000 mm 0,0 UV-I 0 W/m² 0,9 °C 1,9 °C 0,0 km/h (0 Bft)
20.11.2019 22:16 1,9 °C 93 % 1011,7 hPa 0,0 mm 0,0 km/h (0 Bft) O-NO 63 ° 0 min 0,000 mm 0,0 UV-I 0 W/m² 0,9 °C 1,9 °C 0,0 km/h (0 Bft)
20.11.2019 22:17 1,9 °C 93 % 1011,7 hPa 0,0 mm 0,0 km/h (0 Bft) O-NO 63 ° 0 min 0,000 mm 0,0 UV-I 0 W/m² 0,9 °C 1,9 °C 0,0 km/h (0 Bft)
20.11.2019 22:18 1,9 °C 93 % 1011,7 hPa 0,0 mm 0,0 km/h (0 Bft) O 85 ° 0 min 0,000 mm 0,0 UV-I 0 W/m² 0,9 °C 1,9 °C 0,0 km/h (0 Bft)
20.11.2019 22:19 1,9 °C 93 % 1011,7 hPa 0,0 mm 0,0 km/h (0 Bft) O 85 ° 0 min 0,000 mm 0,0 UV-I 0 W/m² 0,9 °C 1,9 °C 0,0 km/h (0 Bft)
20.11.2019 22:20 1,9 °C 93 % 1011,6 hPa 0,0 mm 0,0 km/h (0 Bft) O 85 ° 0 min 0,000 mm 0,0 UV-I 0 W/m² 0,9 °C 1,9 °C 0,0 km/h (0 Bft)
20.11.2019 22:21 1,9 °C 93 % 1011,7 hPa 0,0 mm 0,0 km/h (0 Bft) O 85 ° 0 min 0,000 mm 0,0 UV-I 0 W/m² 0,9 °C 1,9 °C 0,0 km/h (0 Bft)
20.11.2019 22:22 1,9 °C 93 % 1011,6 hPa 0,0 mm 0,0 km/h (0 Bft) O 85 ° 0 min 0,000 mm 0,0 UV-I 0 W/m² 0,9 °C 1,9 °C 0,0 km/h (0 Bft)
20.11.2019 22:23 1,9 °C 93 % 1011,6 hPa 0,0 mm 0,0 km/h (0 Bft) O 85 ° 0 min 0,000 mm 0,0 UV-I 0 W/m² 0,9 °C 1,9 °C 0,0 km/h (0 Bft)
20.11.2019 22:24 1,9 °C 93 % 1011,7 hPa 0,0 mm 0,0 km/h (0 Bft) O 85 ° 0 min 0,000 mm 0,0 UV-I 0 W/m² 0,9 °C 1,9 °C 0,0 km/h (0 Bft)
20.11.2019 22:25 1,9 °C 93 % 1011,6 hPa 0,0 mm 0,0 km/h (0 Bft) O 85 ° 0 min 0,000 mm 0,0 UV-I 0 W/m² 0,9 °C 1,9 °C 0,0 km/h (0 Bft)
20.11.2019 22:26 1,9 °C 93 % 1011,6 hPa 0,0 mm 0,0 km/h (0 Bft) O 85 ° 0 min 0,000 mm 0,0 UV-I 0 W/m² 0,9 °C 1,9 °C 0,0 km/h (0 Bft)
20.11.2019 22:27 1,9 °C 93 % 1011,6 hPa 0,0 mm 0,0 km/h (0 Bft) O 85 ° 0 min 0,000 mm 0,0 UV-I 0 W/m² 0,9 °C 1,9 °C 0,0 km/h (0 Bft)
20.11.2019 22:28 1,9 °C 93 % 1011,6 hPa 0,0 mm 0,0 km/h (0 Bft) O 85 ° 0 min 0,000 mm 0,0 UV-I 0 W/m² 0,9 °C 1,9 °C 0,0 km/h (0 Bft)
20.11.2019 22:29 1,9 °C 93 % 1011,6 hPa 0,0 mm 0,0 km/h (0 Bft) O 85 ° 0 min 0,000 mm 0,0 UV-I 0 W/m² 0,9 °C 1,9 °C 0,0 km/h (0 Bft)
20.11.2019 22:30 1,9 °C 93 % 1011,6 hPa 0,0 mm 0,0 km/h (0 Bft) O 85 ° 0 min 0,000 mm 0,0 UV-I 0 W/m² 0,9 °C 1,9 °C 0,0 km/h (0 Bft)
20.11.2019 22:31 1,9 °C 93 % 1011,6 hPa 0,0 mm 0,0 km/h (0 Bft) O 85 ° 0 min 0,000 mm 0,0 UV-I 0 W/m² 0,9 °C 1,9 °C 0,0 km/h (0 Bft)
20.11.2019 22:32 1,9 °C 93 % 1011,6 hPa 0,0 mm 0,0 km/h (0 Bft) O 85 ° 0 min 0,000 mm 0,0 UV-I 0 W/m² 0,9 °C 1,9 °C 0,0 km/h (0 Bft)
20.11.2019 22:33 1,9 °C 93 % 1011,6 hPa 0,0 mm 0,0 km/h (0 Bft) O 85 ° 0 min 0,000 mm 0,0 UV-I 0 W/m² 0,9 °C 1,9 °C 0,0 km/h (0 Bft)
20.11.2019 22:34 1,9 °C 93 % 1011,6 hPa 0,0 mm 0,0 km/h (0 Bft) O 85 ° 0 min 0,000 mm 0,0 UV-I 0 W/m² 0,9 °C 1,9 °C 0,0 km/h (0 Bft)
20.11.2019 22:35 1,9 °C 93 % 1011,6 hPa 0,0 mm 0,0 km/h (0 Bft) O 85 ° 0 min 0,000 mm 0,0 UV-I 0 W/m² 0,9 °C 1,9 °C 0,0 km/h (0 Bft)
20.11.2019 22:36 1,9 °C 93 % 1011,6 hPa 0,0 mm 0,0 km/h (0 Bft) O 85 ° 0 min 0,000 mm 0,0 UV-I 0 W/m² 0,9 °C 1,9 °C 0,0 km/h (0 Bft)
20.11.2019 22:37 1,9 °C 93 % 1011,6 hPa 0,0 mm 0,0 km/h (0 Bft) O 85 ° 0 min 0,000 mm 0,0 UV-I 0 W/m² 0,9 °C 1,9 °C 0,0 km/h (0 Bft)
20.11.2019 22:38 1,9 °C 93 % 1011,6 hPa 0,0 mm 0,0 km/h (0 Bft) O 85 ° 0 min 0,000 mm 0,0 UV-I 0 W/m² 0,9 °C 1,9 °C 0,0 km/h (0 Bft)
20.11.2019 22:39 1,9 °C 93 % 1011,6 hPa 0,0 mm 0,0 km/h (0 Bft) O-SO 104 ° 0 min 0,000 mm 0,0 UV-I 0 W/m² 0,9 °C 1,9 °C 0,0 km/h (0 Bft)
20.11.2019 22:40 1,9 °C 93 % 1011,6 hPa 0,0 mm 0,0 km/h (0 Bft) O-SO 104 ° 0 min 0,000 mm 0,0 UV-I 0 W/m² 0,9 °C 1,9 °C 0,0 km/h (0 Bft)
20.11.2019 22:41 1,9 °C 93 % 1011,6 hPa 0,0 mm 0,0 km/h (0 Bft) O-SO 104 ° 0 min 0,000 mm 0,0 UV-I 0 W/m² 0,9 °C 1,9 °C 0,0 km/h (0 Bft)
20.11.2019 22:42 1,9 °C 93 % 1011,6 hPa 0,0 mm 0,0 km/h (0 Bft) O-SO 104 ° 0 min 0,000 mm 0,0 UV-I 0 W/m² 0,9 °C 1,9 °C 0,0 km/h (0 Bft)
20.11.2019 22:43 1,9 °C 93 % 1011,6 hPa 0,0 mm 0,0 km/h (0 Bft) O-SO 104 ° 0 min 0,000 mm 0,0 UV-I 0 W/m² 0,9 °C 1,9 °C 0,0 km/h (0 Bft)
20.11.2019 22:44 1,9 °C 93 % 1011,6 hPa 0,0 mm 0,0 km/h (0 Bft) O-SO 104 ° 0 min 0,000 mm 0,0 UV-I 0 W/m² 0,9 °C 1,9 °C 0,0 km/h (0 Bft)
20.11.2019 22:45 1,8 °C 93 % 1011,6 hPa 0,0 mm 0,0 km/h (0 Bft) O-SO 104 ° 0 min 0,000 mm 0,0 UV-I 0 W/m² 0,8 °C 1,8 °C 0,0 km/h (0 Bft)
20.11.2019 22:46 1,9 °C 93 % 1011,6 hPa 0,0 mm 0,0 km/h (0 Bft) O-SO 104 ° 0 min 0,000 mm 0,0 UV-I 0 W/m² 0,9 °C 1,9 °C 0,0 km/h (0 Bft)
20.11.2019 22:47 1,9 °C 93 % 1011,5 hPa 0,0 mm 0,0 km/h (0 Bft) O-SO 104 ° 0 min 0,000 mm 0,0 UV-I 0 W/m² 0,9 °C 1,9 °C 0,0 km/h (0 Bft)
20.11.2019 22:48 1,9 °C 93 % 1011,6 hPa 0,0 mm 0,0 km/h (0 Bft) O-SO 104 ° 0 min 0,000 mm 0,0 UV-I 0 W/m² 0,9 °C 1,9 °C 0,0 km/h (0 Bft)
20.11.2019 22:49 1,9 °C 93 % 1011,6 hPa 0,0 mm 0,0 km/h (0 Bft) O-SO 104 ° 0 min 0,000 mm 0,0 UV-I 0 W/m² 0,9 °C 1,9 °C 0,0 km/h (0 Bft)
20.11.2019 22:50 1,9 °C 93 % 1011,6 hPa 0,0 mm 0,0 km/h (0 Bft) O-SO 104 ° 0 min 0,000 mm 0,0 UV-I 0 W/m² 0,9 °C 1,9 °C 0,0 km/h (0 Bft)
20.11.2019 22:51 1,9 °C 93 % 1011,6 hPa 0,0 mm 0,0 km/h (0 Bft) O-SO 104 ° 0 min 0,000 mm 0,0 UV-I 0 W/m² 0,9 °C 1,9 °C 0,0 km/h (0 Bft)
20.11.2019 22:52 1,8 °C 93 % 1011,6 hPa 0,0 mm 0,0 km/h (0 Bft) O-SO 104 ° 0 min 0,000 mm 0,0 UV-I 0 W/m² 0,8 °C 1,8 °C 0,0 km/h (0 Bft)
20.11.2019 22:53 1,9 °C 93 % 1011,6 hPa 0,0 mm 0,0 km/h (0 Bft) O-SO 104 ° 0 min 0,000 mm 0,0 UV-I 0 W/m² 0,9 °C 1,9 °C 0,0 km/h (0 Bft)
20.11.2019 22:54 1,8 °C 93 % 1011,6 hPa 0,0 mm 0,0 km/h (0 Bft) O-SO 104 ° 0 min 0,000 mm 0,0 UV-I 0 W/m² 0,8 °C 1,8 °C 0,0 km/h (0 Bft)
20.11.2019 22:55 1,8 °C 93 % 1011,6 hPa 0,0 mm 0,0 km/h (0 Bft) O-SO 104 ° 0 min 0,000 mm 0,0 UV-I 0 W/m² 0,8 °C 1,8 °C 0,0 km/h (0 Bft)
20.11.2019 22:56 1,8 °C 93 % 1011,5 hPa 0,0 mm 0,0 km/h (0 Bft) O-SO 104 ° 0 min 0,000 mm 0,0 UV-I 0 W/m² 0,8 °C 1,8 °C 0,0 km/h (0 Bft)
20.11.2019 22:57 1,8 °C 93 % 1011,5 hPa 0,0 mm 0,0 km/h (0 Bft) O-SO 104 ° 0 min 0,000 mm 0,0 UV-I 0 W/m² 0,8 °C 1,8 °C 0,0 km/h (0 Bft)
20.11.2019 22:58 1,8 °C 93 % 1011,5 hPa 0,0 mm 0,0 km/h (0 Bft) O-SO 104 ° 0 min 0,000 mm 0,0 UV-I 0 W/m² 0,8 °C 1,8 °C 0,0 km/h (0 Bft)
20.11.2019 22:59 1,8 °C 93 % 1011,5 hPa 0,0 mm 0,0 km/h (0 Bft) O-SO 104 ° 0 min 0,000 mm 0,0 UV-I 0 W/m² 0,8 °C 1,8 °C 0,0 km/h (0 Bft)
20.11.2019 23:00 1,8 °C 93 % 1011,5 hPa 0,0 mm 0,0 km/h (0 Bft) O-SO 104 ° 0 min 0,000 mm 0,0 UV-I 0 W/m² 0,8 °C 1,8 °C 0,0 km/h (0 Bft)
20.11.2019 23:01 1,8 °C 93 % 1011,5 hPa 0,0 mm 0,0 km/h (0 Bft) O-SO 104 ° 0 min 0,000 mm 0,0 UV-I 0 W/m² 0,8 °C 1,8 °C 0,0 km/h (0 Bft)
20.11.2019 23:02 1,8 °C 93 % 1011,5 hPa 0,0 mm 0,0 km/h (0 Bft) O-SO 104 ° 0 min 0,000 mm 0,0 UV-I 0 W/m² 0,8 °C 1,8 °C 0,0 km/h (0 Bft)
20.11.2019 23:03 1,8 °C 93 % 1011,5 hPa 0,0 mm 0,0 km/h (0 Bft) O-SO 104 ° 0 min 0,000 mm 0,0 UV-I 0 W/m² 0,8 °C 1,8 °C 0,0 km/h (0 Bft)
20.11.2019 23:04 1,8 °C 93 % 1011,5 hPa 0,0 mm 0,0 km/h (0 Bft) O-SO 104 ° 0 min 0,000 mm 0,0 UV-I 0 W/m² 0,8 °C 1,8 °C 0,0 km/h (0 Bft)
20.11.2019 23:05 1,8 °C 93 % 1011,5 hPa 0,0 mm 0,0 km/h (0 Bft) O-SO 104 ° 0 min 0,000 mm 0,0 UV-I 0 W/m² 0,8 °C 1,8 °C 0,0 km/h (0 Bft)
20.11.2019 23:06 1,8 °C 93 % 1011,5 hPa 0,0 mm 0,0 km/h (0 Bft) O-SO 104 ° 0 min 0,000 mm 0,0 UV-I 0 W/m² 0,8 °C 1,8 °C 0,0 km/h (0 Bft)
20.11.2019 23:07 1,8 °C 93 % 1011,5 hPa 0,0 mm 0,0 km/h (0 Bft) O-SO 104 ° 0 min 0,000 mm 0,0 UV-I 0 W/m² 0,8 °C 1,8 °C 0,0 km/h (0 Bft)
20.11.2019 23:08 1,8 °C 93 % 1011,5 hPa 0,0 mm 0,0 km/h (0 Bft) O-SO 104 ° 0 min 0,000 mm 0,0 UV-I 0 W/m² 0,8 °C 1,8 °C 0,0 km/h (0 Bft)
20.11.2019 23:09 1,8 °C 93 % 1011,4 hPa 0,0 mm 0,0 km/h (0 Bft) O-SO 104 ° 0 min 0,000 mm 0,0 UV-I 0 W/m² 0,8 °C 1,8 °C 0,0 km/h (0 Bft)
20.11.2019 23:10 1,8 °C 93 % 1011,4 hPa 0,0 mm 0,0 km/h (0 Bft) O-SO 104 ° 0 min 0,000 mm 0,0 UV-I 0 W/m² 0,8 °C 1,8 °C 0,0 km/h (0 Bft)
20.11.2019 23:11 1,8 °C 93 % 1011,4 hPa 0,0 mm 0,0 km/h (0 Bft) O-SO 104 ° 0 min 0,000 mm 0,0 UV-I 0 W/m² 0,8 °C 1,8 °C 0,0 km/h (0 Bft)
20.11.2019 23:12 1,8 °C 93 % 1011,4 hPa 0,0 mm 0,0 km/h (0 Bft) O-SO 104 ° 0 min 0,000 mm 0,0 UV-I 0 W/m² 0,8 °C 1,8 °C 0,0 km/h (0 Bft)
20.11.2019 23:13 1,8 °C 93 % 1011,4 hPa 0,0 mm 0,0 km/h (0 Bft) O-SO 104 ° 0 min 0,000 mm 0,0 UV-I 0 W/m² 0,8 °C 1,8 °C 0,0 km/h (0 Bft)
20.11.2019 23:14 1,8 °C 93 % 1011,4 hPa 0,0 mm 0,0 km/h (0 Bft) O-SO 104 ° 0 min 0,000 mm 0,0 UV-I 0 W/m² 0,8 °C 1,8 °C 0,0 km/h (0 Bft)
20.11.2019 23:15 1,8 °C 93 % 1011,4 hPa 0,0 mm 0,0 km/h (0 Bft) O-SO 104 ° 0 min 0,000 mm 0,0 UV-I 0 W/m² 0,8 °C 1,8 °C 0,0 km/h (0 Bft)
20.11.2019 23:16 1,8 °C 93 % 1011,4 hPa 0,0 mm 0,0 km/h (0 Bft) O-SO 104 ° 0 min 0,000 mm 0,0 UV-I 0 W/m² 0,8 °C 1,8 °C 0,0 km/h (0 Bft)
20.11.2019 23:17 1,8 °C 93 % 1011,4 hPa 0,0 mm 0,0 km/h (0 Bft) O-SO 104 ° 0 min 0,000 mm 0,0 UV-I 0 W/m² 0,8 °C 1,8 °C 0,0 km/h (0 Bft)
20.11.2019 23:18 1,8 °C 93 % 1011,4 hPa 0,0 mm 0,0 km/h (0 Bft) O-SO 104 ° 0 min 0,000 mm 0,0 UV-I 0 W/m² 0,8 °C 1,8 °C 0,0 km/h (0 Bft)
20.11.2019 23:19 1,8 °C 93 % 1011,3 hPa 0,0 mm 0,0 km/h (0 Bft) O-SO 104 ° 0 min 0,000 mm 0,0 UV-I 0 W/m² 0,8 °C 1,8 °C 0,0 km/h (0 Bft)
20.11.2019 23:20 1,8 °C 93 % 1011,3 hPa 0,0 mm 0,0 km/h (0 Bft) O-SO 104 ° 0 min 0,000 mm 0,0 UV-I 0 W/m² 0,8 °C 1,8 °C 0,0 km/h (0 Bft)
20.11.2019 23:21 1,8 °C 93 % 1011,3 hPa 0,0 mm 0,0 km/h (0 Bft) O-SO 104 ° 0 min 0,000 mm 0,0 UV-I 0 W/m² 0,8 °C 1,8 °C 0,0 km/h (0 Bft)
20.11.2019 23:22 1,8 °C 93 % 1011,3 hPa 0,0 mm 0,0 km/h (0 Bft) O-SO 104 ° 0 min 0,000 mm 0,0 UV-I 0 W/m² 0,8 °C 1,8 °C 0,0 km/h (0 Bft)
20.11.2019 23:23 1,8 °C 93 % 1011,3 hPa 0,0 mm 0,0 km/h (0 Bft) O-SO 104 ° 0 min 0,000 mm 0,0 UV-I 0 W/m² 0,8 °C 1,8 °C 0,0 km/h (0 Bft)
20.11.2019 23:24 1,8 °C 93 % 1011,3 hPa 0,0 mm 0,0 km/h (0 Bft) O-SO 104 ° 0 min 0,000 mm 0,0 UV-I 0 W/m² 0,8 °C 1,8 °C 0,0 km/h (0 Bft)
20.11.2019 23:25 1,8 °C 93 % 1011,3 hPa 0,0 mm 0,0 km/h (0 Bft) O-SO 104 ° 0 min 0,000 mm 0,0 UV-I 0 W/m² 0,8 °C 1,8 °C 0,0 km/h (0 Bft)
20.11.2019 23:26 1,8 °C 93 % 1011,3 hPa 0,0 mm 0,0 km/h (0 Bft) O-SO 104 ° 0 min 0,000 mm 0,0 UV-I 0 W/m² 0,8 °C 1,8 °C 0,0 km/h (0 Bft)
20.11.2019 23:27 1,8 °C 93 % 1011,3 hPa 0,0 mm 0,0 km/h (0 Bft) O-SO 104 ° 0 min 0,000 mm 0,0 UV-I 0 W/m² 0,8 °C 1,8 °C 0,0 km/h (0 Bft)
20.11.2019 23:28 1,8 °C 93 % 1011,3 hPa 0,0 mm 0,0 km/h (0 Bft) O-SO 104 ° 0 min 0,000 mm 0,0 UV-I 0 W/m² 0,8 °C 1,8 °C 0,0 km/h (0 Bft)
20.11.2019 23:29 1,8 °C 93 % 1011,3 hPa 0,0 mm 0,0 km/h (0 Bft) O-SO 104 ° 0 min 0,000 mm 0,0 UV-I 0 W/m² 0,8 °C 1,8 °C 0,0 km/h (0 Bft)
20.11.2019 23:30 1,8 °C 93 % 1011,3 hPa 0,0 mm 0,0 km/h (0 Bft) O-SO 104 ° 0 min 0,000 mm 0,0 UV-I 0 W/m² 0,8 °C 1,8 °C 0,0 km/h (0 Bft)
20.11.2019 23:31 1,8 °C 93 % 1011,2 hPa 0,0 mm 0,0 km/h (0 Bft) O-SO 104 ° 0 min 0,000 mm 0,0 UV-I 0 W/m² 0,8 °C 1,8 °C 0,0 km/h (0 Bft)
20.11.2019 23:32 1,7 °C 93 % 1011,3 hPa 0,0 mm 0,0 km/h (0 Bft) O-SO 104 ° 0 min 0,000 mm 0,0 UV-I 0 W/m² 0,7 °C 1,7 °C 0,0 km/h (0 Bft)
20.11.2019 23:33 1,8 °C 93 % 1011,2 hPa 0,0 mm 0,0 km/h (0 Bft) O-SO 104 ° 0 min 0,000 mm 0,0 UV-I 0 W/m² 0,8 °C 1,8 °C 0,0 km/h (0 Bft)
20.11.2019 23:34 1,8 °C 93 % 1011,2 hPa 0,0 mm 0,4 km/h (0 Bft) O-SO 104 ° 0 min 0,000 mm 0,0 UV-I 0 W/m² 0,8 °C 1,8 °C 3,2 km/h (1 Bft)
20.11.2019 23:35 1,8 °C 93 % 1011,2 hPa 0,0 mm 5,0 km/h (1 Bft) W-SW 245 ° 0 min 0,000 mm 0,0 UV-I 0 W/m² 0,8 °C 0,5 °C 6,4 km/h (2 Bft)
20.11.2019 23:36 1,8 °C 93 % 1011,2 hPa 0,0 mm 2,9 km/h (1 Bft) W-SW 245 ° 0 min 0,000 mm 0,0 UV-I 0 W/m² 0,8 °C 1,8 °C 3,2 km/h (1 Bft)
20.11.2019 23:37 1,8 °C 93 % 1011,2 hPa 0,0 mm 1,3 km/h (1 Bft) W-SW 245 ° 0 min 0,000 mm 0,0 UV-I 0 W/m² 0,8 °C 1,8 °C 3,2 km/h (1 Bft)
20.11.2019 23:38 1,8 °C 93 % 1011,1 hPa 0,0 mm 0,0 km/h (0 Bft) W-SW 245 ° 0 min 0,000 mm 0,0 UV-I 0 W/m² 0,8 °C 1,8 °C 0,0 km/h (0 Bft)
20.11.2019 23:39 1,8 °C 93 % 1011,2 hPa 0,0 mm 0,0 km/h (0 Bft) W-SW 245 ° 0 min 0,000 mm 0,0 UV-I 0 W/m² 0,8 °C 1,8 °C 0,0 km/h (0 Bft)
20.11.2019 23:40 1,8 °C 93 % 1011,1 hPa 0,0 mm 0,0 km/h (0 Bft) W-SW 245 ° 0 min 0,000 mm 0,0 UV-I 0 W/m² 0,8 °C 1,8 °C 0,0 km/h (0 Bft)
20.11.2019 23:41 1,7 °C 93 % 1011,1 hPa 0,0 mm 0,0 km/h (0 Bft) W-SW 245 ° 0 min 0,000 mm 0,0 UV-I 0 W/m² 0,7 °C 1,7 °C 0,0 km/h (0 Bft)
20.11.2019 23:42 1,8 °C 93 % 1011,1 hPa 0,0 mm 0,0 km/h (0 Bft) W-SW 245 ° 0 min 0,000 mm 0,0 UV-I 0 W/m² 0,8 °C 1,8 °C 0,0 km/h (0 Bft)
20.11.2019 23:43 1,8 °C 93 % 1011,1 hPa 0,0 mm 0,0 km/h (0 Bft) W-SW 245 ° 0 min 0,000 mm 0,0 UV-I 0 W/m² 0,8 °C 1,8 °C 0,0 km/h (0 Bft)
20.11.2019 23:44 1,8 °C 93 % 1011,1 hPa 0,0 mm 0,0 km/h (0 Bft) W-SW 245 ° 0 min 0,000 mm 0,0 UV-I 0 W/m² 0,8 °C 1,8 °C 0,0 km/h (0 Bft)
20.11.2019 23:45 1,8 °C 93 % 1011,1 hPa 0,0 mm 0,0 km/h (0 Bft) W-SW 245 ° 0 min 0,000 mm 0,0 UV-I 0 W/m² 0,8 °C 1,8 °C 0,0 km/h (0 Bft)
20.11.2019 23:46 1,8 °C 93 % 1011,1 hPa 0,0 mm 0,0 km/h (0 Bft) W-SW 245 ° 0 min 0,000 mm 0,0 UV-I 0 W/m² 0,8 °C 1,8 °C 0,0 km/h (0 Bft)
20.11.2019 23:47 1,8 °C 93 % 1011,1 hPa 0,0 mm 0,0 km/h (0 Bft) W-SW 245 ° 0 min 0,000 mm 0,0 UV-I 0 W/m² 0,8 °C 1,8 °C 0,0 km/h (0 Bft)
20.11.2019 23:48 1,8 °C 93 % 1011,1 hPa 0,0 mm 0,0 km/h (0 Bft) W-SW 245 ° 0 min 0,000 mm 0,0 UV-I 0 W/m² 0,8 °C 1,8 °C 0,0 km/h (0 Bft)
20.11.2019 23:49 1,8 °C 93 % 1011,1 hPa 0,0 mm 0,0 km/h (0 Bft) W-SW 245 ° 0 min 0,000 mm 0,0 UV-I 0 W/m² 0,8 °C 1,8 °C 0,0 km/h (0 Bft)
20.11.2019 23:50 1,8 °C 93 % 1011,2 hPa 0,0 mm 0,0 km/h (0 Bft) W-SW 245 ° 0 min 0,000 mm 0,0 UV-I 0 W/m² 0,8 °C 1,8 °C 0,0 km/h (0 Bft)
20.11.2019 23:51 1,8 °C 93 % 1011,2 hPa 0,0 mm 0,0 km/h (0 Bft) W-SW 245 ° 0 min 0,000 mm 0,0 UV-I 0 W/m² 0,8 °C 1,8 °C 0,0 km/h (0 Bft)
20.11.2019 23:52 1,8 °C 93 % 1011,1 hPa 0,0 mm 0,0 km/h (0 Bft) W-SW 245 ° 0 min 0,000 mm 0,0 UV-I 0 W/m² 0,8 °C 1,8 °C 0,0 km/h (0 Bft)
20.11.2019 23:53 1,8 °C 93 % 1011,1 hPa 0,0 mm 0,0 km/h (0 Bft) W-SW 245 ° 0 min 0,000 mm 0,0 UV-I 0 W/m² 0,8 °C 1,8 °C 0,0 km/h (0 Bft)
20.11.2019 23:54 1,8 °C 93 % 1011,1 hPa 0,0 mm 0,0 km/h (0 Bft) W-SW 245 ° 0 min 0,000 mm 0,0 UV-I 0 W/m² 0,8 °C 1,8 °C 0,0 km/h (0 Bft)
20.11.2019 23:55 1,8 °C 93 % 1011,1 hPa 0,0 mm 0,0 km/h (0 Bft) W-SW 245 ° 0 min 0,000 mm 0,0 UV-I 0 W/m² 0,8 °C 1,8 °C 0,0 km/h (0 Bft)
20.11.2019 23:56 1,8 °C 93 % 1011,1 hPa 0,0 mm 0,0 km/h (0 Bft) W-SW 245 ° 0 min 0,000 mm 0,0 UV-I 0 W/m² 0,8 °C 1,8 °C 0,0 km/h (0 Bft)
20.11.2019 23:57 1,8 °C 93 % 1011,1 hPa 0,0 mm 0,0 km/h (0 Bft) W-SW 245 ° 0 min 0,000 mm 0,0 UV-I 0 W/m² 0,8 °C 1,8 °C 0,0 km/h (0 Bft)
20.11.2019 23:58 1,7 °C 93 % 1011,1 hPa 0,0 mm 0,0 km/h (0 Bft) W-SW 245 ° 0 min 0,000 mm 0,0 UV-I 0 W/m² 0,7 °C 1,7 °C 0,0 km/h (0 Bft)
20.11.2019 23:59 1,7 °C 93 % 1011,1 hPa 0,0 mm 0,0 km/h (0 Bft) W-SW 245 ° 0 min 0,000 mm 0,0 UV-I 0 W/m² 0,7 °C 1,7 °C 0,0 km/h (0 Bft)
_ Min-Zeit 07:40 16:25 23:59 - 23:59 - - - - - - 07:40 05:56 23:59
Minimum _ 1,1 °C 90 % 1011,1 hPa - 0,0 km/h (0 Bft) - - - - - - 0,1 °C -0,9 °C 0,0 km/h (0 Bft)
_ Max-Zeit 15:21 10:27 00:09 23:59 10:51 - - 23:59 16:01 11:37 11:22 15:21 15:21 14:09
Maximum _ 3,3 °C 94 % 1017,1 hPa 0,0 mm 7,6 km/h
O-SO (2 Bft)
- - 0 min 0,026 mm 0,7 UV-I 104 W/m² 1,8 °C 3,3 °C 12,9 km/h
S-SO (3 Bft)
Durchschnitt _ 2,0 °C 93 % 1013,9 hPa #0,0 mm 2,2 km/h (1 Bft) O-NO - #0 min. #0,178 mm 0,6 UV-I 18 W/m² 1,0 °C 1,9 °C 3,6 km/h (1 Bft)